[[{"header":{"parameterUnit":"m.s-1","parameterCategory":1,"la1":31.0,"la2":29.5877,"lo1":-88.7671,"lo2":-86.6584,"dy":0.0162,"dx":0.0185,"nx":115,"ny":88,"refTime":"2023-07-29T12:00:00:Z","depth":0,"parameterNumber":2,"parameterNumberName":"U-component_of_WINDS"},"data":[0.0,0.0,0.0,0.0,0.0,0.0,0.0,0.0,0.0,0.0,0.0,0.0,0.0,0.0,0.0,0.0,0.0,0.0,0.0,0.0,0.0,0.0,0.0,0.0,0.0,0.0,0.0,0.0,0.0,0.0,0.0,0.0,0.0,0.0,0.0,0.0,0.0,0.0,0.0,0.0,0.0,0.0,0.0,0.0,0.0,0.0,0.0,0.0,0.0,0.0,0.0,0.0,0.0,0.0,0.0,0.0,0.0,0.0,0.0,0.0,0.0,0.0,0.0,0.0,0.0,0.0,0.0,0.0,0.0,0.0,0.0,0.0,0.0,0.0,0.0,0.0,0.0,0.0,0.0,0.0,0.0,0.0,0.0,0.0,0.0,0.0,0.0,0.0,0.0,0.0,0.0,0.0,0.0,0.0,0.0,0.0,0.0,0.0,0.0,0.0,0.0,0.0,0.0,0.0,0.0,0.0,0.0,0.0,0.0,0.0,0.0,0.0,0.0,0.0,0.0,0.0,0.0,0.0,0.0,0.0,0.0,0.0,0.0,0.0,0.0,0.0,0.0,0.0,0.0,0.0,0.0,0.0,0.0,0.0,0.0,0.0,0.0,0.0,0.0,0.0,0.0,0.0,0.0,0.0,0.0,0.0,0.0,0.0,0.0,0.0,0.0,0.0,0.0,0.0,0.0,0.0,0.0,0.0,0.0,0.0,0.0,0.0,0.0,0.0,0.0,0.0,0.0,0.0,0.0,0.0,0.0,0.0,0.0,0.0,0.0,0.0,0.0,0.0,0.0,0.0,0.0,0.0,0.0,0.0,0.0,0.0,0.0,0.0,0.0,0.0,0.0,0.0,0.0,0.0,0.0,0.0,0.0,0.0,0.0,0.0,0.0,0.0,0.0,0.0,0.0,0.0,0.0,0.0,0.0,0.0,0.0,0.0,0.0,0.0,0.0,0.0,0.0,0.0,0.0,0.0,0.0,0.0,0.0,0.0,0.0,0.0,0.0,0.0,0.0,0.0,0.0,0.0,0.0,0.0,0.0,0.0,0.0,0.0,0.0,0.0,0.0,0.0,0.0,0.0,0.0,0.0,0.0,0.0,0.0,0.0,0.0,0.0,0.0,0.0,0.0,0.0,0.0,0.0,0.0,0.0,0.0,0.0,0.0,0.0,0.0,0.0,0.0,0.0,0.0,0.0,0.0,0.0,0.0,0.0,0.0,0.0,0.0,0.0,0.0,0.0,0.0,0.0,0.0,0.0,0.0,0.0,0.0,0.0,0.0,0.0,0.0,0.0,0.0,0.0,0.0,0.0,0.0,0.0,0.0,0.0,0.0,0.0,0.0,0.0,0.0,0.0,0.0,0.0,0.0,0.0,0.0,0.0,0.0,0.0,0.0,0.0,0.0,0.0,0.0,0.0,0.0,0.0,0.0,0.0,0.0,0.0,0.0,0.0,0.0,0.0,0.0,0.0,0.0,0.0,0.0,0.0,0.0,0.0,0.0,0.0,0.0,0.0,0.0,0.0,0.0,0.0,0.0,0.0,0.0,0.0,0.0,0.0,0.0,0.0,0.0,0.0,0.0,0.0,0.0,0.0,0.0,0.0,0.0,0.0,0.0,0.0,0.0,0.0,0.0,0.0,0.0,0.0,0.0,0.0,0.0,0.0,0.0,0.0,0.0,0.0,0.0,0.0,0.0,0.0,0.0,0.0,0.0,0.0,0.0,0.0,0.0,0.0,0.0,0.0,0.0,0.0,0.0,0.0,0.0,0.0,0.0,0.0,0.0,0.0,0.0,0.0,0.0,0.0,0.0,0.0,0.0,0.0,0.0,0.0,0.0,0.0,0.0,0.0,0.0,0.0,0.0,0.0,0.0,0.0,0.0,0.0,0.0,0.0,0.0,0.0,0.0,0.0,0.0,0.0,0.0,0.0,0.0,0.0,0.0,0.0,0.0,0.0,0.0,0.0,0.0,0.0,0.0,0.0,0.0,0.0,0.0,0.0,0.0,0.0,0.0,0.0,0.0,0.0,0.0,0.0,0.0,0.0,0.0,0.0,0.0,0.0,0.0,0.0,0.0,0.0,0.0,0.0,0.0,0.0,0.0,0.0,0.0,0.0,0.0,0.0,0.0,0.0,0.0,0.0,0.0,0.0,0.0,0.0,0.0,0.0,0.0,0.0,0.0,0.0,0.0,0.0,0.0,0.0,0.0,0.0,0.0,0.0,0.0,0.0,0.0,0.0,0.0,0.0,0.0,0.0,0.0,0.0,0.0,0.0,0.0,0.0,0.0,0.0,0.0,0.0,0.0,0.0,0.0,0.0,0.0,0.0,0.0,0.0,0.0,0.0,0.0,0.0,0.0,0.0,0.0,0.0,0.0,0.0,0.0,0.0,0.0,0.0,0.0,0.0,0.0,0.0,0.0,0.0,0.0,0.0,0.0,0.0,0.0,0.0,0.0,0.0,0.0,0.0,0.0,0.0,0.0,0.0,0.0,0.0,0.0,0.0,0.0,0.0,0.0,0.0,0.0,0.0,0.0,0.0,0.0,0.0,0.0,0.0,0.0,0.0,0.0,0.0,0.0,0.0,0.0,0.0,0.0,0.0,0.0,0.0,0.0,0.0,0.0,0.0,0.0,0.0,0.0,0.0,0.0,0.0,0.0,0.0,0.0,0.0,0.0,0.0,0.0,0.0,0.0,0.0,0.0,0.0,0.0,0.0,0.0,0.0,0.0,0.0,0.0,0.0,0.0,0.0,0.0,0.0,0.0,0.0,0.0,0.0,0.0,0.0,0.0,0.0,0.0,0.0,0.0,0.0,0.0,0.0,0.0,0.0,0.0,0.0,0.0,0.0,0.0,0.0,0.0,0.0,0.0,0.0,0.0,0.0,0.0,0.0,0.0,0.0,0.0,0.0,0.0,0.0,0.0,0.0,0.0,0.0,0.0,0.0,0.0,0.0,0.0,0.0,0.0,0.0,0.0,0.0,0.0,0.0,0.0,0.0,0.0,0.0,0.0,0.0,0.0,0.0,0.0,0.0,0.0,0.0,0.0,0.0,0.0,0.0,0.0,0.0,0.0,0.0,0.0,0.0,0.0,0.0,0.0,0.0,0.0,0.0,0.0,0.0,0.0,0.0,0.0,0.0,0.0,0.0,0.0,0.0,0.0,0.0,0.0,0.0,0.0,0.0,0.0,0.0,0.0,0.0,0.0,0.0,0.0,0.0,0.0,0.0,0.0,0.0,0.0,0.0,0.0,0.0,0.0,0.0,0.0,0.0,0.0,0.0,0.0,0.0,0.0,0.0,0.0,0.0,0.0,0.0,0.0,0.0,0.0,0.0,0.0,0.0,0.0,0.0,0.0,0.0,0.0,0.0,0.0,0.0,0.0,0.0,0.0,0.0,0.0,0.0,0.0,0.0,0.0,0.0,0.0,0.0,0.0,0.0,0.0,0.0,0.0,0.0,0.0,0.0,0.0,0.0,0.0,0.0,0.0,0.0,0.0,0.0,0.0,0.0,0.0,0.0,0.0,0.0,0.0,0.0,0.0,0.0,0.0,0.0,0.0,0.0,0.0,0.0,0.0,0.0,0.0,0.0,0.0,0.0,0.0,0.0,0.0,0.0,0.0,0.0,0.0,0.0,0.0,0.0,0.0,0.0,0.0,0.0,0.0,0.0,0.0,0.0,0.0,0.0,0.0,0.0,0.0,0.0,0.0,0.0,0.0,0.0,0.0,0.0,0.0,0.0,0.0,0.0,0.0,0.0,0.0,0.0,0.0,0.0,0.0,0.0,0.0,0.0,0.0,0.0,0.0,0.0,0.0,0.0,0.0,0.0,0.0,0.0,0.0,0.0,0.0,0.0,0.0,0.0,0.0,0.0,0.0,0.0,0.0,0.0,0.0,0.0,0.0,0.0,0.0,0.0,0.0,0.0,0.0,0.0,0.0,0.0,0.0,0.0,0.0,0.0,0.0,0.0,0.0,0.0,0.0,0.0,0.0,0.0,0.0,0.0,0.0,0.0,0.0,0.0,0.0,0.0,0.0,0.0,0.0,0.0,0.0,0.0,0.0,0.0,0.0,0.0,0.0,0.0,0.0,0.0,0.0,0.0,0.0,0.0,0.0,0.0,0.0,0.0,0.0,0.0,0.0,0.0,0.0,0.0,0.0,0.0,0.0,0.0,0.0,0.0,0.0,0.0,0.0,0.0,0.0,0.0,0.0,0.0,0.0,0.0,0.0,0.0,0.0,0.0,0.0,0.0,0.0,0.0,0.0,0.0,-1.6754,0.0,0.0,0.0,0.0,0.0,0.0,0.0,0.0,0.0,0.0,0.0,0.0,0.0,0.0,0.0,0.0,0.0,0.0,0.0,0.0,0.0,0.0,0.0,0.0,0.0,0.0,0.0,0.0,0.0,0.0,0.0,0.0,0.0,0.0,0.0,0.0,0.0,0.0,0.0,0.0,0.0,0.0,0.0,0.0,0.0,0.0,0.0,0.0,0.0,0.0,0.0,0.0,0.0,0.0,0.0,0.0,0.0,0.0,0.0,0.0,0.0,0.0,0.0,0.0,0.0,0.0,0.0,0.0,0.0,0.0,0.0,0.0,0.0,0.0,0.0,0.0,0.0,0.0,0.0,0.0,0.0,0.0,0.0,0.0,0.0,0.0,0.0,0.0,0.0,0.0,0.0,0.0,0.0,0.0,0.0,0.0,0.0,0.0,0.0,0.0,0.0,0.0,0.0,0.0,0.0,0.0,0.0,0.0,0.0,0.0,-1.6406,-1.6667,-1.7341,-1.7584,-1.7406,0.0,0.0,0.0,0.0,0.0,0.0,0.0,0.0,0.0,0.0,0.0,0.0,0.0,0.0,0.0,0.0,0.0,0.0,0.0,0.0,0.0,0.0,0.0,0.0,0.0,0.0,0.0,0.0,0.0,0.0,0.0,0.0,0.0,0.0,0.0,0.0,0.0,0.0,0.0,0.0,0.0,0.0,0.0,0.0,0.0,0.0,0.0,0.0,0.0,0.0,0.0,0.0,0.0,0.0,0.0,0.0,0.0,0.0,0.0,0.0,0.0,0.0,0.0,0.0,0.0,0.0,0.0,0.0,0.0,0.0,0.0,0.0,0.0,0.0,0.0,0.0,0.0,0.0,0.0,0.0,0.0,0.0,0.0,0.0,0.0,0.0,0.0,0.0,0.0,0.0,0.0,0.0,0.0,0.0,0.0,0.0,0.0,0.0,0.0,0.0,0.0,0.0,0.0,0.0,0.0,0.0,0.0,0.0,0.0,0.0,0.0,0.0,-1.7982,-1.8103,-1.7926,0.0,0.0,0.0,0.0,0.0,0.0,0.0,0.0,0.0,0.0,0.0,0.0,0.0,0.0,0.0,0.0,0.0,0.0,0.0,0.0,0.0,0.0,0.0,0.0,0.0,0.0,0.0,0.0,0.0,0.0,0.0,0.0,0.0,0.0,0.0,0.0,0.0,0.0,0.0,0.0,0.0,0.0,0.0,0.0,0.0,0.0,0.0,0.0,0.0,0.0,0.0,0.0,0.0,0.0,0.0,0.0,0.0,0.0,0.0,0.0,0.0,0.0,0.0,0.0,0.0,0.0,0.0,0.0,0.0,0.0,0.0,0.0,0.0,0.0,0.0,0.0,0.0,0.0,0.0,0.0,0.0,0.0,0.0,0.0,0.0,0.0,0.0,0.0,0.0,0.0,0.0,0.0,0.0,0.0,0.0,0.0,0.0,0.0,0.0,0.0,0.0,0.0,0.0,0.0,0.0,0.0,0.0,0.0,0.0,0.0,-1.7984,-1.8145,-1.8498,0.0,-1.8583,0.0,0.0,0.0,0.0,0.0,0.0,0.0,0.0,0.0,0.0,0.0,0.0,0.0,0.0,0.0,0.0,0.0,0.0,0.0,0.0,0.0,0.0,0.0,0.0,0.0,0.0,0.0,0.0,0.0,0.0,0.0,0.0,0.0,0.0,0.0,0.0,0.0,0.0,0.0,0.0,0.0,0.0,0.0,0.0,0.0,0.0,0.0,0.0,0.0,0.0,0.0,0.0,0.0,0.0,0.0,0.0,0.0,0.0,0.0,0.0,0.0,0.0,0.0,0.0,0.0,0.0,0.0,0.0,0.0,0.0,0.0,0.0,0.0,0.0,0.0,0.0,0.0,0.0,0.0,0.0,0.0,0.0,0.0,0.0,0.0,0.0,0.0,0.0,0.0,0.0,0.0,0.0,0.0,0.0,0.0,0.0,0.0,0.0,0.0,0.0,0.0,0.0,0.0,0.0,0.0,0.0,0.0,0.0,0.0,0.0,-1.8412,-1.8674,-1.8844,-1.8969,0.0,0.0,0.0,0.0,0.0,0.0,0.0,0.0,0.0,0.0,0.0,0.0,0.0,0.0,0.0,0.0,0.0,0.0,0.0,0.0,0.0,0.0,0.0,0.0,0.0,0.0,0.0,0.0,0.0,0.0,0.0,0.0,0.0,0.0,0.0,0.0,0.0,0.0,0.0,0.0,0.0,0.0,0.0,0.0,0.0,0.0,0.0,0.0,0.0,0.0,0.0,0.0,0.0,0.0,0.0,0.0,0.0,0.0,0.0,0.0,0.0,0.0,0.0,0.0,0.0,0.0,0.0,0.0,0.0,0.0,0.0,0.0,0.0,0.0,0.0,0.0,0.0,0.0,0.0,0.0,0.0,0.0,0.0,0.0,0.0,0.0,0.0,0.0,0.0,0.0,0.0,0.0,0.0,0.0,0.0,0.0,0.0,0.0,0.0,0.0,0.0,0.0,0.0,0.0,0.0,0.0,0.0,0.0,0.0,0.0,-1.8247,-1.8667,-1.9121,-1.9256,-1.9396,-1.9581,0.0,0.0,0.0,0.0,0.0,0.0,0.0,0.0,0.0,0.0,0.0,0.0,0.0,0.0,0.0,0.0,0.0,0.0,0.0,0.0,0.0,0.0,0.0,0.0,0.0,0.0,0.0,0.0,0.0,0.0,0.0,0.0,0.0,0.0,0.0,0.0,0.0,0.0,0.0,0.0,0.0,0.0,0.0,0.0,0.0,0.0,0.0,0.0,0.0,0.0,0.0,0.0,0.0,0.0,0.0,0.0,0.0,0.0,0.0,0.0,0.0,0.0,0.0,0.0,0.0,0.0,0.0,0.0,0.0,0.0,0.0,0.0,0.0,0.0,0.0,0.0,0.0,0.0,0.0,0.0,0.0,0.0,0.0,0.0,0.0,0.0,0.0,0.0,0.0,0.0,0.0,0.0,0.0,0.0,0.0,0.0,0.0,0.0,0.0,0.0,0.0,0.0,0.0,0.0,0.0,0.0,0.0,0.0,-1.7897,-1.8356,-1.8881,-1.9577,-1.9811,-1.9952,0.0,0.0,0.0,0.0,0.0,0.0,0.0,0.0,0.0,0.0,0.0,0.0,0.0,0.0,0.0,0.0,0.0,0.0,0.0,0.0,0.0,0.0,0.0,0.0,0.0,0.0,0.0,0.0,0.0,0.0,0.0,0.0,0.0,0.0,0.0,0.0,0.0,0.0,0.0,0.0,0.0,0.0,0.0,0.0,0.0,0.0,0.0,0.0,0.0,0.0,0.0,0.0,0.0,0.0,0.0,0.0,0.0,0.0,0.0,0.0,0.0,0.0,0.0,0.0,0.0,0.0,0.0,0.0,0.0,0.0,0.0,0.0,0.0,0.0,0.0,0.0,0.0,0.0,0.0,0.0,0.0,0.0,0.0,0.0,0.0,0.0,0.0,0.0,0.0,0.0,0.0,0.0,0.0,0.0,0.0,0.0,0.0,0.0,0.0,0.0,0.0,0.0,0.0,0.0,0.0,0.0,0.0,0.0,0.0,-1.803,-1.8975,-1.9709,-2.0151,-2.0376,-2.0292,0.0,0.0,0.0,0.0,0.0,0.0,0.0,0.0,0.0,0.0,0.0,0.0,0.0,0.0,0.0,0.0,0.0,0.0,0.0,0.0,0.0,0.0,0.0,0.0,0.0,0.0,0.0,0.0,0.0,0.0,0.0,0.0,0.0,0.0,0.0,0.0,0.0,0.0,0.0,0.0,0.0,0.0,0.0,0.0,0.0,0.0,0.0,0.0,0.0,0.0,0.0,0.0,0.0,0.0,0.0,0.0,0.0,0.0,0.0,0.0,0.0,0.0,0.0,0.0,0.0,0.0,0.0,0.0,0.0,0.0,0.0,0.0,0.0,0.0,0.0,0.0,0.0,0.0,0.0,0.0,0.0,0.0,0.0,0.0,0.0,0.0,0.0,0.0,0.0,0.0,0.0,0.0,0.0,0.0,0.0,0.0,0.0,0.0,0.0,0.0,0.0,0.0,0.0,0.0,0.0,0.0,0.0,0.0,0.0,-1.8911,0.0,-2.0533,-2.0832,-2.086,-2.0701,0.0,0.0,0.0,0.0,0.0,0.0,0.0,0.0,0.0,0.0,0.0,0.0,0.0,0.0,0.0,0.0,0.0,0.0,0.0,0.0,0.0,0.0,0.0,0.0,0.0,0.0,0.0,0.0,0.0,0.0,0.0,0.0,0.0,0.0,0.0,0.0,0.0,0.0,0.0,0.0,0.0,0.0,0.0,0.0,0.0,0.0,0.0,0.0,0.0,0.0,0.0,0.0,0.0,0.0,0.0,0.0,0.0,0.0,0.0,0.0,0.0,0.0,0.0,0.0,0.0,0.0,0.0,0.0,0.0,0.0,0.0,0.0,0.0,0.0,0.0,0.0,0.0,0.0,0.0,0.0,0.0,0.0,0.0,0.0,0.0,0.0,0.0,0.0,0.0,0.0,0.0,0.0,0.0,0.0,0.0,0.0,0.0,0.0,0.0,0.0,0.0,0.0,0.0,0.0,0.0,0.0,0.0,0.0,-1.9229,-2.055,-2.1067,-2.1431,-2.1506,-2.1422,-2.1142,0.0,0.0,0.0,0.0,0.0,0.0,0.0,0.0,0.0,0.0,0.0,0.0,0.0,0.0,0.0,0.0,0.0,0.0,0.0,0.0,0.0,0.0,0.0,0.0,0.0,0.0,0.0,0.0,0.0,0.0,0.0,0.0,0.0,0.0,0.0,0.0,0.0,0.0,0.0,0.0,0.0,0.0,0.0,0.0,0.0,0.0,0.0,0.0,0.0,0.0,0.0,0.0,0.0,0.0,0.0,0.0,0.0,0.0,0.0,0.0,0.0,0.0,0.0,0.0,0.0,0.0,0.0,0.0,0.0,0.0,0.0,0.0,0.0,0.0,0.0,0.0,0.0,0.0,0.0,0.0,0.0,0.0,0.0,0.0,0.0,0.0,0.0,0.0,0.0,0.0,0.0,0.0,0.0,0.0,0.0,0.0,0.0,0.0,0.0,0.0,0.0,0.0,0.0,0.0,0.0,0.0,0.0,0.0,0.0,-2.1897,-2.2387,-2.2682,-2.2812,-2.3007,-2.2407,0.0,0.0,0.0,0.0,0.0,0.0,0.0,0.0,0.0,0.0,0.0,0.0,0.0,0.0,0.0,0.0,0.0,0.0,0.0,0.0,0.0,0.0,0.0,0.0,0.0,0.0,0.0,0.0,0.0,0.0,0.0,0.0,0.0,0.0,0.0,0.0,0.0,0.0,0.0,0.0,0.0,0.0,0.0,0.0,0.0,0.0,0.0,0.0,0.0,0.0,0.0,0.0,0.0,0.0,0.0,0.0,0.0,0.0,0.0,0.0,0.0,0.0,0.0,0.0,0.0,0.0,0.0,0.0,0.0,0.0,0.0,0.0,0.0,0.0,0.0,0.0,0.0,0.0,0.0,0.0,0.0,0.0,0.0,0.0,0.0,0.0,0.0,0.0,0.0,0.0,0.0,0.0,0.0,0.0,0.0,0.0,0.0,0.0,0.0,0.0,0.0,0.0,0.0,0.0,0.0,0.0,0.0,0.0,0.0,-2.3399,-2.3742,-2.395,-2.4024,-2.3991,-2.3373,-2.212,0.0,0.0,0.0,0.0,0.0,0.0,0.0,0.0,0.0,0.0,0.0,0.0,0.0,0.0,0.0,0.0,0.0,0.0,0.0,0.0,0.0,0.0,0.0,0.0,0.0,0.0,0.0,0.0,0.0,0.0,0.0,0.0,0.0,0.0,0.0,0.0,0.0,0.0,0.0,0.0,0.0,0.0,0.0,0.0,0.0,0.0,0.0,0.0,0.0,0.0,0.0,0.0,0.0,0.0,0.0,0.0,0.0,0.0,0.0,0.0,0.0,0.0,0.0,0.0,0.0,0.0,0.0,0.0,0.0,0.0,0.0,0.0,0.0,0.0,0.0,0.0,0.0,0.0,0.0,0.0,0.0,0.0,0.0,0.0,0.0,0.0,0.0,0.0,0.0,0.0,0.0,0.0,0.0,0.0,0.0,0.0,0.0,0.0,0.0,0.0,0.0,0.0,0.0,0.0,0.0,0.0,0.0,0.0,-2.5087,-2.5146,-2.5192,-2.5141,-2.4589,-2.4086,0.0,0.0,0.0,0.0,0.0,0.0,0.0,0.0,0.0,0.0,0.0,0.0,0.0,0.0,0.0,0.0,0.0,0.0,0.0,0.0,0.0,0.0,0.0,0.0,0.0,0.0,0.0,0.0,0.0,0.0,0.0,0.0,0.0,0.0,0.0,0.0,0.0,0.0,0.0,0.0,0.0,0.0,0.0,0.0,0.0,0.0,0.0,0.0,0.0,0.0,0.0,0.0,0.0,0.0,0.0,0.0,0.0,0.0,0.0,0.0,0.0,0.0,0.0,0.0,0.0,0.0,0.0,0.0,0.0,0.0,0.0,0.0,0.0,0.0,0.0,0.0,0.0,0.0,0.0,0.0,0.0,0.0,0.0,0.0,0.0,0.0,0.0,0.0,0.0,0.0,0.0,0.0,0.0,0.0,0.0,0.0,0.0,0.0,0.0,0.0,0.0,0.0,0.0,0.0,0.0,0.0,0.0,0.0,0.0,-2.5319,-2.6089,-2.6304,-2.587,-2.596,-2.5406,0.0,0.0,0.0,0.0,0.0,0.0,0.0,0.0,0.0,0.0,0.0,0.0,0.0,0.0,0.0,0.0,0.0,0.0,0.0,0.0,0.0,0.0,0.0,0.0,0.0,0.0,0.0,0.0,0.0,0.0,0.0,0.0,0.0,0.0,0.0,0.0,0.0,0.0,0.0,0.0,0.0,0.0,0.0,0.0,0.0,0.0,0.0,0.0,0.0,0.0,0.0,0.0,0.0,0.0,0.0,0.0,0.0,0.0,0.0,0.0,0.0,0.0,0.0,0.0,0.0,0.0,0.0,0.0,0.0,0.0,0.0,0.0,0.0,0.0,0.0,0.0,0.0,0.0,0.0,0.0,0.0,0.0,0.0,0.0,0.0,0.0,0.0,0.0,0.0,0.0,0.0,0.0,0.0,0.0,0.0,0.0,0.0,0.0,0.0,0.0,0.0,0.0,0.0,0.0,0.0,0.0,0.0,0.0,-2.4902,-2.5692,-2.6574,-2.679,-2.6365,-2.6596,-2.6099,0.0,0.0,0.0,0.0,0.0,0.0,0.0,0.0,0.0,0.0,0.0,0.0,0.0,0.0,0.0,0.0,0.0,0.0,0.0,0.0,0.0,0.0,0.0,0.0,0.0,0.0,0.0,0.0,0.0,0.0,0.0,0.0,0.0,0.0,0.0,0.0,0.0,0.0,0.0,0.0,0.0,0.0,0.0,0.0,0.0,0.0,0.0,0.0,0.0,0.0,0.0,0.0,0.0,0.0,0.0,0.0,0.0,0.0,0.0,0.0,0.0,0.0,0.0,0.0,0.0,0.0,0.0,0.0,0.0,0.0,0.0,0.0,0.0,0.0,0.0,0.0,0.0,0.0,0.0,0.0,0.0,0.0,0.0,0.0,0.0,0.0,0.0,0.0,0.0,0.0,0.0,0.0,0.0,0.0,0.0,0.0,0.0,0.0,0.0,0.0,0.0,0.0,0.0,0.0,0.0,0.0,0.0,0.0,-2.5313,-2.6188,-2.6752,-2.6863,-2.6701,-2.6764,-2.6452,0.0,0.0,0.0,0.0,0.0,0.0,0.0,0.0,0.0,0.0,0.0,0.0,0.0,0.0,0.0,0.0,0.0,0.0,0.0,0.0,0.0,0.0,0.0,0.0,0.0,0.0,0.0,0.0,0.0,0.0,0.0,0.0,0.0,0.0,0.0,0.0,0.0,0.0,0.0,0.0,0.0,0.0,0.0,0.0,0.0,0.0,0.0,0.0,0.0,0.0,0.0,0.0,0.0,0.0,0.0,0.0,0.0,0.0,0.0,0.0,0.0,0.0,0.0,0.0,0.0,0.0,0.0,0.0,0.0,0.0,0.0,0.0,0.0,0.0,0.0,0.0,0.0,0.0,0.0,0.0,0.0,0.0,0.0,0.0,0.0,0.0,0.0,0.0,0.0,0.0,0.0,0.0,0.0,0.0,0.0,0.0,0.0,0.0,0.0,0.0,0.0,0.0,0.0,0.0,0.0,0.0,0.0,0.0,-2.5506,-2.6383,-2.6807,-2.6863,-2.6714,-2.7139,-2.6792,0.0,0.0,0.0,0.0,0.0,0.0,0.0,0.0,0.0,0.0,0.0,0.0,0.0,0.0,0.0,0.0,0.0,0.0,0.0,0.0,0.0,0.0,0.0,0.0,0.0,0.0,0.0,0.0,0.0,0.0,0.0,0.0,0.0,0.0,0.0,0.0,0.0,0.0,0.0,0.0,0.0,0.0,0.0,0.0,0.0,0.0,0.0,0.0,-1.7962,0.0,0.0,0.0,0.0,0.0,0.0,0.0,0.0,0.0,0.0,0.0,0.0,0.0,0.0,0.0,0.0,0.0,0.0,0.0,0.0,0.0,0.0,0.0,0.0,0.0,0.0,0.0,0.0,0.0,0.0,0.0,0.0,0.0,0.0,0.0,0.0,0.0,0.0,0.0,0.0,0.0,0.0,0.0,0.0,0.0,0.0,0.0,0.0,0.0,0.0,0.0,0.0,0.0,0.0,0.0,0.0,0.0,0.0,0.0,-2.5903,-2.6521,-2.6726,-2.6794,-2.6645,-2.6998,-2.6659,0.0,0.0,0.0,0.0,0.0,0.0,0.0,0.0,0.0,0.0,0.0,0.0,0.0,0.0,0.0,0.0,0.0,0.0,0.0,0.0,0.0,0.0,0.0,0.0,0.0,0.0,0.0,0.0,0.0,0.0,0.0,0.0,0.0,0.0,0.0,0.0,0.0,0.0,0.0,0.0,0.0,0.0,0.0,0.0,0.0,0.0,0.0,0.0,0.0,0.0,0.0,0.0,0.0,0.0,0.0,0.0,0.0,0.0,0.0,0.0,0.0,0.0,0.0,0.0,0.0,0.0,0.0,0.0,0.0,0.0,0.0,0.0,0.0,0.0,0.0,0.0,0.0,0.0,0.0,0.0,0.0,0.0,0.0,0.0,0.0,0.0,0.0,0.0,0.0,0.0,0.0,0.0,0.0,0.0,0.0,0.0,0.0,0.0,0.0,0.0,0.0,0.0,0.0,0.0,0.0,0.0,0.0,-2.5506,-2.6258,-2.6465,-2.6658,-2.6658,-2.6521,-2.6807,-2.6419,-2.5218,0.0,0.0,0.0,0.0,0.0,0.0,0.0,0.0,0.0,0.0,0.0,0.0,0.0,0.0,0.0,0.0,0.0,0.0,0.0,0.0,0.0,0.0,0.0,0.0,0.0,0.0,0.0,0.0,0.0,0.0,0.0,0.0,0.0,0.0,0.0,0.0,0.0,0.0,-1.368,-1.4822,0.0,0.0,0.0,0.0,0.0,0.0,0.0,0.0,-2.0206,0.0,0.0,0.0,0.0,0.0,0.0,0.0,0.0,0.0,0.0,0.0,0.0,0.0,0.0,0.0,0.0,0.0,0.0,0.0,0.0,0.0,0.0,0.0,0.0,0.0,0.0,0.0,0.0,0.0,0.0,0.0,0.0,0.0,0.0,0.0,0.0,0.0,0.0,0.0,0.0,0.0,0.0,0.0,0.0,0.0,0.0,0.0,0.0,0.0,0.0,0.0,0.0,0.0,0.0,0.0,0.0,-2.4132,-2.5506,-2.627,-2.6465,-2.6658,-2.6658,-2.6533,-2.6658,-2.6139,-2.4843,0.0,0.0,0.0,0.0,0.0,0.0,0.0,0.0,0.0,0.0,0.0,0.0,0.0,0.0,0.0,0.0,0.0,0.0,0.0,0.0,0.0,0.0,0.0,0.0,0.0,0.0,0.0,0.0,0.0,0.0,0.0,0.0,0.0,0.0,0.0,0.0,0.0,0.0,0.0,-1.58,-1.6564,0.0,0.0,0.0,0.0,0.0,0.0,0.0,0.0,-2.1809,0.0,0.0,0.0,0.0,0.0,0.0,0.0,0.0,0.0,0.0,0.0,0.0,0.0,0.0,0.0,0.0,0.0,0.0,0.0,0.0,0.0,0.0,0.0,0.0,0.0,0.0,0.0,0.0,0.0,0.0,0.0,0.0,0.0,0.0,0.0,0.0,0.0,0.0,0.0,0.0,0.0,0.0,0.0,0.0,0.0,0.0,0.0,0.0,0.0,0.0,0.0,0.0,0.0,0.0,0.0,-2.4271,-2.5506,-2.627,-2.6452,-2.6452,-2.6396,-2.6339,-2.6314,-2.5735,0.0,0.0,0.0,0.0,0.0,0.0,0.0,0.0,0.0,0.0,0.0,0.0,0.0,0.0,0.0,0.0,0.0,0.0,0.0,0.0,0.0,0.0,0.0,0.0,0.0,0.0,0.0,0.0,0.0,0.0,0.0,0.0,0.0,0.0,0.0,0.0,0.0,0.0,0.0,0.0,-1.6478,-1.7287,-1.8458,0.0,0.0,0.0,0.0,0.0,0.0,-2.2441,-2.2301,0.0,0.0,0.0,0.0,0.0,0.0,0.0,0.0,0.0,0.0,0.0,0.0,0.0,0.0,0.0,0.0,0.0,0.0,0.0,0.0,0.0,0.0,0.0,0.0,0.0,0.0,0.0,0.0,0.0,0.0,0.0,0.0,0.0,0.0,0.0,0.0,0.0,0.0,0.0,0.0,0.0,0.0,0.0,0.0,0.0,0.0,0.0,0.0,0.0,0.0,0.0,0.0,0.0,0.0,0.0,-2.4325,-2.5506,-2.6201,-2.6396,-2.627,-2.6131,-2.6131,-2.598,-2.5326,0.0,0.0,0.0,0.0,0.0,0.0,0.0,0.0,0.0,0.0,0.0,0.0,0.0,0.0,0.0,0.0,0.0,0.0,0.0,0.0,0.0,0.0,0.0,0.0,0.0,0.0,0.0,0.0,0.0,0.0,0.0,0.0,0.0,0.0,0.0,0.0,0.0,0.0,0.0,0.0,0.0,-1.8095,-1.9457,-2.007,0.0,0.0,0.0,0.0,-2.2739,-2.2762,0.0,0.0,0.0,0.0,0.0,0.0,0.0,0.0,0.0,0.0,0.0,0.0,0.0,0.0,0.0,0.0,0.0,0.0,0.0,0.0,0.0,0.0,0.0,0.0,0.0,0.0,0.0,0.0,0.0,0.0,0.0,0.0,0.0,0.0,0.0,0.0,0.0,0.0,0.0,0.0,0.0,0.0,0.0,0.0,0.0,0.0,0.0,0.0,0.0,0.0,0.0,0.0,0.0,0.0,0.0,0.0,-2.4337,-2.5357,-2.605,-2.6201,-2.605,-2.591,-2.5898,-2.5898,-2.5269,0.0,0.0,0.0,0.0,0.0,0.0,0.0,0.0,0.0,0.0,0.0,0.0,0.0,0.0,0.0,0.0,0.0,0.0,0.0,0.0,0.0,0.0,0.0,0.0,0.0,0.0,0.0,0.0,0.0,0.0,0.0,0.0,0.0,0.0,0.0,0.0,0.0,0.0,0.0,0.0,0.0,-1.9217,-2.0283,-2.1344,-2.2227,0.0,0.0,0.0,-2.385,-2.3602,0.0,0.0,0.0,0.0,0.0,0.0,0.0,0.0,0.0,0.0,0.0,0.0,0.0,0.0,0.0,0.0,0.0,0.0,0.0,0.0,0.0,0.0,0.0,0.0,0.0,0.0,0.0,0.0,0.0,0.0,0.0,0.0,0.0,0.0,0.0,0.0,0.0,0.0,0.0,0.0,0.0,0.0,0.0,0.0,0.0,0.0,0.0,0.0,0.0,0.0,0.0,0.0,0.0,0.0,0.0,-2.3406,-2.4103,-2.4915,-2.5522,-2.5968,-2.5828,-2.577,-2.5746,-2.5548,-2.4912,0.0,0.0,0.0,0.0,0.0,0.0,0.0,0.0,0.0,0.0,0.0,0.0,0.0,0.0,0.0,0.0,0.0,0.0,0.0,0.0,0.0,0.0,0.0,0.0,0.0,0.0,0.0,0.0,0.0,0.0,0.0,0.0,0.0,0.0,0.0,0.0,0.0,0.0,0.0,0.0,0.0,0.0,-2.1325,-2.2102,0.0,0.0,0.0,-2.3752,-2.4019,0.0,0.0,0.0,0.0,0.0,0.0,0.0,0.0,0.0,0.0,0.0,0.0,0.0,0.0,0.0,0.0,0.0,0.0,0.0,0.0,0.0,0.0,0.0,0.0,0.0,0.0,0.0,0.0,0.0,0.0,0.0,0.0,0.0,0.0,0.0,0.0,0.0,0.0,0.0,0.0,0.0,0.0,0.0,0.0,0.0,0.0,0.0,0.0,0.0,0.0,0.0,0.0,0.0,0.0,0.0,0.0,0.0,-2.3947,-2.4401,-2.5002,-2.5652,-2.5477,-2.5407,-2.5407,-2.5123,0.0,0.0,0.0,0.0,0.0,0.0,0.0,0.0,0.0,0.0,0.0,0.0,0.0,0.0,0.0,0.0,0.0,0.0,0.0,0.0,0.0,0.0,0.0,0.0,0.0,0.0,0.0,-1.3511,0.0,0.0,0.0,0.0,0.0,0.0,0.0,0.0,0.0,0.0,0.0,0.0,0.0,0.0,-2.0398,-2.1949,-2.2708,-2.3289,0.0,0.0,-2.3855,-2.3935,-2.3495,-2.2997,0.0,0.0,0.0,0.0,0.0,0.0,0.0,0.0,0.0,0.0,0.0,0.0,0.0,0.0,0.0,0.0,0.0,0.0,0.0,0.0,0.0,0.0,0.0,0.0,0.0,0.0,0.0,0.0,0.0,0.0,0.0,0.0,0.0,0.0,0.0,0.0,0.0,0.0,0.0,0.0,0.0,0.0,0.0,0.0,0.0,0.0,0.0,0.0,0.0,0.0,0.0,0.0,0.0,0.0,0.0,-2.3725,-2.413,-2.4587,-2.5063,-2.4909,-2.4861,-2.4861,-2.4861,-2.4155,0.0,0.0,0.0,0.0,0.0,0.0,0.0,0.0,0.0,0.0,0.0,0.0,0.0,0.0,0.0,0.0,0.0,0.0,0.0,0.0,0.0,0.0,0.0,0.0,0.0,0.0,0.0,0.0,0.0,0.0,0.0,0.0,0.0,0.0,0.0,0.0,0.0,0.0,0.0,0.0,0.0,-2.1118,-2.2035,-2.3047,-2.3806,0.0,0.0,-2.3903,-2.3727,-2.3275,-2.2877,-2.2498,0.0,0.0,0.0,0.0,0.0,0.0,0.0,0.0,0.0,0.0,0.0,0.0,0.0,0.0,0.0,0.0,0.0,0.0,0.0,0.0,0.0,0.0,0.0,0.0,0.0,0.0,0.0,0.0,0.0,0.0,0.0,0.0,0.0,0.0,0.0,0.0,0.0,0.0,0.0,0.0,0.0,0.0,0.0,0.0,0.0,0.0,0.0,0.0,0.0,0.0,0.0,0.0,0.0,-2.2643,-2.3404,-2.3845,-2.4377,-2.4814,-2.4778,-2.4801,-2.4801,-2.4271,-2.3537,0.0,0.0,0.0,0.0,0.0,0.0,0.0,0.0,0.0,0.0,0.0,0.0,0.0,0.0,0.0,0.0,0.0,0.0,0.0,0.0,0.0,0.0,0.0,0.0,0.0,0.0,0.0,0.0,-1.3164,-1.3202,-1.348,0.0,0.0,0.0,0.0,0.0,0.0,0.0,0.0,0.0,0.0,-2.1644,-2.2577,-2.3257,0.0,0.0,-2.4165,-2.4165,-2.4079,-2.3502,-2.2909,-2.2659,-2.2115,0.0,0.0,0.0,0.0,0.0,0.0,0.0,0.0,0.0,0.0,0.0,0.0,0.0,0.0,0.0,0.0,0.0,0.0,0.0,0.0,0.0,0.0,0.0,0.0,0.0,0.0,0.0,0.0,0.0,0.0,0.0,0.0,0.0,0.0,0.0,0.0,0.0,0.0,0.0,0.0,0.0,0.0,0.0,0.0,0.0,0.0,0.0,0.0,0.0,0.0,0.0,0.0,-2.2445,-2.308,-2.3651,-2.4108,-2.4634,-2.4646,-2.4574,-2.4562,-2.3778,-2.3039,0.0,0.0,0.0,0.0,0.0,0.0,0.0,0.0,0.0,0.0,0.0,0.0,0.0,0.0,0.0,0.0,0.0,0.0,0.0,0.0,0.0,0.0,0.0,0.0,0.0,0.0,0.0,0.0,-1.3087,-1.3271,-1.3721,0.0,0.0,0.0,0.0,0.0,0.0,0.0,0.0,0.0,0.0,-2.1752,-2.2834,-2.3315,-2.3739,-2.4173,-2.4228,-2.4169,-2.3951,-2.3242,-2.2649,-2.2437,0.0,0.0,0.0,0.0,0.0,0.0,0.0,0.0,0.0,0.0,0.0,0.0,0.0,0.0,0.0,0.0,0.0,0.0,0.0,0.0,0.0,0.0,0.0,0.0,0.0,0.0,0.0,0.0,0.0,0.0,0.0,0.0,0.0,0.0,0.0,0.0,0.0,0.0,0.0,0.0,0.0,0.0,0.0,0.0,0.0,0.0,0.0,0.0,0.0,0.0,0.0,0.0,0.0,0.0,-2.2741,-2.3306,-2.3896,-2.4166,-2.4189,-2.4116,-2.3959,-2.347,-2.2689,-2.164,0.0,0.0,0.0,0.0,0.0,0.0,0.0,0.0,0.0,0.0,0.0,0.0,0.0,0.0,0.0,0.0,0.0,0.0,0.0,0.0,0.0,0.0,0.0,0.0,0.0,0.0,-1.2997,-1.3184,-1.3542,0.0,0.0,0.0,0.0,0.0,0.0,0.0,0.0,0.0,0.0,-2.0765,-2.1586,-2.2762,-2.313,-2.3466,-2.3886,-2.3966,-2.3889,-2.3223,-2.2625,-2.2034,0.0,0.0,0.0,0.0,0.0,0.0,0.0,0.0,0.0,0.0,0.0,0.0,0.0,0.0,0.0,0.0,0.0,0.0,0.0,0.0,0.0,0.0,0.0,0.0,0.0,0.0,0.0,0.0,0.0,0.0,0.0,0.0,0.0,0.0,0.0,0.0,0.0,0.0,0.0,0.0,-2.161,-2.1152,0.0,0.0,0.0,0.0,0.0,0.0,0.0,0.0,0.0,0.0,0.0,0.0,-2.1653,-2.1845,-2.2411,-2.291,-2.3304,-2.3327,-2.3485,-2.3655,-2.2666,-2.1439,-1.9959,0.0,0.0,0.0,0.0,0.0,0.0,0.0,0.0,0.0,0.0,0.0,0.0,0.0,0.0,0.0,0.0,0.0,0.0,0.0,0.0,0.0,0.0,0.0,0.0,0.0,-1.2841,0.0,0.0,0.0,0.0,0.0,0.0,0.0,0.0,0.0,0.0,0.0,-1.9463,-2.0241,-2.0962,-2.1661,-2.2369,-2.2691,-2.3087,0.0,0.0,0.0,0.0,0.0,0.0,0.0,0.0,0.0,0.0,0.0,0.0,0.0,0.0,-1.8229,-1.8208,-1.804,-1.7874,-1.7692,0.0,0.0,0.0,0.0,0.0,0.0,0.0,0.0,0.0,0.0,0.0,0.0,0.0,0.0,0.0,0.0,-2.3013,0.0,0.0,0.0,0.0,0.0,0.0,0.0,0.0,-2.2083,-2.2004,-2.1981,-2.1419,-2.1117,0.0,-2.0608,-2.0399,0.0,0.0,0.0,0.0,0.0,0.0,0.0,0.0,-2.1319,-2.1341,-2.2058,-2.261,-2.2913,-2.3021,-2.3195,-2.335,-2.2012,-2.0562,-1.9162,-1.8875,-1.8137,0.0,0.0,0.0,0.0,0.0,0.0,0.0,0.0,0.0,0.0,0.0,0.0,0.0,0.0,0.0,0.0,0.0,0.0,0.0,0.0,0.0,0.0,0.0,-1.306,0.0,0.0,0.0,0.0,0.0,0.0,0.0,0.0,0.0,-1.7708,-1.8718,-1.9661,-2.0138,-2.072,-2.1404,-2.2014,0.0,0.0,0.0,0.0,0.0,0.0,0.0,-2.136,-2.0903,-2.0338,-1.9874,-1.9261,-1.8827,-1.855,-1.8542,0.0,0.0,-1.8142,-1.7966,-1.7788,-1.7699,-1.752,-1.7341,-1.7169,-1.7079,-1.7071,0.0,0.0,0.0,0.0,0.0,0.0,0.0,0.0,-2.2834,-2.2972,0.0,0.0,0.0,0.0,0.0,0.0,0.0,0.0,0.0,0.0,-2.2159,-2.1973,-2.1927,-2.1456,-2.1256,-2.1244,-2.099,-2.0786,-2.0669,-2.0281,0.0,0.0,0.0,0.0,0.0,0.0,-2.1174,-2.1197,-2.2224,-2.2797,-2.2831,-2.3083,-2.3095,-2.2914,-2.1466,-2.0205,-1.9127,-1.8674,-1.7939,-1.6841,-1.6602,0.0,0.0,0.0,0.0,0.0,0.0,0.0,0.0,0.0,0.0,0.0,0.0,0.0,0.0,0.0,0.0,0.0,0.0,0.0,0.0,-1.3402,0.0,0.0,0.0,0.0,0.0,0.0,0.0,0.0,0.0,0.0,-1.7311,-1.8529,-1.9516,-1.9803,0.0,0.0,0.0,0.0,-2.1844,-2.2383,-2.2232,-2.203,-2.203,-2.1328,-2.0678,-2.0305,0.0,0.0,-1.8597,-1.8272,-1.8087,-1.8087,-1.8094,-1.8087,-1.8071,-1.8041,-1.8048,-1.8056,-1.7948,-1.7885,-1.7412,-1.7174,-1.7088,-2.8541,0.0,0.0,0.0,0.0,-2.5226,-2.4885,-2.4567,-2.4261,-2.439,-2.498,-2.486,0.0,0.0,0.0,0.0,0.0,0.0,-2.3688,-2.3548,-2.3477,-2.322,-2.2858,-2.2136,-2.1763,-2.174,-2.1084,-2.0733,-2.0669,-2.0475,-2.027,-2.0085,0.0,0.0,0.0,0.0,-2.0413,-2.0457,-2.1094,-2.1567,-2.1778,-2.2165,-2.2024,-2.1403,-2.0862,-1.9947,-1.8714,-1.8472,-1.7945,-1.7067,-1.6555,0.0,0.0,0.0,0.0,0.0,0.0,0.0,0.0,0.0,0.0,0.0,0.0,0.0,0.0,0.0,0.0,0.0,0.0,0.0,-1.3402,-1.3759,-1.4032,0.0,0.0,0.0,0.0,0.0,0.0,0.0,0.0,0.0,-1.7492,-1.8459,-1.9257,0.0,0.0,-2.0862,-2.1337,-2.152,-2.1711,-2.1912,0.0,0.0,0.0,-2.0719,-2.0148,-1.9579,-1.89,-1.838,-1.8195,-1.7994,-1.7815,-1.7815,-1.7535,-1.7347,-1.7347,-1.7434,-1.752,-1.7512,-1.7239,-1.6958,-1.6864,-1.677,-1.677,-2.9849,-2.8475,-2.7464,-2.6684,-2.6094,-2.5886,-2.5581,-2.5264,-2.5028,-2.5194,-2.554,-2.5529,-2.5123,-2.4436,-2.4425,0.0,0.0,0.0,-2.4483,-2.4401,-2.4212,-2.3963,-2.3508,-2.287,-2.2492,-2.2336,-2.185,-2.1425,-2.1102,-2.0884,-2.0576,-2.0227,0.0,0.0,-2.0085,-2.0074,-2.0009,-2.0031,-2.0604,-2.101,-2.1161,-2.172,-2.1523,-2.0533,-2.0452,-1.9737,-1.8454,-1.8279,-1.7803,-1.7053,-1.6364,-1.575,0.0,0.0,0.0,0.0,0.0,0.0,0.0,0.0,0.0,0.0,0.0,-1.249,0.0,0.0,0.0,0.0,-1.3016,-1.3318,-1.3512,-1.4026,0.0,0.0,0.0,0.0,0.0,0.0,0.0,-1.6453,-1.7117,-1.7629,-1.7675,-1.8237,-1.8864,-1.9368,-1.9846,-2.0255,-2.0744,0.0,-2.1105,-2.1105,-2.0806,-2.0609,-2.0609,-2.0189,-1.966,-1.8813,-1.8052,-1.7542,-1.752,-1.734,-1.7246,-1.7254,-1.7059,-1.6878,-1.6878,-1.6885,-1.6979,-1.6958,-1.6669,-1.6393,-1.6305,-1.6197,-1.6109,-3.1005,-3.0391,-2.899,-2.7713,-2.6559,-2.6433,-2.6201,-2.5898,-2.553,-2.5636,-2.5992,-2.5984,-2.5902,-2.591,-2.5688,0.0,0.0,-2.5312,-2.5229,-2.5063,-2.4598,-2.4327,-2.4083,-2.36,-2.3229,-2.3094,-2.3047,-2.2523,-2.1754,-2.1575,-2.1152,-2.0467,-2.0271,-2.0151,-2.0074,-1.9933,-1.9868,-1.9878,-2.061,-2.0991,-2.1076,-2.1744,-2.1522,-2.0278,-2.0165,-1.9606,-1.8397,-1.8066,-1.7629,-1.6921,-1.6132,-1.546,-1.4908,0.0,0.0,0.0,0.0,0.0,0.0,0.0,0.0,0.0,0.0,0.0,0.0,0.0,0.0,0.0,-1.3119,0.0,-1.3575,-1.4202,0.0,0.0,0.0,-1.5606,-1.566,-1.6156,-1.6759,-1.7072,0.0,0.0,0.0,0.0,-1.8229,-1.8874,-1.9086,-1.933,-1.9964,-2.0158,-2.0086,-2.0189,-2.0078,-2.0078,-2.001,-1.9633,-1.8979,-1.8031,-1.7173,-1.6697,-1.6676,-1.6683,-1.6581,-1.6683,-1.6588,-1.6494,-1.6487,-1.6333,-1.6252,-1.6407,-1.6298,-1.6008,-1.573,-1.554,-1.5343,-3.2319,-3.1474,-3.0977,-2.9664,-2.7971,-2.789,-2.7276,-2.6389,-2.6271,-2.644,-2.6684,-2.6509,-2.6181,-2.591,-2.584,-2.5828,-2.5758,-2.5758,-2.5676,-2.5441,-2.5332,-2.5202,-2.4955,-2.4176,-2.3802,-2.371,-2.3062,-2.2616,-2.223,-2.2014,-2.1674,-2.1232,-2.1094,-2.0668,-1.9965,-1.9747,-1.9671,-1.9681,-2.0541,-2.1299,-2.1829,-2.1845,-2.1373,-2.0196,-2.0083,-1.9445,-1.8309,-1.7988,-1.7599,-1.7154,-1.6196,-1.5514,-1.5112,-1.4127,0.0,0.0,0.0,0.0,0.0,0.0,0.0,0.0,0.0,-1.2439,-1.2375,0.0,-1.2876,0.0,-1.3256,-1.3704,-1.4278,-1.4469,0.0,0.0,-1.523,-1.5457,-1.5797,-1.6203,-1.6566,-1.6876,-1.7202,-1.7338,-1.7412,-1.7426,-1.7668,-1.8075,-1.8641,-1.9254,-1.9659,-1.9933,-2.0086,-2.0071,-1.9857,-1.9583,-1.9125,-1.8275,-1.7647,-1.7379,-1.6929,-1.6595,-1.6588,-1.6588,-1.6588,-1.6588,-1.6211,-1.6021,-1.6021,-1.5757,-1.5484,-1.5465,-1.5465,-1.5369,-1.5057,-1.507,-1.5077,-3.3648,-3.2612,-3.2458,-3.1418,-2.9899,-2.9286,-2.8179,-2.676,-2.6728,-2.6917,-2.7207,-2.6784,-2.649,-2.6245,-2.6176,-2.6188,-2.6188,-2.6188,-2.5968,-2.5758,-2.5758,-2.5606,-2.53,-2.4801,-2.4542,-2.4331,-2.384,-2.3317,-2.274,-2.252,-2.2188,-2.1629,-2.1301,-2.0904,-2.039,-1.9963,-1.979,-1.98,-2.0428,-2.1,-2.1616,-2.178,-2.1223,-2.0124,-2.0001,-1.9293,-1.8086,-1.7794,-1.7451,-1.7088,-1.6063,-1.5301,-1.4967,-1.4001,-1.3353,0.0,0.0,0.0,0.0,0.0,0.0,0.0,0.0,0.0,0.0,0.0,-1.308,0.0,0.0,0.0,-1.4313,-1.4486,-1.4694,-1.5035,-1.522,-1.5433,-1.5862,-1.6316,-1.666,-1.6828,-1.7135,-1.7333,-1.7333,-1.7333,-1.7391,-1.7582,-1.7985,-1.8505,-1.8917,-1.9033,-1.9137,-1.9137,-1.8942,-1.868,-1.829,-1.7471,-1.696,-1.6836,-1.6505,-1.6204,-1.6204,-1.6204,-1.6116,-1.6109,-1.5737,-1.5458,-1.5458,-1.5382,-1.5108,-1.4796,-1.4604,-1.4508,-1.4586,-1.449,-1.431,-3.4831,-3.3788,-3.3494,-3.2863,-3.1986,-3.0825,-2.918,-2.7347,-2.7367,-2.7429,-2.7429,-2.7016,-2.6794,-2.6726,-2.6589,-2.6533,-2.6533,-2.6533,-2.6327,-2.598,-2.591,-2.5758,-2.5312,-2.53,-2.5111,-2.4801,-2.4801,-2.4198,-2.318,-2.3026,-2.2648,-2.1908,-2.1414,-2.114,-2.1108,-2.0453,-2.0121,-2.0059,-2.0242,-2.0596,-2.1104,-2.1507,-2.1151,-1.997,-1.9919,-1.9222,-1.7754,-1.752,-1.7254,-1.6881,-1.5784,-1.5055,-1.4701,-1.387,-1.3268,0.0,-1.3018,0.0,0.0,0.0,0.0,0.0,0.0,0.0,0.0,-1.2928,-1.325,-1.3536,-1.385,-1.404,-1.404,-1.4296,-1.4611,-1.4962,-1.5255,-1.5584,-1.6001,-1.6528,-1.6963,-1.6908,-1.7157,-1.7333,-1.7239,-1.7239,-1.7239,-1.7182,-1.7296,-1.7563,-1.792,-1.7973,-1.7953,-1.7768,-1.7485,-1.7288,-1.7267,-1.6794,-1.6422,-1.6319,-1.6081,-1.5737,-1.573,-1.5547,-1.5452,-1.5452,-1.5267,-1.4981,-1.4987,-1.5019,-1.4833,-1.431,-1.3823,-1.363,-1.401,-1.3925,-1.3539,-3.5339,-3.5001,-3.4054,-3.3437,-3.3003,-3.2569,-3.1278,-2.9323,-2.9336,-2.8677,-2.7516,-2.7382,-2.7172,-2.6943,-2.6726,-2.6658,-2.6658,-2.6521,-2.6408,-2.6131,-2.6131,-2.591,-2.5535,-2.5382,-2.5123,-2.4801,-2.4646,-2.4227,-2.3531,-2.3458,-2.3183,-2.2507,-2.2296,-2.2073,0.0,0.0,0.0,0.0,-2.0027,-2.0286,-2.1073,-2.1197,-2.0833,-1.9939,-1.9919,0.0,-1.7764,-1.7442,-1.7097,-1.6655,-1.5753,0.0,0.0,0.0,0.0,0.0,0.0,0.0,0.0,0.0,0.0,0.0,-1.3309,-1.3199,-1.2965,-1.3455,-1.3828,-1.3894,-1.4187,-1.4377,-1.4384,-1.4428,-1.4699,-1.5262,-1.5387,-1.5752,-1.6557,-1.6875,-1.6952,-1.7216,-1.7296,-1.7239,-1.7066,-1.7066,-1.6972,-1.6777,-1.6732,-1.6788,-1.6954,-1.7288,-1.7499,-1.7274,-1.6505,-1.598,-1.5933,-1.5444,-1.5263,-1.5091,-1.5177,-1.5255,-1.5274,-1.5172,-1.5172,-1.5172,-1.479,-1.4496,-1.4496,-1.4443,-1.425,-1.3738,-1.3227,-1.3033,-1.3426,-1.3528,-1.3443,-3.6134,0.0,-3.4539,-3.3937,0.0,0.0,-3.2569,-3.1542,-3.1196,-2.9787,-2.779,-2.7592,-2.7449,-2.7214,-2.7011,-2.6863,-2.6875,-2.6658,-2.6521,-2.6314,-2.6201,-2.598,-2.5606,-2.5465,-2.5253,-2.4921,-2.4718,-2.4418,-2.3897,-2.3677,-2.3372,-2.3001,-2.2628,-2.2327,-2.2241,-2.149,-2.0772,-2.011,-2.01,-2.0307,-2.0762,-2.0853,-2.0716,-2.0282,0.0,0.0,0.0,0.0,0.0,0.0,0.0,0.0,0.0,0.0,0.0,-1.3582,-1.3393,-1.3331,-1.3364,-1.3322,-1.3323,-1.3484,-1.3645,-1.3667,-1.3499,-1.3792,-1.3989,-1.3989,-1.4275,-1.4406,-1.4245,-1.4231,-1.4487,-1.5094,-1.5189,-1.557,-1.6433,-1.6762,-1.6989,-1.7088,-1.7153,-1.7059,-1.6878,-1.6784,-1.6784,-1.6588,-1.6501,-1.6292,-1.6326,-1.6567,-1.6794,-1.6361,-1.575,-1.535,-1.5249,-1.5149,-1.4848,-1.4886,-1.4988,-1.507,-1.5083,-1.4885,-1.4688,-1.4688,-1.4304,-1.3919,-1.401,-1.3753,-1.3481,-1.316,-1.2574,-1.2204,-1.2503,-1.2786,-1.2936,-3.693,-3.5889,-3.4855,-3.4346,-3.4128,-3.3591,-3.3396,-3.3227,0.0,0.0,0.0,-2.8001,-2.7699,-2.768,-2.7266,-2.7079,-2.7011,-2.6863,-2.6645,-2.6427,-2.6314,-2.605,-2.5676,-2.5676,-2.5477,-2.5123,-2.4921,-2.4562,-2.42,-2.3824,-2.3519,-2.3298,-2.2703,-2.2402,-2.2306,-2.1574,-2.0834,-2.0048,-2.0203,-2.0358,-2.0359,-2.0585,-2.0569,-2.0441,-1.9772,-1.9054,-1.8199,-1.7361,-1.6799,-1.636,-1.5653,-1.5111,-1.4767,-1.4274,-1.3834,-1.363,-1.359,-1.357,-1.347,-1.3492,-1.3521,-1.3572,-1.3836,-1.3989,-1.3989,-1.4033,-1.404,-1.3989,-1.4275,-1.4333,-1.4018,-1.404,-1.4296,-1.4874,-1.4911,-1.5311,-1.6155,-1.6601,-1.6766,-1.675,-1.6779,-1.6614,-1.6306,-1.6306,-1.6327,-1.614,-1.5905,-1.5779,-1.5591,-1.5725,-1.5785,-1.5468,-1.4986,-1.4798,-1.4829,-1.4659,-1.4804,-1.4576,-1.474,-1.4777,-1.4727,-1.4423,-1.4112,-1.4022,-1.3564,-1.3317,-1.3423,-1.2924,-1.2614,-1.2505,-1.1778,-1.1247,-1.1424,-1.1742,-1.2031,-3.7375,-3.6852,-3.5331,-3.4563,-3.4346,-3.3951,-3.3605,-3.3213,-3.2541,-3.1956,-3.1513,-2.9386,-2.8501,-2.8473,-2.7771,-2.7403,-2.7281,-2.7092,-2.6875,0.0,-2.6645,-2.6452,-2.6131,-2.591,-2.5606,-2.5241,-2.4921,-2.4574,-2.4189,-2.3824,-2.353,-2.3298,-2.2852,-2.2478,-2.2176,-2.1821,-2.1455,-2.0928,-2.0213,-1.9978,-2.0227,-2.0216,-2.002,-1.975,-1.9826,-1.948,-1.8616,-1.7705,-1.7063,-1.683,-1.5749,-1.5201,-1.5122,-1.4719,-1.4364,-1.406,-1.3988,-1.3867,-1.3492,-1.3492,-1.3616,-1.3887,-1.3953,-1.3989,-1.3989,-1.4238,-1.4282,-1.4033,-1.4267,-1.4333,-1.4048,-1.4216,-1.4509,-1.4889,-1.5107,-1.5551,-1.6015,-1.6056,-1.6127,-1.593,-1.5887,-1.5736,-1.5402,-1.5305,-1.513,-1.4734,-1.4806,-1.4566,-1.4624,-1.4654,-1.4795,-1.4682,-1.4142,-1.3738,-1.3792,-1.3548,-1.3461,-1.3391,-1.366,-1.3701,-1.3614,-1.3467,-1.3304,-1.3021,-1.2666,-1.2355,-1.2333,-1.1932,-1.1569,-1.1361,-1.0757,-1.04,-1.0626,-1.0722,-1.0876,-3.7639,-3.7148,-3.5644,-3.4883,-3.4668,-3.4346,-3.3951,-3.3605,-3.3017,-3.2541,-3.2124,-3.1019,-2.9969,-2.8958,-2.8396,-2.7891,-2.7523,-2.7268,-2.7092,-2.6863,-2.6794,-2.6521,-2.6201,-2.5992,-2.5758,-2.5465,-2.4992,-2.4718,-2.4502,-2.3897,-2.3519,-2.3446,-2.2852,-2.2402,-2.2111,-2.1873,-2.1694,-2.1487,-2.0834,-2.0535,-2.0512,-2.0215,-2.0109,-2.0272,-1.9671,-1.9228,-1.9033,-1.798,-1.732,-1.7246,-1.6334,-1.5634,-1.5237,-1.4848,-1.4261,-1.3638,-1.3698,-1.366,-1.3484,-1.3667,-1.3901,-1.4209,-1.4077,-1.3989,-1.3989,-1.4114,-1.4143,-1.3996,-1.4128,-1.407,-1.377,-1.4018,-1.4333,-1.4655,-1.4889,-1.5173,-1.5641,-1.5595,-1.5483,-1.537,-1.5315,-1.5136,-1.4687,-1.4597,-1.4597,-1.4327,-1.4141,-1.4057,-1.396,-1.3884,-1.3878,-1.397,-1.3598,-1.335,-1.3156,-1.3049,-1.294,-1.2945,-1.3042,-1.3077,-1.2951,-1.2774,-1.253,-1.2417,-1.1927,-1.1515,-1.1298,-1.1047,-1.075,-1.0349,-1.008,-0.9981,-0.999,-0.9883,-1.0001,-3.7842,-3.7413,-3.5896,-3.5148,-3.4868,-3.452,-3.4264,-3.3965,-3.3717,-3.3115,-3.2514,-3.2248,-3.1199,-2.9538,-2.9025,-2.8424,-2.7842,-2.7536,-2.7281,-2.7011,-2.6794,-2.6533,-2.6213,-2.598,-2.5758,-2.5535,-2.5064,-2.4801,-2.4718,-2.397,-2.353,-2.3372,-2.2777,-2.2338,-2.2187,-2.1949,-2.1807,-2.1787,-2.1445,-2.1079,-2.0754,-2.0272,-2.0172,-2.0424,-1.9437,-1.8947,-1.908,-1.7968,-1.7388,-1.7379,-1.6555,-1.5807,-1.5262,-1.4856,-1.4191,-1.3454,-1.3538,-1.3585,-1.355,-1.3799,-1.4092,-1.4333,-1.4194,-1.4062,-1.3989,-1.3989,-1.3945,-1.3887,-1.3872,-1.377,-1.3616,-1.3879,-1.4194,-1.4372,-1.4576,-1.4842,-1.5191,-1.5105,-1.4929,-1.4723,-1.4674,-1.4477,-1.4129,-1.404,-1.3926,-1.3831,-1.369,-1.3517,-1.3249,-1.3034,-1.2981,-1.2927,-1.3027,-1.2871,-1.2689,-1.2603,-1.2495,-1.245,-1.2433,-1.2372,-1.2271,-1.1987,-1.1778,-1.1603,-1.115,-1.0647,-1.0363,-1.0211,-0.9916,-0.9606,-0.9504,-0.9422,-0.9412,-0.9327,-0.9318,-3.8059,-3.7511,-3.6124,-3.5228,-3.4854,-3.4581,-3.4409,-3.4361,-3.4315,-3.3886,-3.3143,-3.2458,-3.1474,-3.0283,-2.947,-2.8652,-2.7895,-2.7776,-2.7456,-2.7024,-2.7011,-2.6683,-2.6201,-2.598,-2.577,-2.5535,-2.5064,-2.479,-2.4718,-2.3982,-2.3446,-2.3065,-2.2628,-2.2402,-2.2338,-2.1949,-2.1807,-2.1807,-2.1766,-2.1398,-2.0666,-2.0511,-2.0108,-1.9478,-1.9353,-1.9099,-1.8805,-1.7615,-1.6989,-1.6954,-1.5952,-1.5295,-1.5213,-1.4848,-1.4394,-1.4014,-1.3981,-1.3897,-1.3594,-1.3806,-1.4004,-1.404,-1.4253,-1.4253,-1.4004,-1.3967,-1.385,-1.3631,-1.355,-1.3543,-1.3543,-1.4033,-1.4299,-1.4223,-1.4646,-1.4901,-1.4614,-1.4284,-1.4128,-1.3809,-1.3716,-1.3481,-1.3274,-1.32,-1.3077,-1.2739,-1.2659,-1.2469,-1.2181,-1.2043,-1.1753,-1.1577,-1.185,-1.2304,-1.2139,-1.1941,-1.1674,-1.1279,-1.1358,-1.1372,-1.1101,-1.0937,-1.0753,-1.0709,-1.0196,-0.9897,-0.9746,-0.9423,-0.9169,-0.9165,-0.9029,-0.8865,-0.8765,-0.8798,-0.8916,-3.8295,-3.7855,-3.626,-3.5394,-3.5082,-3.5023,-3.4794,-3.4423,-3.4384,-3.3996,-3.3296,-3.2722,-3.1956,-3.1088,-3.0132,-2.9281,-2.8505,-2.8014,-2.7536,-2.7024,-2.7024,-2.6683,-2.6201,-2.5992,-2.5758,-2.5382,-2.4992,-2.4718,-2.449,-2.397,-2.3372,-2.3001,-2.2628,-2.2392,-2.2402,-2.2035,-2.1807,-2.1807,-2.1655,-2.141,-2.1009,-2.0682,-2.0432,-2.0105,-1.9602,-1.926,-1.9005,-1.8143,-1.7512,-1.7299,-1.6385,-1.5658,-1.53,-1.4856,-1.4238,-1.3623,-1.3645,-1.3792,-1.377,-1.3909,-1.3989,-1.3989,-1.3923,-1.3821,-1.3711,-1.3697,-1.3631,-1.3521,-1.3492,-1.3492,-1.3536,-1.3841,-1.4014,-1.4145,-1.4289,-1.4372,-1.423,-1.399,-1.3737,-1.3398,-1.3222,-1.3052,-1.279,-1.2546,-1.231,-1.2024,-1.1972,-1.1763,-1.13,-1.1172,-1.0881,-1.0568,-1.08,-1.0926,-1.0898,-1.0792,-1.058,-1.0524,-1.0488,-1.0449,-1.0352,-1.0151,-1.0049,-0.9961,-0.962,-0.9334,-0.9251,-0.9024,-0.8789,-0.8789,-0.8784,-0.8703,-0.8703,-0.8703,-0.8726,-3.8369,-3.78,-3.6364,-3.5589,-3.5359,-3.5451,-3.5097,-3.4558,-3.4466,-3.4008,-3.3267,-3.2847,-3.2412,-3.183,-3.081,-2.9885,-2.8958,-2.8291,-2.7613,-2.7037,-2.6875,-2.6602,-2.6131,-2.591,-2.5618,-2.5265,-2.5063,-2.4853,-2.4664,-2.4231,-2.3782,-2.3405,-2.3025,-2.2785,-2.2719,-2.2412,-2.2128,-2.1937,-2.1763,-2.148,-2.1031,-2.0741,-2.052,-2.0275,-1.964,-1.9212,-1.9005,-1.8212,-1.7654,-1.737,-1.6521,-1.5782,-1.5333,-1.4856,-1.4206,-1.3523,-1.3442,-1.3594,-1.3836,-1.385,-1.385,-1.3836,-1.3689,-1.3587,-1.3528,-1.3579,-1.3579,-1.3492,-1.3419,-1.3419,-1.3448,-1.3561,-1.3689,-1.3761,-1.3725,-1.3791,-1.3741,-1.3542,-1.3277,-1.3031,-1.2831,-1.265,-1.2175,-1.1972,-1.1723,-1.1504,-1.1381,-1.126,-1.0676,-1.0439,-1.0305,-0.9898,-0.9782,-0.9802,-0.9872,-0.9978,-0.9897,-0.9666,-0.969,-0.9837,-0.9752,-0.9566,-0.9491,-0.9476,-0.9173,-0.8966,-0.8985,-0.8799,-0.8703,-0.8703,-0.8703,-0.8703,-0.8703,-0.8703,-0.8703,-3.8188,-3.7189,-3.6103,-3.5688,-3.5638,-3.5568,-3.5274,-3.4802,-3.4549,-3.4008,-3.3267,-3.2834,-3.2676,-3.2536,-3.1419,-3.0274,-2.9065,-2.8591,-2.7893,-2.7139,-2.6721,-2.6258,-2.591,-2.5676,-2.5431,-2.529,-2.538,-2.5344,-2.5081,-2.4971,-2.4792,-2.4388,-2.3838,-2.3722,-2.361,-2.3189,-2.2814,-2.2196,-2.2155,-2.1716,-2.08,-2.0634,-2.0284,-1.9764,-1.9431,-1.9042,-1.8499,-1.7569,-1.7071,-1.6954,-1.5935,-1.527,-1.5221,-1.4784,-1.4386,-1.4068,-1.368,-1.3499,-1.3536,-1.3543,-1.3536,-1.3565,-1.3755,-1.3814,-1.3543,-1.3726,-1.374,-1.3521,-1.3346,-1.3273,-1.3214,-1.3362,-1.3417,-1.3029,-1.3111,-1.3167,-1.3054,-1.2921,-1.2756,-1.2674,-1.2337,-1.1928,-1.1468,-1.1318,-1.1109,-1.0832,-1.0735,-1.0546,-1.0074,-0.9856,-0.9685,-0.9478,-0.9243,-0.9189,-0.9621,-0.9551,-0.9332,-0.911,-0.9104,-0.9223,-0.899,-0.8875,-0.8971,-0.9057,-0.8803,-0.8713,-0.8708,-0.8703,-0.8703,-0.8703,-0.8703,-0.8703,-0.8703,-0.8703,-0.8703,-3.8054,-3.6547,-3.6176,-3.5879,-3.5703,-3.5574,-3.5281,-3.4883,-3.4549,-3.3827,-3.3002,-3.2749,-3.2561,-3.2372,-3.1662,-3.0922,-3.0077,-2.9245,-2.862,-2.8087,-2.765,-2.7292,-2.6943,-2.67,-2.6334,-2.5926,-2.5941,-2.5662,-2.5127,-2.4904,-2.4679,-2.4295,-2.3977,-2.3657,-2.3325,-2.3093,-2.2767,-2.2393,-2.2291,-2.1829,-2.1085,-2.0887,-2.0457,-1.9684,-1.949,-1.9226,-1.8589,-1.8046,-1.7481,-1.7077,-1.6117,-1.5568,-1.547,-1.476,-1.4209,-1.4057,-1.3702,-1.3492,-1.3492,-1.3492,-1.3492,-1.3499,-1.3594,-1.3638,-1.3543,-1.3601,-1.3609,-1.3375,-1.3273,-1.3046,-1.276,-1.2776,-1.277,-1.2802,-1.2621,-1.2563,-1.2475,-1.2395,-1.2152,-1.1984,-1.1659,-1.1294,-1.1128,-1.0875,-1.0573,-1.028,-1.0169,-0.9874,-0.9516,-0.9334,-0.9145,-0.8822,-0.8688,-0.8602,-0.864,-0.8769,-0.8737,-0.8554,-0.8431,-0.8508,-0.8417,-0.8408,-0.8502,-0.8579,-0.8403,-0.8479,-0.8479,-0.8551,-0.8627,-0.8627,-0.8627,-0.8632,-0.8703,-0.8627,-0.8627,-3.7591,-3.6475,-3.6274,-3.6022,-3.5782,-3.5469,-3.5207,-3.4883,-3.4549,-3.3827,-3.3016,-3.2609,-3.2448,-3.23,-3.1817,-3.1396,-3.087,-2.9797,-2.9073,-2.869,-2.8243,-2.7816,-2.752,-2.7273,-2.6899,-2.6329,-2.6252,-2.5991,-2.5622,-2.5223,-2.4902,-2.4611,-2.4275,-2.3937,-2.3608,-2.336,-2.3071,-2.2702,-2.2496,-2.2113,-2.1364,-2.0947,-2.0524,-1.9869,-1.9561,-1.9201,-1.8839,-1.8324,-1.7837,-1.7386,-1.6514,-1.5823,-1.5528,-1.4686,-1.4137,-1.4065,-1.3702,-1.3492,-1.3492,-1.3492,-1.3492,-1.3492,-1.3492,-1.3492,-1.3492,-1.3419,-1.3339,-1.32,-1.3046,-1.2753,-1.2452,-1.2231,-1.2162,-1.2263,-1.2081,-1.1972,-1.1915,-1.1799,-1.1561,-1.13,-1.0909,-1.0649,-1.0491,-1.0248,-0.9927,-0.971,-0.9549,-0.9319,-0.8904,-0.8789,-0.8713,-0.8403,-0.8336,-0.8255,-0.8159,-0.8258,-0.8335,-0.815,-0.8141,-0.8115,-0.8025,-0.8025,-0.8025,-0.8025,-0.8102,-0.8178,-0.8255,-0.8403,-0.8479,-0.8551,-0.8479,-0.8403,-0.8479,-0.8475,-0.8475,-3.6754,-3.6646,-3.6321,-3.6148,-3.591,-3.5394,-3.5052,-3.4831,-3.4564,-3.3939,-3.3184,-3.254,-3.2409,-3.2434,-3.185,-3.1569,-3.1196,-3.0099,-2.9365,-2.8822,-2.8222,-2.7854,-2.7668,-2.7468,-2.7079,-2.6482,-2.6221,-2.6278,-2.6405,-2.5992,-2.5681,-2.5505,-2.4999,-2.4608,-2.4402,-2.4053,-2.3665,-2.3033,-2.2869,-2.2473,-2.1607,-2.1024,-2.0561,-2.0186,-1.9469,-1.902,-1.8966,-1.825,-1.7839,-1.7692,-1.6817,-1.5994,-1.5279,-1.4571,-1.4152,-1.4072,-1.371,-1.3492,-1.3492,-1.3492,-1.3492,-1.3492,-1.3492,-1.3492,-1.3419,-1.3273,-1.32,-1.3119,-1.282,-1.2526,-1.2305,-1.1929,-1.1719,-1.149,-1.1465,-1.135,-1.1301,-1.1224,-1.1062,-1.0628,-1.0269,-0.9873,-0.964,-0.955,-0.9321,-0.9153,-0.9062,-0.8904,-0.8565,-0.8479,-0.8331,-0.8178,-0.8102,-0.8025,-0.7876,-0.7804,-0.7804,-0.7804,-0.7957,-0.7949,-0.7791,-0.7791,-0.7868,-0.7868,-0.7949,-0.803,-0.8106,-0.8178,-0.8255,-0.8255,-0.8178,-0.8178,-0.8255,-0.825,-0.8174,-3.68,-3.6662,-3.6336,-3.6148,-3.5973,-3.5549,-3.5207,-3.4898,-3.4549,-3.3968,-3.331,-3.2749,-3.2228,-3.1779,-3.1616,-3.1296,-3.0731,-3.0271,-2.9997,-2.973,-2.9189,-2.8731,-2.8602,-2.837,-2.7993,-2.7411,-2.6725,-2.6476,-2.6445,-2.5979,-2.5559,-2.5295,-2.5031,-2.4615,-2.41,-2.3927,-2.3577,-2.3142,-2.3036,-2.2658,-2.2005,-2.1588,-2.1099,-2.0316,-1.9706,-1.9201,-1.8789,-1.8408,-1.8108,-1.7923,-1.7195,-1.6256,-1.5375,-1.47,-1.4301,-1.4088,-1.3702,-1.3492,-1.3492,-1.3492,-1.3492,-1.3492,-1.3346,-1.3273,-1.3273,-1.3119,-1.2973,-1.282,-1.2519,-1.2224,-1.1929,-1.1632,-1.1484,-1.1409,-1.1192,-1.0986,-1.0866,-1.065,-1.0416,-1.0177,-0.9889,-0.97,-0.9549,-0.9322,-0.9099,-0.8946,-0.8789,-0.856,-0.8403,-0.8255,-0.8106,-0.7957,-0.7876,-0.7876,-0.7718,-0.7642,-0.7642,-0.7642,-0.7714,-0.7791,-0.7638,-0.7561,-0.7638,-0.7714,-0.7795,-0.7876,-0.7953,-0.7953,-0.7949,-0.8025,-0.8102,-0.8102,-0.8102,-0.8025,-0.8025,-3.6984,-3.68,-3.6476,-3.6148,-3.5973,-3.5549,-3.5213,-3.4883,-3.4511,-3.3762,-3.2758,-3.2194,-3.1694,-3.121,-3.0998,-3.0658,-3.0138,-2.9969,-2.9815,-2.9768,-2.9718,-2.9353,-2.9052,-2.8657,-2.8271,-2.78,-2.7056,-2.6644,-2.6561,-2.5801,-2.538,-2.52,-2.4871,-2.4444,-2.3841,-2.3754,-2.358,-2.3144,-2.3135,-2.2921,-2.2515,-2.2083,-2.1495,-2.0838,-2.0081,-1.9389,-1.8913,-1.861,-1.8282,-1.7971,-1.7276,-1.6468,-1.5594,-1.4955,-1.4544,-1.4294,-1.385,-1.3492,-1.3492,-1.3492,-1.3492,-1.3426,-1.3273,-1.32,-1.3046,-1.29,-1.2746,-1.2599,-1.2372,-1.2077,-1.1781,-1.1558,-1.1335,-1.1186,-1.0962,-1.0738,-1.0588,-1.0293,-0.9997,-0.9857,-0.962,-0.9473,-0.9322,-0.9089,-0.8865,-0.8789,-0.856,-0.8331,-0.8255,-0.803,-0.7876,-0.7799,-0.7718,-0.7638,-0.7557,-0.748,-0.748,-0.7557,-0.7557,-0.7557,-0.7557,-0.7557,-0.7557,-0.7557,-0.7638,-0.7638,-0.7718,-0.7718,-0.7791,-0.7872,-0.7872,-0.7872,-0.7791,-0.7791,-0.7791,-3.7165,-3.6938,-3.6569,-3.6182,-3.5788,-3.523,-3.4951,-3.4847,-3.4383,-3.312,-3.1599,-3.1015,-3.0813,-3.0664,-3.0292,-2.9931,-2.9671,-2.9392,-2.9027,-2.9027,-2.9227,-2.9309,-2.8905,-2.8383,-2.8042,-2.78,-2.7044,-2.6633,-2.6561,-2.579,-2.52,-2.52,-2.4786,-2.4272,-2.3927,-2.3841,-2.357,-2.3144,-2.3144,-2.3125,-2.2999,-2.2255,-2.1797,-2.1598,-2.043,-1.9515,-1.9091,-1.8591,-1.8193,-1.7917,-1.7246,-1.6643,-1.6079,-1.518,-1.4683,-1.4553,-1.3896,-1.3623,-1.3506,-1.3492,-1.3419,-1.3266,-1.3119,-1.3119,-1.2893,-1.2673,-1.2592,-1.2526,-1.2224,-1.1929,-1.1706,-1.1484,-1.1186,-1.0887,-1.0738,-1.0588,-1.0218,-0.9997,-0.9841,-0.962,-0.9402,-0.9251,-0.9099,-0.8861,-0.8632,-0.8479,-0.8408,-0.8178,-0.7953,-0.7799,-0.7718,-0.7638,-0.7561,-0.7561,-0.748,-0.748,-0.748,-0.748,-0.748,-0.748,-0.748,-0.748,-0.748,-0.748,-0.748,-0.748,-0.7557,-0.7633,-0.7633,-0.7638,-0.7638,-0.7557,-0.7557,-0.7638,-0.7561,-3.7194,-3.6892,-3.5938,-3.5415,-3.5091,-3.4059,-3.4118,-3.467,-3.3498,-3.204,-3.0438,-3.0017,-3.0182,-3.0221,-3.0188,-2.9805,-2.9342,-2.9162,-2.8977,-2.8728,-2.874,-2.8737,-2.8488,-2.8239,-2.8018,-2.7777,-2.7267,-2.6869,-2.6561,-2.5979,-2.5549,-2.52,-2.4946,-2.4444,-2.3927,-2.3841,-2.358,-2.3144,-2.3135,-2.3115,-2.2999,-2.2475,-2.1958,-2.1278,-2.0615,-1.9788,-1.8922,-1.8253,-1.7781,-1.7546,-1.7228,-1.679,-1.623,-1.5622,-1.5064,-1.4569,-1.4126,-1.3733,-1.355,-1.3346,-1.3266,-1.3193,-1.2973,-1.2753,-1.2673,-1.2526,-1.2378,-1.2305,-1.2003,-1.1781,-1.1632,-1.1409,-1.1037,-1.0663,-1.0443,-1.0288,-0.9992,-0.9771,-0.962,-0.9549,-0.9327,-0.9099,-0.8946,-0.8708,-0.8479,-0.8331,-0.8178,-0.7949,-0.7799,-0.7642,-0.7561,-0.7561,-0.7557,-0.748,-0.748,-0.748,-0.748,-0.748,-0.748,-0.748,-0.748,-0.748,-0.748,-0.748,-0.748,-0.748,-0.748,-0.7557,-0.748,-0.748,-0.748,-0.748,-0.7484,-0.7484,-0.7411,-3.6447,-3.6035,-3.5183,-3.4729,-3.4455,-3.3526,-3.349,-3.3821,-3.2937,-3.1847,-3.0746,-3.0446,-3.037,-3.0345,-3.0337,-2.9982,-2.9329,-2.9315,-2.9164,-2.8885,-2.8692,-2.84,-2.8059,-2.7987,-2.787,-2.7599,-2.7337,-2.6951,-2.655,-2.6146,-2.5633,-2.5211,-2.5031,-2.4519,-2.3841,-2.3754,-2.3471,-2.2997,-2.2871,-2.2803,-2.2551,-2.2169,-2.1693,-2.1117,-2.0615,-1.9697,-1.878,-1.7951,-1.7546,-1.7392,-1.7204,-1.6871,-1.6283,-1.5885,-1.5332,-1.4736,-1.4282,-1.3836,-1.3425,-1.3273,-1.3119,-1.2973,-1.2673,-1.2599,-1.2452,-1.2378,-1.2305,-1.215,-1.1855,-1.1706,-1.1484,-1.1111,-1.0663,-1.0288,-1.0067,-0.9916,-0.9771,-0.962,-0.9473,-0.9322,-0.9175,-0.887,-0.8794,-0.8556,-0.8327,-0.8178,-0.7957,-0.7799,-0.7642,-0.7561,-0.748,-0.748,-0.748,-0.748,-0.748,-0.748,-0.748,-0.748,-0.748,-0.748,-0.748,-0.748,-0.748,-0.748,-0.748,-0.748,-0.748,-0.748,-0.748,-0.748,-0.748,-0.7484,-0.7407,-0.733,-0.7257,-3.5363,-3.4893,-3.4531,-3.4252,-3.394,-3.3408,-3.3084,-3.2805,-3.2625,-3.2413,-3.2155,-3.1857,-3.1349,-3.0976,-3.0596,-3.0282,-2.984,-2.9525,-2.9083,-2.8724,-2.8413,-2.8002,-2.7361,-2.7863,-2.771,-2.7387,-2.7244,-2.6885,-2.6442,-2.597,-2.5521,-2.4997,-2.4777,-2.4333,-2.372,-2.3609,-2.3212,-2.2595,-2.2451,-2.2314,-2.2006,-2.1594,-2.1239,-2.0948,-2.0108,-1.9408,-1.8547,-1.7887,-1.74,-1.7302,-1.7139,-1.6796,-1.6339,-1.5928,-1.5405,-1.4836,-1.4307,-1.3773,-1.3314,-1.3169,-1.2973,-1.2673,-1.2599,-1.2526,-1.2378,-1.2305,-1.2224,-1.2077,-1.1781,-1.1558,-1.1254,-1.0812,-1.0363,-0.9992,-0.9771,-0.9544,-0.9468,-0.9397,-0.9175,-0.9022,-0.9027,-0.8789,-0.8556,-0.8327,-0.8255,-0.8025,-0.7799,-0.7642,-0.7561,-0.7561,-0.748,-0.748,-0.748,-0.748,-0.748,-0.748,-0.748,-0.748,-0.748,-0.748,-0.748,-0.748,-0.748,-0.748,-0.748,-0.748,-0.748,-0.748,-0.748,-0.748,-0.748,-0.733,-0.7257,-0.7176,-0.7103,-3.5475,-3.5008,-3.4589,-3.4252,-3.3925,-3.3499,-3.2753,-3.1917,-3.2392,-3.2972,-3.3533,-3.3122,-3.2268,-3.131,-3.0894,-3.0637,-3.0159,-2.948,-2.8578,-2.7477,-2.7227,-2.6884,-2.6769,-2.7685,-2.8131,-2.7631,-2.7226,-2.6691,-2.6084,-2.5505,-2.485,-2.4249,-2.4172,-2.373,-2.3186,-2.2915,-2.2619,-2.2271,-2.2105,-2.1963,-2.1753,-2.1345,-2.0964,-2.0618,-1.9606,-1.8735,-1.8236,-1.7635,-1.7229,-1.6894,-1.6632,-1.6437,-1.6281,-1.5906,-1.5442,-1.4896,-1.443,-1.3887,-1.336,-1.2959,-1.268,-1.2599,-1.2452,-1.2378,-1.2305,-1.2305,-1.2224,-1.2009,-1.1787,-1.1484,-1.0962,-1.0663,-1.0288,-0.9916,-0.9544,-0.9241,-0.9008,-0.9013,-0.9022,-0.8946,-0.8789,-0.8708,-0.8399,-0.8255,-0.803,-0.7799,-0.7718,-0.7561,-0.7557,-0.748,-0.748,-0.748,-0.748,-0.748,-0.748,-0.748,-0.748,-0.748,-0.748,-0.748,-0.748,-0.748,-0.748,-0.748,-0.748,-0.748,-0.748,-0.748,-0.748,-0.748,-0.7407,-0.7253,-0.7103,-0.7022,-0.6872,-3.4752,-3.4547,-3.3882,-3.3545,-3.3438,-3.2871,-3.2541,-3.2505,-3.2635,-3.3015,-3.3328,-3.2948,-3.2197,-3.1338,-3.1043,-3.0624,-3.0035,-2.9379,-2.8591,-2.7895,-2.7563,-2.7114,-2.6758,-2.7308,-2.7567,-2.6901,-2.6764,-2.6251,-2.5622,-2.515,-2.4656,-2.3908,-2.3807,-2.3479,-2.2849,-2.2574,-2.2259,-2.1927,-2.1654,-2.1494,-2.1138,-2.0766,-2.0295,-1.991,-1.9119,-1.8451,-1.8049,-1.7635,-1.7139,-1.6621,-1.6168,-1.6083,-1.6034,-1.5718,-1.5323,-1.4793,-1.4316,-1.3769,-1.3224,-1.2865,-1.2526,-1.2459,-1.2378,-1.2305,-1.2231,-1.2231,-1.2077,-1.1855,-1.1632,-1.1335,-1.0738,-1.0519,-1.0143,-0.9695,-0.9473,-0.9094,-0.8708,-0.8637,-0.8641,-0.856,-0.8479,-0.8331,-0.8183,-0.803,-0.7872,-0.7642,-0.7565,-0.7484,-0.7557,-0.748,-0.748,-0.748,-0.748,-0.748,-0.748,-0.748,-0.748,-0.748,-0.748,-0.748,-0.748,-0.748,-0.748,-0.748,-0.748,-0.748,-0.748,-0.748,-0.7484,-0.7334,-0.7257,-0.7103,-0.6945,-0.6791,-0.6641,-3.3852,-3.3928,-3.3084,-3.2834,-3.2862,-3.2415,-3.2675,-3.3336,-3.3184,-3.2735,-3.2182,-3.1876,-3.1514,-3.1244,-3.1043,-3.0474,-2.9651,-2.9123,-2.8537,-2.7921,-2.7612,-2.7242,-2.6931,-2.6638,-2.6354,-2.5507,-2.5866,-2.5631,-2.5181,-2.4881,-2.4194,-2.3709,-2.3573,-2.3129,-2.2664,-2.2372,-2.201,-2.1561,-2.1203,-2.0936,-2.0507,-2.0125,-1.9701,-1.9136,-1.8878,-1.8371,-1.7968,-1.7529,-1.7073,-1.6261,-1.5823,-1.5617,-1.5435,-1.5389,-1.5112,-1.4586,-1.4184,-1.3646,-1.3201,-1.2811,-1.2533,-1.2331,-1.2305,-1.2305,-1.2231,-1.215,-1.1929,-1.1706,-1.1484,-1.1037,-1.0588,-1.0293,-0.9916,-0.9473,-0.9246,-0.8937,-0.8479,-0.8327,-0.8255,-0.8178,-0.8174,-0.8025,-0.7876,-0.7723,-0.7565,-0.7484,-0.7407,-0.7407,-0.7403,-0.7403,-0.7326,-0.7326,-0.7249,-0.7249,-0.7249,-0.7249,-0.7326,-0.7326,-0.7403,-0.7403,-0.7403,-0.7326,-0.7326,-0.748,-0.748,-0.748,-0.7484,-0.7488,-0.7411,-0.7261,-0.7107,-0.6949,-0.6791,-0.656,-0.6409,-3.3722,-3.3461,-3.341,-3.328,-3.3044,-3.323,-3.3291,-3.3498,-3.3315,-3.2445,-3.1005,-3.06,-3.0937,-3.118,-3.1096,-3.0161,-2.909,-2.8529,-2.7893,-2.717,-2.6841,-2.6574,-2.6198,-2.5853,-2.5421,-2.5156,-2.5265,-2.5061,-2.4506,-2.4074,-2.3578,-2.2853,-2.2722,-2.2426,-2.2061,-2.1659,-2.1527,-2.1271,-2.0918,-2.0596,-2.0293,-1.9942,-1.9469,-1.8851,-1.8692,-1.829,-1.7708,-1.7375,-1.6904,-1.5862,-1.5663,-1.5287,-1.4815,-1.4706,-1.4636,-1.4578,-1.4158,-1.3687,-1.325,-1.2903,-1.2634,-1.2385,-1.2305,-1.2305,-1.2231,-1.2077,-1.1855,-1.1558,-1.1186,-1.0818,-1.0513,-1.0143,-0.9771,-0.9392,-0.9013,-0.8627,-0.8255,-0.803,-0.7953,-0.7949,-0.7868,-0.7791,-0.7561,-0.7411,-0.7334,-0.7176,-0.7176,-0.7173,-0.7173,-0.7096,-0.7019,-0.7019,-0.7019,-0.6942,-0.6942,-0.7019,-0.7019,-0.7019,-0.7096,-0.7096,-0.7096,-0.7019,-0.7096,-0.7249,-0.7403,-0.7484,-0.7488,-0.7492,-0.7338,-0.7107,-0.6953,-0.6799,-0.656,-0.6328,-0.6096,-3.3918,-3.3884,-3.3451,-3.3234,-3.3154,-3.2922,-3.2704,-3.2497,-3.2406,-3.1687,-3.0639,-3.0205,-3.0178,-3.0353,-3.0165,-2.9318,-2.8518,-2.7819,-2.731,-2.6658,-2.6302,-2.6025,-2.5688,-2.5265,-2.4992,-2.4788,-2.4684,-2.4431,-2.4015,-2.3527,-2.3001,-2.2563,-2.2327,-2.2101,-2.1807,-2.1466,-2.1205,-2.1128,-2.0809,-2.0411,-2.0108,-1.9715,-1.9161,-1.8851,-1.8442,-1.804,-1.7521,-1.7008,-1.6461,-1.5504,-1.5141,-1.4757,-1.4311,-1.4073,-1.4099,-1.4274,-1.4029,-1.3669,-1.322,-1.2919,-1.2612,-1.2358,-1.2305,-1.2231,-1.215,-1.1929,-1.1713,-1.1409,-1.0962,-1.0594,-1.0513,-0.9992,-0.962,-0.9322,-0.8937,-0.8551,-0.8178,-0.7957,-0.7799,-0.7718,-0.7565,-0.7407,-0.7249,-0.7099,-0.7022,-0.6942,-0.6865,-0.6865,-0.6865,-0.6865,-0.6788,-0.6865,-0.6868,-0.6868,-0.6788,-0.6791,-0.6791,-0.6791,-0.6795,-0.6795,-0.6887,-0.6821,-0.6957,-0.7096,-0.7173,-0.7312,-0.7338,-0.735,-0.7188,-0.7042,-0.6828,-0.6602,-0.6338,-0.6096,-0.5879,-3.4082,-3.4244,-3.3278,-3.3013,-3.3044,-3.217,-3.1732,-3.1534,-3.1528,-3.1028,-3.0144,-3.0029,-2.9713,-2.9338,-2.8986,-2.8549,-2.8013,-2.7374,-2.6969,-2.6671,-2.6258,-2.591,-2.563,-2.5218,-2.4801,-2.4729,-2.4162,-2.3751,-2.3586,-2.3235,-2.2777,-2.2402,-2.2101,-2.1959,-2.1665,-2.1272,-2.1205,-2.1051,-2.0731,-2.0333,-1.9784,-1.932,-1.8931,-1.87,-1.829,-1.7797,-1.7448,-1.6838,-1.6095,-1.5273,-1.4736,-1.4253,-1.3669,-1.3395,-1.3509,-1.3926,-1.3716,-1.3447,-1.3153,-1.3019,-1.2719,-1.2351,-1.2311,-1.2224,-1.2003,-1.1781,-1.149,-1.1111,-1.0738,-1.0443,-1.0293,-0.9841,-0.9468,-0.917,-0.8784,-0.8399,-0.8102,-0.7799,-0.7492,-0.7334,-0.718,-0.7026,-0.6945,-0.6795,-0.6641,-0.6641,-0.6637,-0.6641,-0.6641,-0.6637,-0.6637,-0.6714,-0.6714,-0.6714,-0.6714,-0.6637,-0.6637,-0.6641,-0.6651,-0.6662,-0.6684,-0.6783,-0.6869,-0.6909,-0.7104,-0.7224,-0.7219,-0.7254,-0.7077,-0.6942,-0.667,-0.6448,-0.6265,-0.5988,-0.5717,-3.3896,-3.3562,-3.3058,-3.2765,-3.2382,-3.1525,-3.1278,-3.1429,-3.1432,-3.0968,-2.9927,-2.9722,-2.9411,-2.9101,-2.8454,-2.8105,-2.7736,-2.7281,-2.6875,-2.6589,-2.6107,-2.5828,-2.5618,-2.5076,-2.479,-2.4646,-2.397,-2.3593,-2.3298,-2.3075,-2.2703,-2.2176,-2.1949,-2.1731,-2.1512,-2.1128,-2.0994,-2.0829,-2.0508,-2.0108,-1.9636,-1.924,-1.8931,-1.8612,-1.821,-1.7764,-1.7293,-1.6652,-1.5842,-1.5127,-1.457,-1.3977,-1.3431,-1.3297,-1.3182,-1.3297,-1.3306,-1.3394,-1.2966,-1.2946,-1.2826,-1.2418,-1.2305,-1.2231,-1.1922,-1.1527,-1.1224,-1.0887,-1.0576,-1.0363,-1.0062,-0.962,-0.9241,-0.8861,-0.8479,-0.8178,-0.788,-0.7569,-0.7338,-0.7099,-0.6945,-0.6791,-0.6637,-0.649,-0.6338,-0.6335,-0.6412,-0.6412,-0.6412,-0.6486,-0.6486,-0.6486,-0.6563,-0.6563,-0.6563,-0.6486,-0.6518,-0.6511,-0.6535,-0.6563,-0.6637,-0.6697,-0.6599,-0.6718,-0.6898,-0.6979,-0.6936,-0.6921,-0.6936,-0.6774,-0.6522,-0.6417,-0.6325,-0.5918,-0.5545,-3.274,-3.241,-3.2073,-3.1763,-3.1424,-3.0792,-3.0585,-3.0754,-3.1207,-3.0577,-2.9204,-2.8724,-2.8637,-2.854,-2.8008,-2.7824,-2.7789,-2.7255,-2.6943,-2.6577,-2.6176,-2.584,-2.563,-2.5147,-2.4801,-2.4502,-2.397,-2.3383,-2.3075,-2.2777,-2.2402,-2.1959,-2.1721,-2.1502,-2.1282,-2.1061,-2.0819,-2.0586,-2.0186,-1.9794,-1.9399,-1.9082,-1.8692,-1.8531,-1.7959,-1.7535,-1.6982,-1.6268,-1.5529,-1.4881,-1.432,-1.3726,-1.3176,-1.3012,-1.2947,-1.2675,-1.2956,-1.2973,-1.2889,-1.2893,-1.2672,-1.2364,-1.2144,-1.2003,-1.1681,-1.1199,-1.0899,-1.0807,-1.0381,-1.0079,-0.9873,-0.9544,-0.916,-0.8699,-0.8268,-0.7999,-0.7702,-0.7415,-0.7103,-0.6945,-0.671,-0.656,-0.6486,-0.6412,-0.6338,-0.6338,-0.6335,-0.6335,-0.6335,-0.6335,-0.6335,-0.6335,-0.6335,-0.6335,-0.6335,-0.6338,-0.6496,-0.6438,-0.6482,-0.6531,-0.6559,-0.6627,-0.6509,-0.643,-0.6414,-0.6503,-0.6605,-0.6843,-0.6983,-0.6757,-0.645,-0.6204,-0.5948,-0.5589,-0.5234,-3.1429,-3.1134,-3.1163,-3.1058,-3.0709,-3.0212,-3.0007,-3.0083,-3.0162,-2.9404,-2.8196,-2.774,-2.7785,-2.7781,-2.7501,-2.738,-2.7761,-2.7128,-2.6976,-2.6688,-2.6327,-2.5923,-2.563,-2.5218,-2.4729,-2.4502,-2.3897,-2.3298,-2.2863,-2.2478,-2.2176,-2.1731,-2.1502,-2.1272,-2.1051,-2.0819,-2.0586,-2.0177,-1.9794,-1.9399,-1.9082,-1.8683,-1.8442,-1.8121,-1.7674,-1.7138,-1.6705,-1.5896,-1.5088,-1.4531,-1.3918,-1.3382,-1.2987,-1.2847,-1.2714,-1.2452,-1.2592,-1.2576,-1.253,-1.253,-1.2465,-1.2131,-1.1807,-1.142,-1.1143,-1.0659,-1.0318,-1.0408,-1.0014,-0.9739,-0.9543,-0.9199,-0.8723,-0.8338,-0.8053,-0.7819,-0.7639,-0.7239,-0.6973,-0.6868,-0.6714,-0.649,-0.6335,-0.6335,-0.6261,-0.6261,-0.6261,-0.6254,-0.6247,-0.6237,-0.6237,-0.6234,-0.624,-0.6247,-0.6261,-0.6285,-0.6363,-0.6447,-0.6495,-0.6593,-0.6629,-0.6602,-0.6466,-0.6285,-0.6108,-0.6166,-0.6401,-0.6756,-0.7028,-0.658,-0.6175,-0.5823,-0.551,-0.5162,-0.4911,-3.0136,-2.9894,-3.0815,-3.0979,-3.0666,-2.9704,-2.9535,-2.9667,-2.8296,-2.7527,-2.7032,-2.7071,-2.7176,-2.7244,-2.6904,-2.6881,-2.7203,-2.6466,-2.6552,-2.6536,-2.6327,-2.5931,-2.5606,-2.5218,-2.4646,-2.4418,-2.3886,-2.3298,-2.2777,-2.2478,-2.2025,-2.1589,-2.1359,-2.1051,-2.0731,-2.043,-2.0029,-1.9706,-1.939,-1.9082,-1.8763,-1.8362,-1.8121,-1.7878,-1.744,-1.6887,-1.6301,-1.5553,-1.479,-1.4306,-1.3719,-1.3207,-1.29,-1.2673,-1.2519,-1.2331,-1.2123,-1.2107,-1.2107,-1.2123,-1.1959,-1.1566,-1.116,-1.0783,-1.052,-1.0295,-0.9985,-0.9749,-0.9509,-0.9211,-0.8872,-0.8426,-0.8231,-0.7893,-0.7719,-0.7461,-0.7286,-0.6935,-0.6765,-0.682,-0.6601,-0.6315,-0.6225,-0.6125,-0.6227,-0.6237,-0.6196,-0.6186,-0.6186,-0.6179,-0.619,-0.6196,-0.6287,-0.6304,-0.6257,-0.6312,-0.639,-0.6519,-0.6617,-0.6742,-0.68,-0.6662,-0.6417,-0.6285,-0.6124,-0.6192,-0.6119,-0.6257,-0.6291,-0.6138,-0.5869,-0.5381,-0.5004,-0.4577,-0.4336,-3.0017,-2.9802,-3.0048,-2.9943,-2.9543,-2.8938,-2.8717,-2.861,-2.7654,-2.6929,-2.6479,-2.6441,-2.6496,-2.6613,-2.6458,-2.6385,-2.6525,-2.5998,-2.6116,-2.6041,-2.5815,-2.5672,-2.5472,-2.5182,-2.4646,-2.4261,-2.3813,-2.3224,-2.2563,-2.2402,-2.1959,-2.1512,-2.1205,-2.0896,-2.0498,-2.0029,-1.9636,-1.9381,-1.9143,-1.8843,-1.8362,-1.8121,-1.7878,-1.7554,-1.7139,-1.6581,-1.5975,-1.5234,-1.4531,-1.394,-1.3418,-1.3068,-1.2753,-1.2519,-1.2298,-1.2157,-1.1929,-1.1781,-1.1656,-1.1633,-1.1403,-1.0974,-1.0602,-1.0315,-0.9984,-0.9708,-0.953,-0.9328,-0.9002,-0.8684,-0.8569,-0.8231,-0.7966,-0.7597,-0.7308,-0.7115,-0.6869,-0.6611,-0.6449,-0.6481,-0.63,-0.6019,-0.5949,-0.5956,-0.6095,-0.6287,-0.6162,-0.6118,-0.6101,-0.6074,-0.6067,-0.6061,-0.6064,-0.6039,-0.6069,-0.6268,-0.641,-0.6559,-0.6709,-0.6743,-0.6774,-0.6608,-0.637,-0.6245,-0.6045,-0.5829,-0.5703,-0.5664,-0.5659,-0.567,-0.5378,-0.4964,-0.4513,-0.4068,-0.384,-3.0044,-2.981,-2.9592,-2.9245,-2.8826,-2.8493,-2.8247,-2.7946,-2.7542,-2.6951,-2.6272,-2.6054,-2.5993,-2.6076,-2.5944,-2.5896,-2.5847,-2.5589,-2.5613,-2.5445,-2.5303,-2.5185,-2.5229,-2.492,-2.4364,-2.4047,-2.374,-2.3224,-2.2478,-2.2327,-2.1883,-2.1436,-2.1138,-2.0741,-2.0186,-1.9724,-1.932,-1.9152,-1.8913,-1.8514,-1.8031,-1.7789,-1.7546,-1.7188,-1.67,-1.6038,-1.5436,-1.4796,-1.417,-1.3541,-1.3053,-1.2826,-1.2526,-1.2298,-1.2077,-1.1929,-1.1706,-1.1558,-1.1329,-1.1002,-1.067,-1.006,-0.9864,-0.9649,-0.944,-0.912,-0.8896,-0.8842,-0.8498,-0.8228,-0.8132,-0.778,-0.7486,-0.7108,-0.6911,-0.6729,-0.6612,-0.6384,-0.6222,-0.6212,-0.5967,-0.5837,-0.5771,-0.5791,-0.5835,-0.602,-0.6,-0.5962,-0.5952,-0.5925,-0.5815,-0.5805,-0.5729,-0.5792,-0.5864,-0.5996,-0.6188,-0.6377,-0.6523,-0.6655,-0.6599,-0.6418,-0.6237,-0.6002,-0.5723,-0.5475,-0.536,-0.5307,-0.5307,-0.5238,-0.4925,-0.4435,-0.4095,-0.3588,-0.3333,-3.0038,-2.9973,-2.9572,-2.918,-2.8732,-2.8525,-2.8247,-2.7946,-2.7637,-2.7076,-2.6326,-2.6037,-2.5755,-2.5564,-2.5464,-2.5409,-2.5289,-2.4975,-2.4968,-2.5078,-2.4638,-2.4566,-2.4534,-2.4339,-2.3956,-2.3868,-2.3526,-2.3029,-2.2402,-2.2176,-2.1731,-2.1282,-2.0896,-2.0498,-1.9942,-1.9311,-1.8922,-1.8772,-1.8523,-1.8193,-1.7781,-1.7546,-1.7139,-1.6668,-1.6179,-1.5533,-1.4802,-1.4325,-1.3654,-1.3051,-1.2606,-1.2452,-1.2231,-1.1929,-1.1781,-1.1713,-1.1484,-1.1248,-1.1045,-1.0462,-0.9834,-0.9311,-0.9151,-0.8925,-0.8647,-0.8408,-0.8234,-0.822,-0.7866,-0.763,-0.7377,-0.7113,-0.695,-0.6768,-0.6518,-0.634,-0.6234,-0.6138,-0.5978,-0.5794,-0.5803,-0.5786,-0.5714,-0.5643,-0.563,-0.5656,-0.5806,-0.5803,-0.5731,-0.5603,-0.548,-0.5473,-0.5403,-0.5522,-0.5568,-0.5774,-0.5962,-0.6222,-0.6328,-0.6447,-0.6398,-0.6147,-0.5957,-0.5748,-0.551,-0.5201,-0.5078,-0.4863,-0.476,-0.4564,-0.4276,-0.3889,-0.3493,-0.3221,-0.2982,-2.8845,-2.8666,-2.8307,-2.7949,-2.7753,-2.8201,-2.8266,-2.792,-2.7342,-2.6759,-2.6297,-2.6023,-2.5727,-2.5508,-2.5257,-2.5084,-2.4829,-2.4426,-2.4352,-2.4568,-2.4065,-2.4038,-2.4014,-2.3736,-2.341,-2.3273,-2.305,-2.2791,-2.2413,-2.2048,-2.1634,-2.1205,-2.0576,-2.0186,-1.9794,-1.932,-1.8931,-1.8692,-1.8362,-1.7959,-1.7554,-1.7123,-1.6692,-1.6147,-1.5583,-1.4949,-1.4201,-1.3784,-1.3262,-1.264,-1.2298,-1.2157,-1.1935,-1.1632,-1.1484,-1.1409,-1.1174,-1.0704,-1.0208,-0.9589,-0.9212,-0.8821,-0.8576,-0.8447,-0.8182,-0.7987,-0.7792,-0.7657,-0.7396,-0.7265,-0.7082,-0.6758,-0.6577,-0.644,-0.625,-0.5984,-0.5829,-0.5762,-0.5649,-0.5454,-0.5365,-0.5261,-0.5205,-0.5253,-0.5259,-0.5196,-0.5275,-0.5367,-0.537,-0.5133,-0.4996,-0.4999,-0.5024,-0.5163,-0.5267,-0.546,-0.5729,-0.5904,-0.6012,-0.6136,-0.6053,-0.5906,-0.567,-0.5419,-0.5175,-0.5012,-0.4625,-0.4326,-0.411,-0.3832,-0.3673,-0.3512,-0.3238,-0.2984,-0.2746,-2.8184,-2.797,-2.7623,-2.7316,-2.7103,-2.7473,-2.7697,-2.7674,-2.7119,-2.6622,-2.6254,-2.5955,-2.5658,-2.5439,-2.5244,-2.4892,-2.4492,-2.4138,-2.3718,-2.391,-2.3455,-2.3423,-2.3328,-2.3112,-2.2844,-2.2682,-2.2428,-2.2154,-2.1849,-2.1551,-2.1187,-2.0769,-2.0235,-1.9828,-1.9427,-1.9034,-1.8851,-1.8531,-1.8193,-1.7705,-1.7227,-1.6806,-1.6277,-1.5612,-1.499,-1.4377,-1.3834,-1.3325,-1.2818,-1.2351,-1.2077,-1.1935,-1.1632,-1.1416,-1.126,-1.1111,-1.0777,-1.0256,-0.9652,-0.9244,-0.8843,-0.8249,-0.8197,-0.8052,-0.7852,-0.7661,-0.74,-0.7204,-0.7073,-0.6876,-0.6679,-0.635,-0.6218,-0.6152,-0.5954,-0.5693,-0.5561,-0.5502,-0.5302,-0.5096,-0.4964,-0.4897,-0.4761,-0.4776,-0.4818,-0.4763,-0.4704,-0.4869,-0.4968,-0.4827,-0.4764,-0.4709,-0.4769,-0.4923,-0.5023,-0.5147,-0.5386,-0.5662,-0.569,-0.5797,-0.5722,-0.5577,-0.53,-0.5083,-0.4887,-0.461,-0.4094,-0.3814,-0.3644,-0.3474,-0.3312,-0.3149,-0.2982,-0.2746,-0.251,-2.8102,-2.7905,-2.7599,-2.7189,-2.6867,-2.6419,-2.6718,-2.744,-2.7001,-2.6572,-2.6144,-2.565,-2.5464,-2.5398,-2.509,-2.4721,-2.4319,-2.3995,-2.362,-2.3213,-2.2948,-2.2819,-2.2619,-2.2439,-2.2281,-2.2083,-2.186,-2.1507,-2.1044,-2.0834,-2.0637,-2.0188,-1.9841,-1.9313,-1.8939,-1.8623,-1.8452,-1.818,-1.7766,-1.7163,-1.6714,-1.6348,-1.5756,-1.5033,-1.4392,-1.3849,-1.3318,-1.2858,-1.2446,-1.2077,-1.1781,-1.1626,-1.1409,-1.1192,-1.1037,-1.0738,-1.0438,-0.9935,-0.9384,-0.9087,-0.8554,-0.7941,-0.7736,-0.7591,-0.7461,-0.7269,-0.7003,-0.6811,-0.6613,-0.6412,-0.6214,-0.602,-0.5892,-0.576,-0.5561,-0.5362,-0.5296,-0.5163,-0.4964,-0.4827,-0.4764,-0.4697,-0.4631,-0.4564,-0.4564,-0.4509,-0.4532,-0.4599,-0.4686,-0.4748,-0.4637,-0.4582,-0.4591,-0.4649,-0.4809,-0.4969,-0.5089,-0.5291,-0.5342,-0.5414,-0.5328,-0.5213,-0.4938,-0.4711,-0.4499,-0.4162,-0.3866,-0.3471,-0.3226,-0.3061,-0.3059,-0.2981,-0.2904,-0.251,-0.2273,-2.6836,-2.6578,-2.6259,-2.591,-2.5526,-2.508,-2.5349,-2.6123,-2.6516,-2.6184,-2.504,-2.5393,-2.5017,-2.4682,-2.4815,-2.4483,-2.4131,-2.3747,-2.345,-2.303,-2.2616,-2.2356,-2.2064,-2.1777,-2.1601,-2.1453,-2.1158,-2.0924,-2.0804,-2.0483,-1.9776,-1.9238,-1.9175,-1.8723,-1.8233,-1.7881,-1.7687,-1.7424,-1.6968,-1.6608,-1.6121,-1.5685,-1.5081,-1.4448,-1.386,-1.3325,-1.2905,-1.2452,-1.2077,-1.1855,-1.1632,-1.1409,-1.1186,-1.1111,-1.0962,-1.0588,-1.0318,-0.9944,-0.9253,-0.8936,-0.8457,-0.7697,-0.74,-0.7335,-0.7204,-0.6942,-0.6613,-0.6416,-0.6218,-0.6083,-0.5885,-0.5756,-0.5561,-0.5428,-0.5226,-0.5093,-0.496,-0.4894,-0.4694,-0.4628,-0.4631,-0.4567,-0.4431,-0.4434,-0.4434,-0.4367,-0.4303,-0.4367,-0.4434,-0.45,-0.4503,-0.4445,-0.4557,-0.4618,-0.4718,-0.4861,-0.4817,-0.4916,-0.4972,-0.5004,-0.4815,-0.4714,-0.4545,-0.4307,-0.4073,-0.3839,-0.3606,-0.3294,-0.2902,-0.2904,-0.2824,-0.2824,-0.2746,-0.2353,-0.2118,-2.5861,-2.5595,-2.5603,-2.5301,-2.4806,-2.4456,-2.4622,-2.5017,-2.5176,-2.4626,-2.3851,-2.3886,-2.4014,-2.3998,-2.3932,-2.3824,-2.3618,-2.3186,-2.2921,-2.2726,-2.2334,-2.2011,-2.1612,-2.1308,-2.1096,-2.083,-2.0532,-2.0272,-2.0142,-1.9728,-1.9082,-1.8813,-1.8609,-1.8046,-1.7557,-1.7151,-1.6733,-1.6487,-1.6171,-1.5935,-1.5531,-1.5087,-1.4509,-1.3872,-1.3433,-1.2987,-1.2633,-1.2231,-1.1929,-1.1706,-1.1484,-1.1335,-1.1111,-1.0962,-1.0738,-1.0346,-1.0005,-0.951,-0.8988,-0.8483,-0.7981,-0.7503,-0.7134,-0.7007,-0.6811,-0.6618,-0.6416,-0.6152,-0.5954,-0.5752,-0.5554,-0.5422,-0.5292,-0.516,-0.496,-0.4758,-0.4694,-0.4628,-0.4561,-0.4498,-0.4431,-0.4367,-0.4303,-0.4303,-0.4303,-0.4303,-0.4303,-0.4303,-0.4367,-0.4367,-0.4367,-0.4372,-0.4513,-0.466,-0.4681,-0.4776,-0.4754,-0.4761,-0.4779,-0.4719,-0.4462,-0.4384,-0.4307,-0.3997,-0.3606,-0.345,-0.3214,-0.2901,-0.2588,-0.2589,-0.2589,-0.2511,-0.2433,-0.2276,-0.1963,-2.5062,-2.4855,-2.5224,-2.4898,-2.4489,-2.4261,-2.4192,-2.3934,-2.345,-2.2814,-2.2595,-2.2079,-2.2525,-2.3092,-2.3138,-2.2997,-2.2829,-2.2534,-2.2359,-2.2335,-2.1993,-2.1646,-2.14,-2.1117,-2.0778,-2.027,-1.9845,-1.9607,-1.9116,-1.8745,-1.8627,-1.8578,-1.8128,-1.7579,-1.6918,-1.6602,-1.6135,-1.5599,-1.561,-1.5573,-1.5099,-1.47,-1.4171,-1.3499,-1.3155,-1.2753,-1.2532,-1.2231,-1.1929,-1.1706,-1.1484,-1.126,-1.1037,-1.0738,-1.0443,-1.0049,-0.969,-0.915,-0.8704,-0.8181,-0.7716,-0.7286,-0.6872,-0.6675,-0.6482,-0.6354,-0.6156,-0.5954,-0.5686,-0.5488,-0.5355,-0.5156,-0.5024,-0.4894,-0.4694,-0.4561,-0.4498,-0.4498,-0.4434,-0.4367,-0.4367,-0.4303,-0.4303,-0.4303,-0.4303,-0.4303,-0.4303,-0.4303,-0.4303,-0.4303,-0.43,-0.4311,-0.4477,-0.469,-0.4692,-0.4723,-0.4788,-0.4779,-0.4623,-0.4387,-0.4151,-0.4073,-0.4151,-0.3839,-0.345,-0.3059,-0.2744,-0.251,-0.2353,-0.2276,-0.2198,-0.2198,-0.2119,-0.1963,-0.1885,-2.4363,-2.4166,-2.3797,-2.3391,-2.321,-2.3838,-2.4087,-2.3941,-2.3245,-2.2661,-2.2278,-2.1986,-2.1988,-2.2342,-2.2498,-2.2415,-2.2108,-2.1819,-2.17,-2.1595,-2.144,-2.1167,-2.1055,-2.0651,-2.0386,-2.0042,-1.9594,-1.8942,-1.8454,-1.8154,-1.7858,-1.7422,-1.7195,-1.6857,-1.6217,-1.5985,-1.5551,-1.5023,-1.488,-1.4909,-1.4491,-1.4129,-1.3689,-1.3193,-1.2893,-1.2599,-1.2298,-1.1929,-1.1706,-1.1484,-1.126,-1.1037,-1.0887,-1.0513,-1.0118,-0.9759,-0.9343,-0.8882,-0.8379,-0.7864,-0.7453,-0.7012,-0.6679,-0.6478,-0.628,-0.6086,-0.5954,-0.5686,-0.5488,-0.5289,-0.509,-0.4888,-0.4691,-0.4628,-0.4498,-0.4434,-0.4367,-0.4367,-0.4303,-0.4303,-0.4303,-0.4303,-0.4303,-0.43,-0.4303,-0.4303,-0.4303,-0.4303,-0.4233,-0.4233,-0.4233,-0.4271,-0.4518,-0.4648,-0.4708,-0.4667,-0.4655,-0.4545,-0.4389,-0.4153,-0.3839,-0.3761,-0.3763,-0.3604,-0.3292,-0.2824,-0.2511,-0.2354,-0.2198,-0.2042,-0.1963,-0.1963,-0.1885,-0.1807,-0.1729,-2.3677,-2.3472,-2.3162,-2.2864,-2.268,-2.2848,-2.3293,-2.3769,-2.3218,-2.2556,-2.2027,-2.1766,-2.1667,-2.1699,-2.1821,-2.1838,-2.1434,-2.1104,-2.1075,-2.0991,-2.0748,-2.0447,-2.0273,-2.0106,-1.9746,-1.9415,-1.8926,-1.8347,-1.7949,-1.7608,-1.7204,-1.6802,-1.6603,-1.6175,-1.57,-1.5497,-1.5117,-1.4792,-1.433,-1.4034,-1.3818,-1.3622,-1.3419,-1.3046,-1.2673,-1.2372,-1.2077,-1.1706,-1.1484,-1.1186,-1.0887,-1.049,-1.0228,-0.9955,-0.9547,-0.916,-0.8715,-0.8434,-0.7957,-0.7548,-0.7136,-0.6717,-0.6482,-0.6214,-0.5947,-0.5818,-0.5818,-0.555,-0.5355,-0.5153,-0.4957,-0.4758,-0.4628,-0.4498,-0.4434,-0.4367,-0.4367,-0.43,-0.4303,-0.4303,-0.4233,-0.4164,-0.4097,-0.403,-0.403,-0.403,-0.4097,-0.4097,-0.4097,-0.4164,-0.4097,-0.4222,-0.4458,-0.456,-0.4463,-0.4515,-0.4598,-0.4387,-0.4155,-0.3919,-0.3682,-0.345,-0.3294,-0.3215,-0.2981,-0.2668,-0.2354,-0.2119,-0.1963,-0.1807,-0.1807,-0.1808,-0.1651,-0.1573,-0.1493,-2.2956,-2.2732,-2.271,-2.258,-2.2269,-2.1683,-2.214,-2.3154,-2.2899,-2.2131,-2.1245,-2.1043,-2.1104,-2.1099,-2.0934,-2.09,-2.0743,-2.042,-2.0398,-2.0346,-2.0121,-1.9864,-1.9629,-1.9371,-1.8994,-1.852,-1.8011,-1.7789,-1.7542,-1.7071,-1.6665,-1.6528,-1.6131,-1.5564,-1.5371,-1.4923,-1.4403,-1.4089,-1.3734,-1.3452,-1.3375,-1.3382,-1.3112,-1.282,-1.2445,-1.215,-1.1855,-1.1514,-1.1218,-1.0861,-1.0438,-0.9946,-0.965,-0.9363,-0.8939,-0.8503,-0.8082,-0.7756,-0.7423,-0.6968,-0.6651,-0.6346,-0.6214,-0.5951,-0.5617,-0.5484,-0.5484,-0.5352,-0.5087,-0.4957,-0.4758,-0.4628,-0.4431,-0.4367,-0.43,-0.4233,-0.4233,-0.4233,-0.4233,-0.4233,-0.4097,-0.3964,-0.3961,-0.3828,-0.3825,-0.3825,-0.3825,-0.3825,-0.3828,-0.3894,-0.3961,-0.4036,-0.4237,-0.4313,-0.4295,-0.4378,-0.4387,-0.4233,-0.4077,-0.3841,-0.3526,-0.3294,-0.3059,-0.2902,-0.2668,-0.2433,-0.212,-0.1886,-0.173,-0.1573,-0.1573,-0.1573,-0.1336,-0.1258,-0.1336,-2.2161,-2.1676,-2.1536,-2.1254,-2.0976,-2.1111,-2.1076,-2.0923,-2.1469,-2.0669,-1.9524,-1.9632,-2.0086,-2.1006,-2.0759,-2.0577,-2.027,-1.9877,-1.9709,-1.963,-1.9465,-1.9275,-1.9044,-1.8687,-1.8194,-1.7716,-1.7298,-1.6899,-1.6806,-1.6262,-1.5833,-1.5557,-1.5256,-1.4714,-1.4312,-1.3922,-1.3705,-1.3393,-1.3033,-1.2694,-1.253,-1.2543,-1.2638,-1.2372,-1.215,-1.1774,-1.136,-1.1046,-1.0761,-1.0309,-0.984,-0.9378,-0.9095,-0.8771,-0.8369,-0.7955,-0.755,-0.7211,-0.691,-0.6515,-0.6214,-0.602,-0.5818,-0.5488,-0.5223,-0.5093,-0.5024,-0.4891,-0.4691,-0.4691,-0.4561,-0.4431,-0.4233,-0.4233,-0.4167,-0.4097,-0.4097,-0.403,-0.3961,-0.3961,-0.3894,-0.3825,-0.3825,-0.3758,-0.3692,-0.3692,-0.3692,-0.3692,-0.3625,-0.3692,-0.3758,-0.3844,-0.4012,-0.4163,-0.423,-0.418,-0.4233,-0.4077,-0.3843,-0.3528,-0.3215,-0.3059,-0.2824,-0.2591,-0.2512,-0.2277,-0.1964,-0.1651,-0.1573,-0.1493,-0.1415,-0.1336,-0.11,-0.0864,-0.0943]},{"header":{"parameterUnit":"m.s-1","parameterCategory":1,"la1":31.0,"la2":29.5877,"lo1":-88.7671,"lo2":-86.6584,"dy":0.0162,"dx":0.0185,"nx":115,"ny":88,"refTime":"2023-07-29T12:00:00:Z","depth":0,"parameterNumber":3,"parameterNumberName":"V-component_of_WINDS"},"data":[0.0,0.0,0.0,0.0,0.0,0.0,0.0,0.0,0.0,0.0,0.0,0.0,0.0,0.0,0.0,0.0,0.0,0.0,0.0,0.0,0.0,0.0,0.0,0.0,0.0,0.0,0.0,0.0,0.0,0.0,0.0,0.0,0.0,0.0,0.0,0.0,0.0,0.0,0.0,0.0,0.0,0.0,0.0,0.0,0.0,0.0,0.0,0.0,0.0,0.0,0.0,0.0,0.0,0.0,0.0,0.0,0.0,0.0,0.0,0.0,0.0,0.0,0.0,0.0,0.0,0.0,0.0,0.0,0.0,0.0,0.0,0.0,0.0,0.0,0.0,0.0,0.0,0.0,0.0,0.0,0.0,0.0,0.0,0.0,0.0,0.0,0.0,0.0,0.0,0.0,0.0,0.0,0.0,0.0,0.0,0.0,0.0,0.0,0.0,0.0,0.0,0.0,0.0,0.0,0.0,0.0,0.0,0.0,0.0,0.0,0.0,0.0,0.0,0.0,0.0,0.0,0.0,0.0,0.0,0.0,0.0,0.0,0.0,0.0,0.0,0.0,0.0,0.0,0.0,0.0,0.0,0.0,0.0,0.0,0.0,0.0,0.0,0.0,0.0,0.0,0.0,0.0,0.0,0.0,0.0,0.0,0.0,0.0,0.0,0.0,0.0,0.0,0.0,0.0,0.0,0.0,0.0,0.0,0.0,0.0,0.0,0.0,0.0,0.0,0.0,0.0,0.0,0.0,0.0,0.0,0.0,0.0,0.0,0.0,0.0,0.0,0.0,0.0,0.0,0.0,0.0,0.0,0.0,0.0,0.0,0.0,0.0,0.0,0.0,0.0,0.0,0.0,0.0,0.0,0.0,0.0,0.0,0.0,0.0,0.0,0.0,0.0,0.0,0.0,0.0,0.0,0.0,0.0,0.0,0.0,0.0,0.0,0.0,0.0,0.0,0.0,0.0,0.0,0.0,0.0,0.0,0.0,0.0,0.0,0.0,0.0,0.0,0.0,0.0,0.0,0.0,0.0,0.0,0.0,0.0,0.0,0.0,0.0,0.0,0.0,0.0,0.0,0.0,0.0,0.0,0.0,0.0,0.0,0.0,0.0,0.0,0.0,0.0,0.0,0.0,0.0,0.0,0.0,0.0,0.0,0.0,0.0,0.0,0.0,0.0,0.0,0.0,0.0,0.0,0.0,0.0,0.0,0.0,0.0,0.0,0.0,0.0,0.0,0.0,0.0,0.0,0.0,0.0,0.0,0.0,0.0,0.0,0.0,0.0,0.0,0.0,0.0,0.0,0.0,0.0,0.0,0.0,0.0,0.0,0.0,0.0,0.0,0.0,0.0,0.0,0.0,0.0,0.0,0.0,0.0,0.0,0.0,0.0,0.0,0.0,0.0,0.0,0.0,0.0,0.0,0.0,0.0,0.0,0.0,0.0,0.0,0.0,0.0,0.0,0.0,0.0,0.0,0.0,0.0,0.0,0.0,0.0,0.0,0.0,0.0,0.0,0.0,0.0,0.0,0.0,0.0,0.0,0.0,0.0,0.0,0.0,0.0,0.0,0.0,0.0,0.0,0.0,0.0,0.0,0.0,0.0,0.0,0.0,0.0,0.0,0.0,0.0,0.0,0.0,0.0,0.0,0.0,0.0,0.0,0.0,0.0,0.0,0.0,0.0,0.0,0.0,0.0,0.0,0.0,0.0,0.0,0.0,0.0,0.0,0.0,0.0,0.0,0.0,0.0,0.0,0.0,0.0,0.0,0.0,0.0,0.0,0.0,0.0,0.0,0.0,0.0,0.0,0.0,0.0,0.0,0.0,0.0,0.0,0.0,0.0,0.0,0.0,0.0,0.0,0.0,0.0,0.0,0.0,0.0,0.0,0.0,0.0,0.0,0.0,0.0,0.0,0.0,0.0,0.0,0.0,0.0,0.0,0.0,0.0,0.0,0.0,0.0,0.0,0.0,0.0,0.0,0.0,0.0,0.0,0.0,0.0,0.0,0.0,0.0,0.0,0.0,0.0,0.0,0.0,0.0,0.0,0.0,0.0,0.0,0.0,0.0,0.0,0.0,0.0,0.0,0.0,0.0,0.0,0.0,0.0,0.0,0.0,0.0,0.0,0.0,0.0,0.0,0.0,0.0,0.0,0.0,0.0,0.0,0.0,0.0,0.0,0.0,0.0,0.0,0.0,0.0,0.0,0.0,0.0,0.0,0.0,0.0,0.0,0.0,0.0,0.0,0.0,0.0,0.0,0.0,0.0,0.0,0.0,0.0,0.0,0.0,0.0,0.0,0.0,0.0,0.0,0.0,0.0,0.0,0.0,0.0,0.0,0.0,0.0,0.0,0.0,0.0,0.0,0.0,0.0,0.0,0.0,0.0,0.0,0.0,0.0,0.0,0.0,0.0,0.0,0.0,0.0,0.0,0.0,0.0,0.0,0.0,0.0,0.0,0.0,0.0,0.0,0.0,0.0,0.0,0.0,0.0,0.0,0.0,0.0,0.0,0.0,0.0,0.0,0.0,0.0,0.0,0.0,0.0,0.0,0.0,0.0,0.0,0.0,0.0,0.0,0.0,0.0,0.0,0.0,0.0,0.0,0.0,0.0,0.0,0.0,0.0,0.0,0.0,0.0,0.0,0.0,0.0,0.0,0.0,0.0,0.0,0.0,0.0,0.0,0.0,0.0,0.0,0.0,0.0,0.0,0.0,0.0,0.0,0.0,0.0,0.0,0.0,0.0,0.0,0.0,0.0,0.0,0.0,0.0,0.0,0.0,0.0,0.0,0.0,0.0,0.0,0.0,0.0,0.0,0.0,0.0,0.0,0.0,0.0,0.0,0.0,0.0,0.0,0.0,0.0,0.0,0.0,0.0,0.0,0.0,0.0,0.0,0.0,0.0,0.0,0.0,0.0,0.0,0.0,0.0,0.0,0.0,0.0,0.0,0.0,0.0,0.0,0.0,0.0,0.0,0.0,0.0,0.0,0.0,0.0,0.0,0.0,0.0,0.0,0.0,0.0,0.0,0.0,0.0,0.0,0.0,0.0,0.0,0.0,0.0,0.0,0.0,0.0,0.0,0.0,0.0,0.0,0.0,0.0,0.0,0.0,0.0,0.0,0.0,0.0,0.0,0.0,0.0,0.0,0.0,0.0,0.0,0.0,0.0,0.0,0.0,0.0,0.0,0.0,0.0,0.0,0.0,0.0,0.0,0.0,0.0,0.0,0.0,0.0,0.0,0.0,0.0,0.0,0.0,0.0,0.0,0.0,0.0,0.0,0.0,0.0,0.0,0.0,0.0,0.0,0.0,0.0,0.0,0.0,0.0,0.0,0.0,0.0,0.0,0.0,0.0,0.0,0.0,0.0,0.0,0.0,0.0,0.0,0.0,0.0,0.0,0.0,0.0,0.0,0.0,0.0,0.0,0.0,0.0,0.0,0.0,0.0,0.0,0.0,0.0,0.0,0.0,0.0,0.0,0.0,0.0,0.0,0.0,0.0,0.0,0.0,0.0,0.0,0.0,0.0,0.0,0.0,0.0,0.0,0.0,0.0,0.0,0.0,0.0,0.0,0.0,0.0,0.0,0.0,0.0,0.0,0.0,0.0,0.0,0.0,0.0,0.0,0.0,0.0,0.0,0.0,0.0,0.0,0.0,0.0,0.0,0.0,0.0,0.0,0.0,0.0,0.0,0.0,0.0,0.0,0.0,0.0,0.0,0.0,0.0,0.0,0.0,0.0,0.0,0.0,0.0,0.0,0.0,0.0,0.0,0.0,0.0,0.0,0.0,0.0,0.0,0.0,0.0,0.0,0.0,0.0,0.0,0.0,0.0,0.0,0.0,0.0,0.0,0.0,0.0,0.0,0.0,0.0,0.0,0.0,0.0,0.0,0.0,0.0,0.0,0.0,0.0,0.0,0.0,0.0,0.0,0.0,0.0,0.0,0.0,0.0,0.0,0.0,0.0,0.0,0.0,0.0,0.0,0.0,0.0,0.0,0.0,0.0,0.0,0.0,0.0,0.0,0.0,0.0,0.0,0.0,0.0,0.0,0.0,0.0,0.0,0.0,0.0,0.0,0.0,0.0,0.0,0.0,0.0,0.0,0.0,0.0,0.0,0.0,0.0,0.0,0.0,0.0,0.0,0.0,0.0,0.0,0.0,0.0,0.0,0.0,0.0,0.0,0.0,0.0,0.0,0.0,0.0,0.0,0.0,0.0,0.0,0.0,0.0,0.0,0.0,0.0,0.0,0.0,0.0,0.0,0.0,0.0,0.0,0.0,-1.9104,0.0,0.0,0.0,0.0,0.0,0.0,0.0,0.0,0.0,0.0,0.0,0.0,0.0,0.0,0.0,0.0,0.0,0.0,0.0,0.0,0.0,0.0,0.0,0.0,0.0,0.0,0.0,0.0,0.0,0.0,0.0,0.0,0.0,0.0,0.0,0.0,0.0,0.0,0.0,0.0,0.0,0.0,0.0,0.0,0.0,0.0,0.0,0.0,0.0,0.0,0.0,0.0,0.0,0.0,0.0,0.0,0.0,0.0,0.0,0.0,0.0,0.0,0.0,0.0,0.0,0.0,0.0,0.0,0.0,0.0,0.0,0.0,0.0,0.0,0.0,0.0,0.0,0.0,0.0,0.0,0.0,0.0,0.0,0.0,0.0,0.0,0.0,0.0,0.0,0.0,0.0,0.0,0.0,0.0,0.0,0.0,0.0,0.0,0.0,0.0,0.0,0.0,0.0,0.0,0.0,0.0,0.0,0.0,0.0,0.0,-2.207,-2.143,-2.1319,-2.0863,-1.9935,0.0,0.0,0.0,0.0,0.0,0.0,0.0,0.0,0.0,0.0,0.0,0.0,0.0,0.0,0.0,0.0,0.0,0.0,0.0,0.0,0.0,0.0,0.0,0.0,0.0,0.0,0.0,0.0,0.0,0.0,0.0,0.0,0.0,0.0,0.0,0.0,0.0,0.0,0.0,0.0,0.0,0.0,0.0,0.0,0.0,0.0,0.0,0.0,0.0,0.0,0.0,0.0,0.0,0.0,0.0,0.0,0.0,0.0,0.0,0.0,0.0,0.0,0.0,0.0,0.0,0.0,0.0,0.0,0.0,0.0,0.0,0.0,0.0,0.0,0.0,0.0,0.0,0.0,0.0,0.0,0.0,0.0,0.0,0.0,0.0,0.0,0.0,0.0,0.0,0.0,0.0,0.0,0.0,0.0,0.0,0.0,0.0,0.0,0.0,0.0,0.0,0.0,0.0,0.0,0.0,0.0,0.0,0.0,0.0,0.0,0.0,0.0,-2.2206,-2.1575,-2.0622,0.0,0.0,0.0,0.0,0.0,0.0,0.0,0.0,0.0,0.0,0.0,0.0,0.0,0.0,0.0,0.0,0.0,0.0,0.0,0.0,0.0,0.0,0.0,0.0,0.0,0.0,0.0,0.0,0.0,0.0,0.0,0.0,0.0,0.0,0.0,0.0,0.0,0.0,0.0,0.0,0.0,0.0,0.0,0.0,0.0,0.0,0.0,0.0,0.0,0.0,0.0,0.0,0.0,0.0,0.0,0.0,0.0,0.0,0.0,0.0,0.0,0.0,0.0,0.0,0.0,0.0,0.0,0.0,0.0,0.0,0.0,0.0,0.0,0.0,0.0,0.0,0.0,0.0,0.0,0.0,0.0,0.0,0.0,0.0,0.0,0.0,0.0,0.0,0.0,0.0,0.0,0.0,0.0,0.0,0.0,0.0,0.0,0.0,0.0,0.0,0.0,0.0,0.0,0.0,0.0,0.0,0.0,0.0,0.0,0.0,-2.4304,-2.3225,-2.2945,0.0,-2.119,0.0,0.0,0.0,0.0,0.0,0.0,0.0,0.0,0.0,0.0,0.0,0.0,0.0,0.0,0.0,0.0,0.0,0.0,0.0,0.0,0.0,0.0,0.0,0.0,0.0,0.0,0.0,0.0,0.0,0.0,0.0,0.0,0.0,0.0,0.0,0.0,0.0,0.0,0.0,0.0,0.0,0.0,0.0,0.0,0.0,0.0,0.0,0.0,0.0,0.0,0.0,0.0,0.0,0.0,0.0,0.0,0.0,0.0,0.0,0.0,0.0,0.0,0.0,0.0,0.0,0.0,0.0,0.0,0.0,0.0,0.0,0.0,0.0,0.0,0.0,0.0,0.0,0.0,0.0,0.0,0.0,0.0,0.0,0.0,0.0,0.0,0.0,0.0,0.0,0.0,0.0,0.0,0.0,0.0,0.0,0.0,0.0,0.0,0.0,0.0,0.0,0.0,0.0,0.0,0.0,0.0,0.0,0.0,0.0,0.0,-2.4545,-2.3902,-2.3167,-2.2506,0.0,0.0,0.0,0.0,0.0,0.0,0.0,0.0,0.0,0.0,0.0,0.0,0.0,0.0,0.0,0.0,0.0,0.0,0.0,0.0,0.0,0.0,0.0,0.0,0.0,0.0,0.0,0.0,0.0,0.0,0.0,0.0,0.0,0.0,0.0,0.0,0.0,0.0,0.0,0.0,0.0,0.0,0.0,0.0,0.0,0.0,0.0,0.0,0.0,0.0,0.0,0.0,0.0,0.0,0.0,0.0,0.0,0.0,0.0,0.0,0.0,0.0,0.0,0.0,0.0,0.0,0.0,0.0,0.0,0.0,0.0,0.0,0.0,0.0,0.0,0.0,0.0,0.0,0.0,0.0,0.0,0.0,0.0,0.0,0.0,0.0,0.0,0.0,0.0,0.0,0.0,0.0,0.0,0.0,0.0,0.0,0.0,0.0,0.0,0.0,0.0,0.0,0.0,0.0,0.0,0.0,0.0,0.0,0.0,0.0,-2.4886,-2.4549,-2.4147,-2.336,-2.281,-2.2625,0.0,0.0,0.0,0.0,0.0,0.0,0.0,0.0,0.0,0.0,0.0,0.0,0.0,0.0,0.0,0.0,0.0,0.0,0.0,0.0,0.0,0.0,0.0,0.0,0.0,0.0,0.0,0.0,0.0,0.0,0.0,0.0,0.0,0.0,0.0,0.0,0.0,0.0,0.0,0.0,0.0,0.0,0.0,0.0,0.0,0.0,0.0,0.0,0.0,0.0,0.0,0.0,0.0,0.0,0.0,0.0,0.0,0.0,0.0,0.0,0.0,0.0,0.0,0.0,0.0,0.0,0.0,0.0,0.0,0.0,0.0,0.0,0.0,0.0,0.0,0.0,0.0,0.0,0.0,0.0,0.0,0.0,0.0,0.0,0.0,0.0,0.0,0.0,0.0,0.0,0.0,0.0,0.0,0.0,0.0,0.0,0.0,0.0,0.0,0.0,0.0,0.0,0.0,0.0,0.0,0.0,0.0,0.0,-2.5091,-2.4806,-2.4385,-2.3855,-2.361,-2.3465,0.0,0.0,0.0,0.0,0.0,0.0,0.0,0.0,0.0,0.0,0.0,0.0,0.0,0.0,0.0,0.0,0.0,0.0,0.0,0.0,0.0,0.0,0.0,0.0,0.0,0.0,0.0,0.0,0.0,0.0,0.0,0.0,0.0,0.0,0.0,0.0,0.0,0.0,0.0,0.0,0.0,0.0,0.0,0.0,0.0,0.0,0.0,0.0,0.0,0.0,0.0,0.0,0.0,0.0,0.0,0.0,0.0,0.0,0.0,0.0,0.0,0.0,0.0,0.0,0.0,0.0,0.0,0.0,0.0,0.0,0.0,0.0,0.0,0.0,0.0,0.0,0.0,0.0,0.0,0.0,0.0,0.0,0.0,0.0,0.0,0.0,0.0,0.0,0.0,0.0,0.0,0.0,0.0,0.0,0.0,0.0,0.0,0.0,0.0,0.0,0.0,0.0,0.0,0.0,0.0,0.0,0.0,0.0,0.0,-2.5045,-2.4953,-2.4777,-2.4445,-2.4283,-2.397,0.0,0.0,0.0,0.0,0.0,0.0,0.0,0.0,0.0,0.0,0.0,0.0,0.0,0.0,0.0,0.0,0.0,0.0,0.0,0.0,0.0,0.0,0.0,0.0,0.0,0.0,0.0,0.0,0.0,0.0,0.0,0.0,0.0,0.0,0.0,0.0,0.0,0.0,0.0,0.0,0.0,0.0,0.0,0.0,0.0,0.0,0.0,0.0,0.0,0.0,0.0,0.0,0.0,0.0,0.0,0.0,0.0,0.0,0.0,0.0,0.0,0.0,0.0,0.0,0.0,0.0,0.0,0.0,0.0,0.0,0.0,0.0,0.0,0.0,0.0,0.0,0.0,0.0,0.0,0.0,0.0,0.0,0.0,0.0,0.0,0.0,0.0,0.0,0.0,0.0,0.0,0.0,0.0,0.0,0.0,0.0,0.0,0.0,0.0,0.0,0.0,0.0,0.0,0.0,0.0,0.0,0.0,0.0,0.0,-2.544,0.0,-2.5243,-2.5047,-2.4641,-2.4238,0.0,0.0,0.0,0.0,0.0,0.0,0.0,0.0,0.0,0.0,0.0,0.0,0.0,0.0,0.0,0.0,0.0,0.0,0.0,0.0,0.0,0.0,0.0,0.0,0.0,0.0,0.0,0.0,0.0,0.0,0.0,0.0,0.0,0.0,0.0,0.0,0.0,0.0,0.0,0.0,0.0,0.0,0.0,0.0,0.0,0.0,0.0,0.0,0.0,0.0,0.0,0.0,0.0,0.0,0.0,0.0,0.0,0.0,0.0,0.0,0.0,0.0,0.0,0.0,0.0,0.0,0.0,0.0,0.0,0.0,0.0,0.0,0.0,0.0,0.0,0.0,0.0,0.0,0.0,0.0,0.0,0.0,0.0,0.0,0.0,0.0,0.0,0.0,0.0,0.0,0.0,0.0,0.0,0.0,0.0,0.0,0.0,0.0,0.0,0.0,0.0,0.0,0.0,0.0,0.0,0.0,0.0,0.0,-2.6346,-2.6303,-2.6016,-2.5768,-2.563,-2.4752,-2.4322,0.0,0.0,0.0,0.0,0.0,0.0,0.0,0.0,0.0,0.0,0.0,0.0,0.0,0.0,0.0,0.0,0.0,0.0,0.0,0.0,0.0,0.0,0.0,0.0,0.0,0.0,0.0,0.0,0.0,0.0,0.0,0.0,0.0,0.0,0.0,0.0,0.0,0.0,0.0,0.0,0.0,0.0,0.0,0.0,0.0,0.0,0.0,0.0,0.0,0.0,0.0,0.0,0.0,0.0,0.0,0.0,0.0,0.0,0.0,0.0,0.0,0.0,0.0,0.0,0.0,0.0,0.0,0.0,0.0,0.0,0.0,0.0,0.0,0.0,0.0,0.0,0.0,0.0,0.0,0.0,0.0,0.0,0.0,0.0,0.0,0.0,0.0,0.0,0.0,0.0,0.0,0.0,0.0,0.0,0.0,0.0,0.0,0.0,0.0,0.0,0.0,0.0,0.0,0.0,0.0,0.0,0.0,0.0,0.0,-2.7529,-2.7158,-2.6912,-2.6827,-2.635,-2.5551,0.0,0.0,0.0,0.0,0.0,0.0,0.0,0.0,0.0,0.0,0.0,0.0,0.0,0.0,0.0,0.0,0.0,0.0,0.0,0.0,0.0,0.0,0.0,0.0,0.0,0.0,0.0,0.0,0.0,0.0,0.0,0.0,0.0,0.0,0.0,0.0,0.0,0.0,0.0,0.0,0.0,0.0,0.0,0.0,0.0,0.0,0.0,0.0,0.0,0.0,0.0,0.0,0.0,0.0,0.0,0.0,0.0,0.0,0.0,0.0,0.0,0.0,0.0,0.0,0.0,0.0,0.0,0.0,0.0,0.0,0.0,0.0,0.0,0.0,0.0,0.0,0.0,0.0,0.0,0.0,0.0,0.0,0.0,0.0,0.0,0.0,0.0,0.0,0.0,0.0,0.0,0.0,0.0,0.0,0.0,0.0,0.0,0.0,0.0,0.0,0.0,0.0,0.0,0.0,0.0,0.0,0.0,0.0,0.0,-2.9154,-2.8546,-2.8166,-2.8129,-2.7357,-2.6418,-2.5335,0.0,0.0,0.0,0.0,0.0,0.0,0.0,0.0,0.0,0.0,0.0,0.0,0.0,0.0,0.0,0.0,0.0,0.0,0.0,0.0,0.0,0.0,0.0,0.0,0.0,0.0,0.0,0.0,0.0,0.0,0.0,0.0,0.0,0.0,0.0,0.0,0.0,0.0,0.0,0.0,0.0,0.0,0.0,0.0,0.0,0.0,0.0,0.0,0.0,0.0,0.0,0.0,0.0,0.0,0.0,0.0,0.0,0.0,0.0,0.0,0.0,0.0,0.0,0.0,0.0,0.0,0.0,0.0,0.0,0.0,0.0,0.0,0.0,0.0,0.0,0.0,0.0,0.0,0.0,0.0,0.0,0.0,0.0,0.0,0.0,0.0,0.0,0.0,0.0,0.0,0.0,0.0,0.0,0.0,0.0,0.0,0.0,0.0,0.0,0.0,0.0,0.0,0.0,0.0,0.0,0.0,0.0,0.0,-3.098,-2.9968,-2.9366,-2.9307,-2.7793,-2.6986,0.0,0.0,0.0,0.0,0.0,0.0,0.0,0.0,0.0,0.0,0.0,0.0,0.0,0.0,0.0,0.0,0.0,0.0,0.0,0.0,0.0,0.0,0.0,0.0,0.0,0.0,0.0,0.0,0.0,0.0,0.0,0.0,0.0,0.0,0.0,0.0,0.0,0.0,0.0,0.0,0.0,0.0,0.0,0.0,0.0,0.0,0.0,0.0,0.0,0.0,0.0,0.0,0.0,0.0,0.0,0.0,0.0,0.0,0.0,0.0,0.0,0.0,0.0,0.0,0.0,0.0,0.0,0.0,0.0,0.0,0.0,0.0,0.0,0.0,0.0,0.0,0.0,0.0,0.0,0.0,0.0,0.0,0.0,0.0,0.0,0.0,0.0,0.0,0.0,0.0,0.0,0.0,0.0,0.0,0.0,0.0,0.0,0.0,0.0,0.0,0.0,0.0,0.0,0.0,0.0,0.0,0.0,0.0,0.0,-3.0714,-3.0681,-3.0393,-2.9891,-2.9214,-2.8216,0.0,0.0,0.0,0.0,0.0,0.0,0.0,0.0,0.0,0.0,0.0,0.0,0.0,0.0,0.0,0.0,0.0,0.0,0.0,0.0,0.0,0.0,0.0,0.0,0.0,0.0,0.0,0.0,0.0,0.0,0.0,0.0,0.0,0.0,0.0,0.0,0.0,0.0,0.0,0.0,0.0,0.0,0.0,0.0,0.0,0.0,0.0,0.0,0.0,0.0,0.0,0.0,0.0,0.0,0.0,0.0,0.0,0.0,0.0,0.0,0.0,0.0,0.0,0.0,0.0,0.0,0.0,0.0,0.0,0.0,0.0,0.0,0.0,0.0,0.0,0.0,0.0,0.0,0.0,0.0,0.0,0.0,0.0,0.0,0.0,0.0,0.0,0.0,0.0,0.0,0.0,0.0,0.0,0.0,0.0,0.0,0.0,0.0,0.0,0.0,0.0,0.0,0.0,0.0,0.0,0.0,0.0,0.0,-3.0752,-3.1166,-3.1114,-3.0954,-3.0598,-2.9929,-2.8985,0.0,0.0,0.0,0.0,0.0,0.0,0.0,0.0,0.0,0.0,0.0,0.0,0.0,0.0,0.0,0.0,0.0,0.0,0.0,0.0,0.0,0.0,0.0,0.0,0.0,0.0,0.0,0.0,0.0,0.0,0.0,0.0,0.0,0.0,0.0,0.0,0.0,0.0,0.0,0.0,0.0,0.0,0.0,0.0,0.0,0.0,0.0,0.0,0.0,0.0,0.0,0.0,0.0,0.0,0.0,0.0,0.0,0.0,0.0,0.0,0.0,0.0,0.0,0.0,0.0,0.0,0.0,0.0,0.0,0.0,0.0,0.0,0.0,0.0,0.0,0.0,0.0,0.0,0.0,0.0,0.0,0.0,0.0,0.0,0.0,0.0,0.0,0.0,0.0,0.0,0.0,0.0,0.0,0.0,0.0,0.0,0.0,0.0,0.0,0.0,0.0,0.0,0.0,0.0,0.0,0.0,0.0,0.0,-3.1399,-3.1769,-3.1322,-3.1176,-3.1263,-3.0251,-2.9377,0.0,0.0,0.0,0.0,0.0,0.0,0.0,0.0,0.0,0.0,0.0,0.0,0.0,0.0,0.0,0.0,0.0,0.0,0.0,0.0,0.0,0.0,0.0,0.0,0.0,0.0,0.0,0.0,0.0,0.0,0.0,0.0,0.0,0.0,0.0,0.0,0.0,0.0,0.0,0.0,0.0,0.0,0.0,0.0,0.0,0.0,0.0,0.0,0.0,0.0,0.0,0.0,0.0,0.0,0.0,0.0,0.0,0.0,0.0,0.0,0.0,0.0,0.0,0.0,0.0,0.0,0.0,0.0,0.0,0.0,0.0,0.0,0.0,0.0,0.0,0.0,0.0,0.0,0.0,0.0,0.0,0.0,0.0,0.0,0.0,0.0,0.0,0.0,0.0,0.0,0.0,0.0,0.0,0.0,0.0,0.0,0.0,0.0,0.0,0.0,0.0,0.0,0.0,0.0,0.0,0.0,0.0,0.0,-3.1218,-3.1582,-3.1249,-3.1176,-3.1278,-3.0675,-2.9886,0.0,0.0,0.0,0.0,0.0,0.0,0.0,0.0,0.0,0.0,0.0,0.0,0.0,0.0,0.0,0.0,0.0,0.0,0.0,0.0,0.0,0.0,0.0,0.0,0.0,0.0,0.0,0.0,0.0,0.0,0.0,0.0,0.0,0.0,0.0,0.0,0.0,0.0,0.0,0.0,0.0,0.0,0.0,0.0,0.0,0.0,0.0,0.0,-3.274,0.0,0.0,0.0,0.0,0.0,0.0,0.0,0.0,0.0,0.0,0.0,0.0,0.0,0.0,0.0,0.0,0.0,0.0,0.0,0.0,0.0,0.0,0.0,0.0,0.0,0.0,0.0,0.0,0.0,0.0,0.0,0.0,0.0,0.0,0.0,0.0,0.0,0.0,0.0,0.0,0.0,0.0,0.0,0.0,0.0,0.0,0.0,0.0,0.0,0.0,0.0,0.0,0.0,0.0,0.0,0.0,0.0,0.0,0.0,-3.1423,-3.1467,-3.1292,-3.1234,-3.1336,-3.1058,-3.0265,0.0,0.0,0.0,0.0,0.0,0.0,0.0,0.0,0.0,0.0,0.0,0.0,0.0,0.0,0.0,0.0,0.0,0.0,0.0,0.0,0.0,0.0,0.0,0.0,0.0,0.0,0.0,0.0,0.0,0.0,0.0,0.0,0.0,0.0,0.0,0.0,0.0,0.0,0.0,0.0,0.0,0.0,0.0,0.0,0.0,0.0,0.0,0.0,0.0,0.0,0.0,0.0,0.0,0.0,0.0,0.0,0.0,0.0,0.0,0.0,0.0,0.0,0.0,0.0,0.0,0.0,0.0,0.0,0.0,0.0,0.0,0.0,0.0,0.0,0.0,0.0,0.0,0.0,0.0,0.0,0.0,0.0,0.0,0.0,0.0,0.0,0.0,0.0,0.0,0.0,0.0,0.0,0.0,0.0,0.0,0.0,0.0,0.0,0.0,0.0,0.0,0.0,0.0,0.0,0.0,0.0,0.0,-3.1218,-3.1712,-3.1539,-3.1351,-3.1351,-3.1467,-3.1249,-3.0526,-2.9267,0.0,0.0,0.0,0.0,0.0,0.0,0.0,0.0,0.0,0.0,0.0,0.0,0.0,0.0,0.0,0.0,0.0,0.0,0.0,0.0,0.0,0.0,0.0,0.0,0.0,0.0,0.0,0.0,0.0,0.0,0.0,0.0,0.0,0.0,0.0,0.0,0.0,0.0,-2.9674,-3.1426,0.0,0.0,0.0,0.0,0.0,0.0,0.0,0.0,-3.3795,0.0,0.0,0.0,0.0,0.0,0.0,0.0,0.0,0.0,0.0,0.0,0.0,0.0,0.0,0.0,0.0,0.0,0.0,0.0,0.0,0.0,0.0,0.0,0.0,0.0,0.0,0.0,0.0,0.0,0.0,0.0,0.0,0.0,0.0,0.0,0.0,0.0,0.0,0.0,0.0,0.0,0.0,0.0,0.0,0.0,0.0,0.0,0.0,0.0,0.0,0.0,0.0,0.0,0.0,0.0,0.0,-3.0068,-3.1218,-3.1727,-3.1539,-3.1351,-3.1351,-3.1482,-3.1351,-3.0741,-2.9738,0.0,0.0,0.0,0.0,0.0,0.0,0.0,0.0,0.0,0.0,0.0,0.0,0.0,0.0,0.0,0.0,0.0,0.0,0.0,0.0,0.0,0.0,0.0,0.0,0.0,0.0,0.0,0.0,0.0,0.0,0.0,0.0,0.0,0.0,0.0,0.0,0.0,0.0,0.0,-3.2756,-3.3774,0.0,0.0,0.0,0.0,0.0,0.0,0.0,0.0,-3.6296,0.0,0.0,0.0,0.0,0.0,0.0,0.0,0.0,0.0,0.0,0.0,0.0,0.0,0.0,0.0,0.0,0.0,0.0,0.0,0.0,0.0,0.0,0.0,0.0,0.0,0.0,0.0,0.0,0.0,0.0,0.0,0.0,0.0,0.0,0.0,0.0,0.0,0.0,0.0,0.0,0.0,0.0,0.0,0.0,0.0,0.0,0.0,0.0,0.0,0.0,0.0,0.0,0.0,0.0,0.0,-3.0107,-3.1218,-3.1727,-3.1524,-3.1524,-3.1597,-3.167,-3.164,-3.108,0.0,0.0,0.0,0.0,0.0,0.0,0.0,0.0,0.0,0.0,0.0,0.0,0.0,0.0,0.0,0.0,0.0,0.0,0.0,0.0,0.0,0.0,0.0,0.0,0.0,0.0,0.0,0.0,0.0,0.0,0.0,0.0,0.0,0.0,0.0,0.0,0.0,0.0,0.0,0.0,-3.3599,-3.4484,-3.5838,0.0,0.0,0.0,0.0,0.0,0.0,-3.7533,-3.7299,0.0,0.0,0.0,0.0,0.0,0.0,0.0,0.0,0.0,0.0,0.0,0.0,0.0,0.0,0.0,0.0,0.0,0.0,0.0,0.0,0.0,0.0,0.0,0.0,0.0,0.0,0.0,0.0,0.0,0.0,0.0,0.0,0.0,0.0,0.0,0.0,0.0,0.0,0.0,0.0,0.0,0.0,0.0,0.0,0.0,0.0,0.0,0.0,0.0,0.0,0.0,0.0,0.0,0.0,0.0,-3.0038,-3.1218,-3.1784,-3.1597,-3.1727,-3.1841,-3.1841,-3.194,-3.1414,0.0,0.0,0.0,0.0,0.0,0.0,0.0,0.0,0.0,0.0,0.0,0.0,0.0,0.0,0.0,0.0,0.0,0.0,0.0,0.0,0.0,0.0,0.0,0.0,0.0,0.0,0.0,0.0,0.0,0.0,0.0,0.0,0.0,0.0,0.0,0.0,0.0,0.0,0.0,0.0,0.0,-3.5322,-3.6594,-3.7352,0.0,0.0,0.0,0.0,-3.822,-3.807,0.0,0.0,0.0,0.0,0.0,0.0,0.0,0.0,0.0,0.0,0.0,0.0,0.0,0.0,0.0,0.0,0.0,0.0,0.0,0.0,0.0,0.0,0.0,0.0,0.0,0.0,0.0,0.0,0.0,0.0,0.0,0.0,0.0,0.0,0.0,0.0,0.0,0.0,0.0,0.0,0.0,0.0,0.0,0.0,0.0,0.0,0.0,0.0,0.0,0.0,0.0,0.0,0.0,0.0,0.0,0.0,-3.0054,-3.1313,-3.1883,-3.1784,-3.1883,-3.1996,-3.1981,-3.1981,-3.1485,0.0,0.0,0.0,0.0,0.0,0.0,0.0,0.0,0.0,0.0,0.0,0.0,0.0,0.0,0.0,0.0,0.0,0.0,0.0,0.0,0.0,0.0,0.0,0.0,0.0,0.0,0.0,0.0,0.0,0.0,0.0,0.0,0.0,0.0,0.0,0.0,0.0,0.0,0.0,0.0,0.0,-3.6721,-3.8146,-3.8704,-3.9486,0.0,0.0,0.0,-4.049,-4.0069,0.0,0.0,0.0,0.0,0.0,0.0,0.0,0.0,0.0,0.0,0.0,0.0,0.0,0.0,0.0,0.0,0.0,0.0,0.0,0.0,0.0,0.0,0.0,0.0,0.0,0.0,0.0,0.0,0.0,0.0,0.0,0.0,0.0,0.0,0.0,0.0,0.0,0.0,0.0,0.0,0.0,0.0,0.0,0.0,0.0,0.0,0.0,0.0,0.0,0.0,0.0,0.0,0.0,0.0,0.0,-3.0094,-3.0166,-3.1043,-3.1658,-3.1925,-3.2038,-3.2109,-3.2079,-3.2262,-3.1743,0.0,0.0,0.0,0.0,0.0,0.0,0.0,0.0,0.0,0.0,0.0,0.0,0.0,0.0,0.0,0.0,0.0,0.0,0.0,0.0,0.0,0.0,0.0,0.0,0.0,0.0,0.0,0.0,0.0,0.0,0.0,0.0,0.0,0.0,0.0,0.0,0.0,0.0,0.0,0.0,0.0,0.0,-3.867,-3.9467,0.0,0.0,0.0,-4.0728,-4.098,0.0,0.0,0.0,0.0,0.0,0.0,0.0,0.0,0.0,0.0,0.0,0.0,0.0,0.0,0.0,0.0,0.0,0.0,0.0,0.0,0.0,0.0,0.0,0.0,0.0,0.0,0.0,0.0,0.0,0.0,0.0,0.0,0.0,0.0,0.0,0.0,0.0,0.0,0.0,0.0,0.0,0.0,0.0,0.0,0.0,0.0,0.0,0.0,0.0,0.0,0.0,0.0,0.0,0.0,0.0,0.0,0.0,-3.0241,-3.0952,-3.1573,-3.2104,-3.2318,-3.2373,-3.2373,-3.2594,0.0,0.0,0.0,0.0,0.0,0.0,0.0,0.0,0.0,0.0,0.0,0.0,0.0,0.0,0.0,0.0,0.0,0.0,0.0,0.0,0.0,0.0,0.0,0.0,0.0,0.0,0.0,-2.7701,0.0,0.0,0.0,0.0,0.0,0.0,0.0,0.0,0.0,0.0,0.0,0.0,0.0,0.0,-3.7374,-3.8993,-3.9932,-4.0748,0.0,0.0,-4.1527,-4.1457,-4.09,-4.0442,0.0,0.0,0.0,0.0,0.0,0.0,0.0,0.0,0.0,0.0,0.0,0.0,0.0,0.0,0.0,0.0,0.0,0.0,0.0,0.0,0.0,0.0,0.0,0.0,0.0,0.0,0.0,0.0,0.0,0.0,0.0,0.0,0.0,0.0,0.0,0.0,0.0,0.0,0.0,0.0,0.0,0.0,0.0,0.0,0.0,0.0,0.0,0.0,0.0,0.0,0.0,0.0,0.0,0.0,0.0,-3.0366,-3.1164,-3.1897,-3.2516,-3.2757,-3.2843,-3.2843,-3.2843,-3.2347,0.0,0.0,0.0,0.0,0.0,0.0,0.0,0.0,0.0,0.0,0.0,0.0,0.0,0.0,0.0,0.0,0.0,0.0,0.0,0.0,0.0,0.0,0.0,0.0,0.0,0.0,0.0,0.0,0.0,0.0,0.0,0.0,0.0,0.0,0.0,0.0,0.0,0.0,0.0,0.0,0.0,-3.8494,-3.9146,-4.0324,-4.1442,0.0,0.0,-4.2465,-4.2586,-4.1988,-4.1271,-4.0588,0.0,0.0,0.0,0.0,0.0,0.0,0.0,0.0,0.0,0.0,0.0,0.0,0.0,0.0,0.0,0.0,0.0,0.0,0.0,0.0,0.0,0.0,0.0,0.0,0.0,0.0,0.0,0.0,0.0,0.0,0.0,0.0,0.0,0.0,0.0,0.0,0.0,0.0,0.0,0.0,0.0,0.0,0.0,0.0,0.0,0.0,0.0,0.0,0.0,0.0,0.0,0.0,0.0,-3.0185,-3.0639,-3.1358,-3.2058,-3.278,-3.2881,-3.2912,-3.2912,-3.2651,-3.21,0.0,0.0,0.0,0.0,0.0,0.0,0.0,0.0,0.0,0.0,0.0,0.0,0.0,0.0,0.0,0.0,0.0,0.0,0.0,0.0,0.0,0.0,0.0,0.0,0.0,0.0,0.0,0.0,-2.7911,-2.8152,-2.8582,0.0,0.0,0.0,0.0,0.0,0.0,0.0,0.0,0.0,0.0,-3.9453,-4.0521,-4.1529,0.0,0.0,-4.3371,-4.3371,-4.344,-4.2398,-4.1543,-4.1302,-4.0731,0.0,0.0,0.0,0.0,0.0,0.0,0.0,0.0,0.0,0.0,0.0,0.0,0.0,0.0,0.0,0.0,0.0,0.0,0.0,0.0,0.0,0.0,0.0,0.0,0.0,0.0,0.0,0.0,0.0,0.0,0.0,0.0,0.0,0.0,0.0,0.0,0.0,0.0,0.0,0.0,0.0,0.0,0.0,0.0,0.0,0.0,0.0,0.0,0.0,0.0,0.0,0.0,-3.0333,-3.0908,-3.1529,-3.2285,-3.2989,-3.3005,-3.3058,-3.3043,-3.2577,-3.2003,0.0,0.0,0.0,0.0,0.0,0.0,0.0,0.0,0.0,0.0,0.0,0.0,0.0,0.0,0.0,0.0,0.0,0.0,0.0,0.0,0.0,0.0,0.0,0.0,0.0,0.0,0.0,0.0,-2.8227,-2.8787,-2.9763,0.0,0.0,0.0,0.0,0.0,0.0,0.0,0.0,0.0,0.0,-4.0062,-4.1406,-4.2279,-4.3048,-4.3835,-4.4162,-4.4283,-4.4112,-4.303,-4.2152,-4.1977,0.0,0.0,0.0,0.0,0.0,0.0,0.0,0.0,0.0,0.0,0.0,0.0,0.0,0.0,0.0,0.0,0.0,0.0,0.0,0.0,0.0,0.0,0.0,0.0,0.0,0.0,0.0,0.0,0.0,0.0,0.0,0.0,0.0,0.0,0.0,0.0,0.0,0.0,0.0,0.0,0.0,0.0,0.0,0.0,0.0,0.0,0.0,0.0,0.0,0.0,0.0,0.0,0.0,0.0,-3.1158,-3.1785,-3.2442,-3.3261,-3.3293,-3.3346,-3.3435,-3.2752,-3.2253,-3.1932,0.0,0.0,0.0,0.0,0.0,0.0,0.0,0.0,0.0,0.0,0.0,0.0,0.0,0.0,0.0,0.0,0.0,0.0,0.0,0.0,0.0,0.0,0.0,0.0,0.0,0.0,-2.8032,-2.8763,-2.9888,0.0,0.0,0.0,0.0,0.0,0.0,0.0,0.0,0.0,0.0,-3.9261,-4.0173,-4.149,-4.238,-4.322,-4.3992,-4.4837,-4.5165,-4.461,-4.393,-4.3245,0.0,0.0,0.0,0.0,0.0,0.0,0.0,0.0,0.0,0.0,0.0,0.0,0.0,0.0,0.0,0.0,0.0,0.0,0.0,0.0,0.0,0.0,0.0,0.0,0.0,0.0,0.0,0.0,0.0,0.0,0.0,0.0,0.0,0.0,0.0,0.0,0.0,0.0,0.0,0.0,-3.0862,-3.0491,0.0,0.0,0.0,0.0,0.0,0.0,0.0,0.0,0.0,0.0,0.0,0.0,-3.0497,-3.0768,-3.142,-3.2119,-3.2822,-3.2854,-3.3077,-3.3626,-3.2673,-3.1785,-3.103,0.0,0.0,0.0,0.0,0.0,0.0,0.0,0.0,0.0,0.0,0.0,0.0,0.0,0.0,0.0,0.0,0.0,0.0,0.0,0.0,0.0,0.0,0.0,0.0,0.0,-2.834,0.0,0.0,0.0,0.0,0.0,0.0,0.0,0.0,0.0,0.0,0.0,-3.8614,-3.9512,-4.07,-4.1834,-4.2743,-4.3588,-4.435,0.0,0.0,0.0,0.0,0.0,0.0,0.0,0.0,0.0,0.0,0.0,0.0,0.0,0.0,-4.1185,-3.9953,-3.9815,-3.9911,-3.9971,0.0,0.0,0.0,0.0,0.0,0.0,0.0,0.0,0.0,0.0,0.0,0.0,0.0,0.0,0.0,0.0,-3.2262,0.0,0.0,0.0,0.0,0.0,0.0,0.0,0.0,-3.1246,-3.1134,-3.1102,-3.0447,-3.0158,0.0,-2.9846,-2.9681,0.0,0.0,0.0,0.0,0.0,0.0,0.0,0.0,-3.0589,-3.0621,-3.1502,-3.2141,-3.2572,-3.2878,-3.3281,-3.3815,-3.2789,-3.1663,-3.0518,-3.0651,-3.0185,0.0,0.0,0.0,0.0,0.0,0.0,0.0,0.0,0.0,0.0,0.0,0.0,0.0,0.0,0.0,0.0,0.0,0.0,0.0,0.0,0.0,0.0,0.0,-2.9333,0.0,0.0,0.0,0.0,0.0,0.0,0.0,0.0,0.0,-3.7126,-3.8591,-3.9869,-4.0613,-4.1786,-4.2929,-4.3912,0.0,0.0,0.0,0.0,0.0,0.0,0.0,-4.5035,-4.4322,-4.3616,-4.2863,-4.2263,-4.2287,-4.2409,-4.2391,0.0,0.0,-4.0989,-4.0831,-4.0909,-4.0948,-4.1025,-4.1101,-4.1194,-4.1232,-4.1214,0.0,0.0,0.0,0.0,0.0,0.0,0.0,0.0,-3.1428,-3.1618,0.0,0.0,0.0,0.0,0.0,0.0,0.0,0.0,0.0,0.0,-3.0639,-3.0243,-3.018,-2.9532,-2.9122,-2.9107,-2.9291,-2.9412,-2.9518,-2.9786,0.0,0.0,0.0,0.0,0.0,0.0,-3.0665,-3.0698,-3.1887,-3.2558,-3.2606,-3.343,-3.3919,-3.3971,-3.3055,-3.1869,-3.0609,-3.0773,-3.0303,-2.9022,-2.9047,0.0,0.0,0.0,0.0,0.0,0.0,0.0,0.0,0.0,0.0,0.0,0.0,0.0,0.0,0.0,0.0,0.0,0.0,0.0,0.0,-3.0101,0.0,0.0,0.0,0.0,0.0,0.0,0.0,0.0,0.0,0.0,-3.755,-3.9287,-4.0916,-4.1753,0.0,0.0,0.0,0.0,-4.554,-4.6147,-4.635,-4.6447,-4.6447,-4.5999,-4.5374,-4.4556,0.0,0.0,-4.2517,-4.253,-4.2609,-4.2609,-4.2627,-4.2609,-4.2573,-4.2501,-4.2519,-4.2537,-4.2541,-4.2652,-4.2826,-4.2775,-4.283,-3.1147,0.0,0.0,0.0,0.0,-3.2143,-3.2284,-3.2453,-3.2342,-3.2513,-3.2851,-3.299,0.0,0.0,0.0,0.0,0.0,0.0,-3.1867,-3.1679,-3.144,-3.1095,-3.061,-3.0052,-2.9817,-2.9785,-2.9559,-2.9473,-2.9518,-2.9653,-2.977,-2.9918,0.0,0.0,0.0,0.0,-3.0121,-3.0186,-3.0981,-3.1675,-3.2287,-3.3016,-3.3274,-3.2957,-3.2747,-3.2077,-3.084,-3.0895,-3.0617,-2.9861,-2.9411,0.0,0.0,0.0,0.0,0.0,0.0,0.0,0.0,0.0,0.0,0.0,0.0,0.0,0.0,0.0,0.0,0.0,0.0,0.0,-3.0101,-3.0903,-3.1701,0.0,0.0,0.0,0.0,0.0,0.0,0.0,0.0,0.0,-4.0229,-4.0504,-4.1297,0.0,0.0,-4.4233,-4.524,-4.5888,-4.6295,-4.6459,0.0,0.0,0.0,-4.6811,-4.6337,-4.5029,-4.3727,-4.2781,-4.2606,-4.2649,-4.2745,-4.2745,-4.286,-4.2936,-4.2936,-4.288,-4.2824,-4.2806,-4.2938,-4.305,-4.3087,-4.3123,-4.3123,-3.1044,-3.1075,-3.1455,-3.1661,-3.1796,-3.1966,-3.216,-3.2336,-3.247,-3.2539,-3.269,-3.2823,-3.2594,-3.2135,-3.212,0.0,0.0,0.0,-3.2051,-3.2089,-3.184,-3.1514,-3.1197,-3.0626,-3.0396,-3.0462,-3.0212,-3.0036,-2.9858,-2.9964,-2.9939,-2.9847,0.0,0.0,-2.9918,-2.9902,-2.9946,-2.9978,-3.0981,-3.1743,-3.2275,-3.3286,-3.3461,-3.2701,-3.2729,-3.2207,-3.1019,-3.1032,-3.0835,-3.0296,-2.9674,-2.9008,0.0,0.0,0.0,0.0,0.0,0.0,0.0,0.0,0.0,0.0,0.0,-2.8219,0.0,0.0,0.0,0.0,-2.9758,-3.0628,-3.1076,-3.2067,0.0,0.0,0.0,0.0,0.0,0.0,0.0,-3.8762,-4.0326,-4.153,-4.1893,-4.1694,-4.2121,-4.3757,-4.4314,-4.4965,-4.6051,0.0,-4.6852,-4.6852,-4.7007,-4.7116,-4.7116,-4.7276,-4.6884,-4.5418,-4.3851,-4.2878,-4.2824,-4.2918,-4.2956,-4.2974,-4.3031,-4.3123,-4.3123,-4.3141,-4.3104,-4.305,-4.3142,-4.3268,-4.3322,-4.3321,-4.3375,-3.1005,-3.1471,-3.1637,-3.1601,-3.1511,-3.1642,-3.1784,-3.1981,-3.1952,-3.1942,-3.1955,-3.2088,-3.2129,-3.1996,-3.215,0.0,0.0,-3.2398,-3.2437,-3.2516,-3.1913,-3.1703,-3.1815,-3.1176,-3.0967,-3.1068,-3.1005,-3.0858,-3.0497,-3.0528,-3.0348,-2.9919,-3.0053,-3.0016,-2.9902,-2.9973,-3.0017,-3.0033,-3.1585,-3.2479,-3.261,-3.3968,-3.411,-3.2929,-3.2907,-3.231,-3.1076,-3.1134,-3.1002,-3.0526,-2.9867,-2.923,-2.8637,0.0,0.0,0.0,0.0,0.0,0.0,0.0,0.0,0.0,0.0,0.0,0.0,0.0,0.0,0.0,-3.1096,0.0,-3.2175,-3.3458,0.0,0.0,0.0,-3.6766,-3.6892,-3.8294,-3.9481,-4.0218,0.0,0.0,0.0,0.0,-4.3206,-4.4736,-4.4964,-4.554,-4.7032,-4.7204,-4.732,-4.7276,-4.7302,-4.7302,-4.714,-4.7108,-4.668,-4.5482,-4.4161,-4.3215,-4.316,-4.3178,-4.3196,-4.3178,-4.3214,-4.3251,-4.3232,-4.3395,-4.3467,-4.3305,-4.3304,-4.3391,-4.3513,-4.3582,-4.3631,-3.176,-3.175,-3.1937,-3.1811,-3.1477,-3.1523,-3.1516,-3.145,-3.1447,-3.1509,-3.1661,-3.1732,-3.1902,-3.1996,-3.2053,-3.2038,-3.2094,-3.2094,-3.2135,-3.2272,-3.2133,-3.2112,-3.223,-3.1793,-3.1587,-3.1607,-3.131,-3.1128,-3.1165,-3.1294,-3.1389,-3.1477,-3.157,-3.1079,-3.0022,-3.0119,-3.0146,-3.0162,-3.163,-3.2954,-3.41,-3.4622,-3.4203,-3.2956,-3.2934,-3.2361,-3.1083,-3.1157,-3.1266,-3.1268,-3.0143,-2.9488,-2.9499,-2.8334,0.0,0.0,0.0,0.0,0.0,0.0,0.0,0.0,0.0,-2.9305,-2.9332,0.0,-3.052,0.0,-3.142,-3.2481,-3.3638,-3.4087,0.0,0.0,-3.6543,-3.7316,-3.8612,-3.9607,-4.0492,-4.1252,-4.2047,-4.2645,-4.2826,-4.2862,-4.3186,-4.418,-4.4728,-4.536,-4.6313,-4.696,-4.732,-4.7284,-4.7353,-4.7277,-4.6747,-4.5805,-4.5087,-4.4689,-4.3816,-4.3233,-4.3214,-4.3214,-4.3214,-4.3214,-4.3358,-4.3428,-4.3428,-4.3587,-4.3726,-4.3671,-4.3671,-4.3704,-4.373,-4.3767,-4.3786,-3.193,-3.1908,-3.2036,-3.1971,-3.1645,-3.1682,-3.1711,-3.175,-3.1573,-3.1515,-3.1575,-3.1499,-3.1569,-3.1697,-3.1754,-3.1769,-3.1769,-3.1769,-3.1925,-3.2094,-3.2094,-3.2191,-3.2382,-3.2176,-3.2129,-3.2289,-3.2071,-3.1946,-3.1881,-3.2013,-3.1983,-3.1916,-3.2183,-3.1883,-3.1099,-3.0888,-3.0767,-3.0783,-3.1912,-3.3123,-3.4259,-3.4686,-3.4296,-3.3,-3.2961,-3.2429,-3.1168,-3.1291,-3.1483,-3.1637,-3.0369,-2.9709,-2.9857,-2.8548,-2.7994,0.0,0.0,0.0,0.0,0.0,0.0,0.0,0.0,0.0,0.0,0.0,-3.1578,0.0,0.0,0.0,-3.4344,-3.4758,-3.5475,-3.675,-3.7202,-3.7959,-3.926,-4.0383,-4.1234,-4.1651,-4.2411,-4.29,-4.29,-4.29,-4.3045,-4.3516,-4.4237,-4.4953,-4.5671,-4.6236,-4.6488,-4.6488,-4.659,-4.6527,-4.6136,-4.5219,-4.4473,-4.4437,-4.3852,-4.3339,-4.3339,-4.3339,-4.3393,-4.3375,-4.3532,-4.3652,-4.3652,-4.3741,-4.3878,-4.3902,-4.3966,-4.3998,-4.391,-4.3942,-4.4042,-3.1777,-3.1924,-3.2063,-3.2014,-3.1847,-3.1921,-3.2124,-3.2303,-3.1901,-3.1693,-3.1693,-3.1353,-3.1234,-3.1292,-3.1409,-3.1482,-3.1482,-3.1482,-3.1655,-3.194,-3.1996,-3.2094,-3.2398,-3.2382,-3.2578,-3.2912,-3.2912,-3.2851,-3.2647,-3.2732,-3.2496,-3.2176,-3.2506,-3.2708,-3.2659,-3.2105,-3.1737,-3.1638,-3.2238,-3.2961,-3.3773,-3.4419,-3.418,-3.3071,-3.2988,-3.2471,-3.138,-3.1445,-3.1614,-3.1748,-3.0647,-3.0031,-3.0141,-2.8916,-2.8617,0.0,-2.9587,0.0,0.0,0.0,0.0,0.0,0.0,0.0,0.0,-3.1999,-3.2795,-3.3502,-3.428,-3.4751,-3.4751,-3.5385,-3.6164,-3.7033,-3.7757,-3.8572,-3.9604,-4.0908,-4.1722,-4.185,-4.2466,-4.29,-4.2938,-4.2938,-4.2938,-4.3066,-4.363,-4.4302,-4.4917,-4.5337,-4.5576,-4.5397,-4.5255,-4.5038,-4.4983,-4.462,-4.4217,-4.4234,-4.3885,-4.3532,-4.3513,-4.36,-4.3634,-4.3634,-4.3719,-4.3818,-4.3837,-4.3929,-4.4013,-4.4042,-4.4177,-4.4237,-4.4097,-4.4165,-4.4285,-3.168,-3.1793,-3.1755,-3.1869,-3.215,-3.2286,-3.2108,-3.1861,-3.1875,-3.171,-3.1514,-3.1086,-3.0984,-3.1132,-3.1292,-3.1351,-3.1351,-3.1467,-3.1612,-3.1841,-3.1841,-3.1996,-3.2247,-3.2342,-3.2594,-3.2912,-3.3005,-3.3193,-3.3451,-3.3502,-3.3574,-3.3844,-3.4007,-3.4152,0.0,0.0,0.0,0.0,-3.205,-3.2464,-3.3723,-3.3922,-3.3665,-3.3021,-3.2988,0.0,-3.1397,-3.1466,-3.1654,-3.1823,-3.1254,0.0,0.0,0.0,0.0,0.0,0.0,0.0,0.0,0.0,0.0,0.0,-3.294,-3.2669,-3.2089,-3.3302,-3.4226,-3.4389,-3.5113,-3.5584,-3.5602,-3.5711,-3.6381,-3.7775,-3.8083,-3.8989,-4.0981,-4.1505,-4.1959,-4.2611,-4.281,-4.2938,-4.3049,-4.3049,-4.3086,-4.3142,-4.3306,-4.3451,-4.3597,-4.4745,-4.5292,-4.4709,-4.3852,-4.3027,-4.2898,-4.3015,-4.31,-4.2912,-4.3461,-4.3682,-4.3738,-4.3753,-4.3753,-4.3753,-4.3883,-4.3961,-4.3961,-4.4122,-4.4185,-4.4244,-4.4298,-4.4355,-4.4258,-4.4248,-4.4314,-3.1549,0.0,-3.1373,-3.1508,0.0,0.0,-3.2146,-3.1958,-3.2024,-3.1803,-3.1273,-3.1187,-3.1026,-3.0895,-3.1073,-3.1176,-3.119,-3.1351,-3.1467,-3.164,-3.1784,-3.194,-3.2191,-3.2302,-3.2468,-3.2773,-3.2951,-3.315,-3.3503,-3.3658,-3.3848,-3.4101,-3.4349,-3.4546,-3.4578,-3.406,-3.3243,-3.2183,-3.2166,-3.2497,-3.3226,-3.3698,-3.3806,-3.359,0.0,0.0,0.0,0.0,0.0,0.0,0.0,0.0,0.0,0.0,0.0,-3.1237,-3.1361,-3.1791,-3.2665,-3.2766,-3.2977,-3.3375,-3.3773,-3.3828,-3.3411,-3.4135,-3.4624,-3.4624,-3.5331,-3.5657,-3.5258,-3.5222,-3.5856,-3.7359,-3.7594,-3.8536,-4.0673,-4.1488,-4.2049,-4.283,-4.2994,-4.3031,-4.3123,-4.316,-4.316,-4.3214,-4.3269,-4.3286,-4.3377,-4.4017,-4.4327,-4.4052,-4.3569,-4.3048,-4.3063,-4.3078,-4.3121,-4.3232,-4.3527,-4.3767,-4.3804,-4.3851,-4.3897,-4.3897,-4.4023,-4.4147,-4.4097,-4.3953,-4.3751,-4.3726,-4.3492,-4.3273,-4.3248,-4.3512,-4.3671,-3.1402,-3.1473,-3.1109,-3.1061,-3.1272,-3.1877,-3.2109,-3.2228,0.0,0.0,0.0,-3.1372,-3.117,-3.0742,-3.0954,-3.1014,-3.1073,-3.1176,-3.1336,-3.1495,-3.164,-3.1883,-3.2135,-3.2135,-3.2318,-3.2594,-3.2773,-3.3043,-3.3309,-3.3555,-3.3745,-3.3899,-3.43,-3.4497,-3.4513,-3.4192,-3.3342,-3.2083,-3.2332,-3.258,-3.2741,-3.3428,-3.3896,-3.4019,-3.3734,-3.3337,-3.2832,-3.2311,-3.21,-3.2282,-3.1741,-3.1505,-3.1668,-3.1142,-3.1255,-3.211,-3.2211,-3.2559,-3.3339,-3.3393,-3.3465,-3.3592,-3.4244,-3.4624,-3.4624,-3.4733,-3.4751,-3.4624,-3.5331,-3.5476,-3.4697,-3.4751,-3.5385,-3.6816,-3.7138,-3.8135,-4.0237,-4.1089,-4.176,-4.2523,-4.2596,-4.2723,-4.2758,-4.2758,-4.2813,-4.2883,-4.2825,-4.3059,-4.3128,-4.3204,-4.3369,-4.3379,-4.3217,-4.3282,-4.3375,-4.3495,-4.361,-4.3564,-4.3735,-4.3846,-4.3698,-4.3738,-4.3757,-4.3478,-4.3685,-4.3557,-4.3565,-4.2941,-4.2585,-4.2556,-4.2114,-4.1612,-4.1544,-4.1983,-4.2307,-3.1361,-3.1614,-3.0984,-3.0849,-3.1061,-3.1522,-3.189,-3.2214,-3.2258,-3.2236,-3.2068,-3.1376,-3.1104,-3.1209,-3.0843,-3.0702,-3.0836,-3.1028,-3.119,0.0,-3.1336,-3.1524,-3.1841,-3.1996,-3.2191,-3.2453,-3.2773,-3.3058,-3.3293,-3.3555,-3.3761,-3.3899,-3.4201,-3.4448,-3.4643,-3.4752,-3.4336,-3.3491,-3.2348,-3.2127,-3.2846,-3.299,-3.3155,-3.3362,-3.3997,-3.4084,-3.3584,-3.3124,-3.2954,-3.303,-3.265,-3.2413,-3.2429,-3.2485,-3.2644,-3.2924,-3.2955,-3.3069,-3.3393,-3.3393,-3.3701,-3.4371,-3.4534,-3.4624,-3.4624,-3.524,-3.5349,-3.4733,-3.5313,-3.5476,-3.4769,-3.5186,-3.591,-3.6852,-3.7627,-3.8733,-4.0398,-4.076,-4.0942,-4.1229,-4.1119,-4.1261,-4.147,-4.1486,-4.157,-4.1609,-4.1811,-4.1709,-4.1875,-4.2258,-4.2664,-4.2641,-4.2267,-4.1969,-4.2136,-4.2646,-4.3021,-4.3125,-4.3655,-4.3785,-4.3178,-4.304,-4.2845,-4.2258,-4.1754,-4.1378,-4.1303,-4.0607,-4.0347,-4.0284,-4.0146,-3.9857,-3.9312,-3.9326,-3.9892,-3.1165,-3.1448,-3.0713,-3.0457,-3.0672,-3.1061,-3.1522,-3.189,-3.2164,-3.2258,-3.2124,-3.1842,-3.1443,-3.1054,-3.0989,-3.0841,-3.0568,-3.0821,-3.1028,-3.1176,-3.1234,-3.1467,-3.1784,-3.1955,-3.2094,-3.2302,-3.2718,-3.2951,-3.3112,-3.3503,-3.3745,-3.3797,-3.4201,-3.4497,-3.4707,-3.4835,-3.4717,-3.4386,-3.3342,-3.3023,-3.3473,-3.3151,-3.3466,-3.4415,-3.4244,-3.4159,-3.4336,-3.3995,-3.381,-3.3848,-3.3864,-3.3526,-3.2677,-3.277,-3.2603,-3.1936,-3.2272,-3.2775,-3.3375,-3.3828,-3.4407,-3.5168,-3.4842,-3.4624,-3.4624,-3.4932,-3.5005,-3.4643,-3.4969,-3.4824,-3.4081,-3.4697,-3.5476,-3.6272,-3.7084,-3.8274,-3.9706,-4.0102,-4.0333,-4.0836,-4.0961,-4.1027,-4.119,-4.1222,-4.1222,-4.1317,-4.136,-4.141,-4.1422,-4.1797,-4.2087,-4.2057,-4.185,-4.1704,-4.1725,-4.2025,-4.2324,-4.2343,-4.266,-4.2772,-4.2361,-4.2109,-4.1632,-4.1258,-4.0589,-4.0159,-4.0058,-3.95,-3.9096,-3.8961,-3.8628,-3.825,-3.7945,-3.7872,-3.8326,-3.0918,-3.1254,-3.0388,-3.0152,-3.0444,-3.081,-3.1123,-3.1535,-3.1857,-3.2119,-3.2091,-3.2248,-3.1748,-3.0991,-3.1125,-3.0883,-3.0384,-3.0582,-3.0836,-3.1073,-3.1234,-3.1482,-3.1799,-3.194,-3.2094,-3.2247,-3.2664,-3.2912,-3.2951,-3.345,-3.3761,-3.3848,-3.425,-3.4562,-3.4659,-3.4787,-3.4899,-3.4866,-3.4319,-3.4064,-3.4034,-3.3573,-3.3906,-3.4846,-3.4355,-3.4182,-3.4599,-3.4332,-3.4126,-3.4109,-3.4321,-3.3898,-3.273,-3.2787,-3.2442,-3.1505,-3.1894,-3.2595,-3.3327,-3.4154,-3.4878,-3.5476,-3.5131,-3.4806,-3.4624,-3.4624,-3.4516,-3.4371,-3.4335,-3.4081,-3.3701,-3.4353,-3.5131,-3.5797,-3.6767,-3.7921,-3.9064,-3.9349,-3.9666,-4.0451,-4.0593,-4.0601,-4.0745,-4.0775,-4.0732,-4.0744,-4.0915,-4.0993,-4.108,-4.1026,-4.0859,-4.0999,-4.1315,-4.1773,-4.1829,-4.1875,-4.1846,-4.1696,-4.164,-4.1434,-4.1098,-4.0469,-4.0083,-3.9808,-3.9207,-3.8719,-3.8675,-3.8109,-3.7662,-3.748,-3.7083,-3.6761,-3.6723,-3.6725,-3.7029,-3.0682,-3.0922,-3.0177,-3.0088,-3.0432,-3.0594,-3.0846,-3.1075,-3.1444,-3.1877,-3.2146,-3.2176,-3.1888,-3.1359,-3.1055,-3.0725,-3.0309,-3.0312,-3.0628,-3.1087,-3.1073,-3.138,-3.1784,-3.194,-3.2109,-3.2247,-3.2664,-3.2897,-3.2951,-3.3466,-3.3797,-3.4034,-3.4349,-3.4497,-3.4562,-3.4787,-3.4899,-3.4899,-3.4833,-3.4579,-3.4225,-3.4136,-3.3967,-3.3567,-3.438,-3.4455,-3.3926,-3.3481,-3.3343,-3.3273,-3.3072,-3.28,-3.2623,-3.277,-3.2908,-3.2816,-3.2937,-3.3142,-3.3436,-3.4172,-3.4661,-3.4751,-3.5276,-3.5276,-3.4661,-3.457,-3.428,-3.3737,-3.3538,-3.352,-3.352,-3.4733,-3.5616,-3.5877,-3.718,-3.8318,-3.8574,-3.8719,-3.8817,-3.8994,-3.9275,-3.915,-3.9386,-3.9452,-3.9369,-3.95,-3.9547,-3.9546,-3.9533,-3.9085,-3.8745,-3.9083,-4.0326,-4.1536,-4.1646,-4.1987,-4.1393,-4.1017,-4.0954,-4.0322,-3.9363,-3.878,-3.8446,-3.7972,-3.7081,-3.6616,-3.6373,-3.5792,-3.5455,-3.5758,-3.5551,-3.523,-3.5154,-3.5287,-3.5761,-3.0325,-3.0655,-2.9891,-2.9831,-3.0228,-3.0445,-3.0648,-3.0859,-3.1369,-3.1702,-3.1874,-3.2297,-3.2236,-3.1774,-3.1476,-3.1126,-3.0702,-3.0438,-3.0582,-3.1087,-3.1087,-3.138,-3.1784,-3.1955,-3.2094,-3.2342,-3.2718,-3.2951,-3.3096,-3.345,-3.3848,-3.4101,-3.4349,-3.448,-3.4497,-3.4756,-3.4899,-3.4899,-3.4994,-3.4938,-3.4793,-3.4421,-3.4343,-3.4648,-3.4823,-3.4746,-3.4463,-3.4483,-3.437,-3.3952,-3.397,-3.3579,-3.2626,-3.2787,-3.255,-3.19,-3.2739,-3.3503,-3.4081,-3.4425,-3.4624,-3.4624,-3.4461,-3.4208,-3.3936,-3.39,-3.3737,-3.3465,-3.3393,-3.3393,-3.3502,-3.4474,-3.5351,-3.5908,-3.6984,-3.7935,-3.8572,-3.8701,-3.8792,-3.891,-3.895,-3.9007,-3.9073,-3.9193,-3.9043,-3.8723,-3.8555,-3.8476,-3.8147,-3.7716,-3.7638,-3.7788,-3.8616,-3.9067,-3.9298,-3.9246,-3.9142,-3.8935,-3.8803,-3.8328,-3.797,-3.7235,-3.6858,-3.6537,-3.5901,-3.5452,-3.5453,-3.521,-3.4927,-3.4927,-3.4908,-3.4908,-3.4908,-3.4908,-3.5325,-2.9977,-3.0068,-2.9579,-2.9599,-2.9934,-3.0278,-3.0509,-3.0709,-3.1307,-3.1575,-3.1707,-3.242,-3.2553,-3.225,-3.2044,-3.163,-3.1054,-3.074,-3.0802,-3.1102,-3.119,-3.1424,-3.1841,-3.1996,-3.2206,-3.2484,-3.2959,-3.3435,-3.3792,-3.4128,-3.4442,-3.47,-3.4953,-3.5086,-3.5153,-3.5349,-3.5413,-3.5278,-3.534,-3.5399,-3.535,-3.4863,-3.4835,-3.5294,-3.507,-3.4839,-3.4641,-3.48,-3.4648,-3.4091,-3.4251,-3.3845,-3.2696,-3.2787,-3.2478,-3.1667,-3.2654,-3.3647,-3.4244,-3.428,-3.428,-3.4244,-3.3882,-3.3628,-3.3484,-3.361,-3.361,-3.3393,-3.3422,-3.3422,-3.3495,-3.4207,-3.4975,-3.5617,-3.6467,-3.7381,-3.8272,-3.8508,-3.8559,-3.8664,-3.8628,-3.8646,-3.8614,-3.8555,-3.8345,-3.7922,-3.7817,-3.771,-3.723,-3.7013,-3.6848,-3.6939,-3.6828,-3.6904,-3.7168,-3.7565,-3.7263,-3.7041,-3.7135,-3.7036,-3.6715,-3.6017,-3.5734,-3.5677,-3.5151,-3.4983,-3.5058,-3.4965,-3.4908,-3.4908,-3.4908,-3.4908,-3.4908,-3.4908,-3.4908,-2.9702,-2.9582,-2.9497,-2.9419,-2.9509,-3.011,-3.0394,-3.052,-3.1245,-3.1575,-3.1707,-3.2407,-3.2676,-3.2678,-3.2678,-3.2042,-3.1168,-3.1339,-3.1389,-3.122,-3.1425,-3.1712,-3.1996,-3.2135,-3.2404,-3.281,-3.3528,-3.4408,-3.5489,-3.5662,-3.5905,-3.6157,-3.6359,-3.6528,-3.653,-3.6753,-3.6688,-3.622,-3.6154,-3.5964,-3.5667,-3.556,-3.5311,-3.4933,-3.4874,-3.4709,-3.4071,-3.3571,-3.3323,-3.3273,-3.3037,-3.2747,-3.2641,-3.282,-3.289,-3.2942,-3.3232,-3.3411,-3.3502,-3.352,-3.3502,-3.3574,-3.4045,-3.419,-3.352,-3.3973,-3.4009,-3.3465,-3.3452,-3.3481,-3.3546,-3.4138,-3.4725,-3.508,-3.5779,-3.6673,-3.7645,-3.7794,-3.785,-3.7877,-3.7968,-3.7832,-3.7219,-3.7019,-3.7205,-3.7164,-3.7132,-3.7084,-3.6952,-3.6465,-3.6147,-3.6,-3.5738,-3.553,-3.6871,-3.6929,-3.6744,-3.6538,-3.6177,-3.5985,-3.54,-3.4945,-3.5001,-3.502,-3.4983,-3.4946,-3.4927,-3.4908,-3.4908,-3.4908,-3.4908,-3.4908,-3.4908,-3.4908,-3.4908,-2.9332,-2.9071,-2.9034,-2.9184,-2.9431,-2.9982,-3.0266,-3.0457,-3.1245,-3.1683,-3.187,-3.2464,-3.2846,-3.3086,-3.3364,-3.3015,-3.2254,-3.2197,-3.2207,-3.2311,-3.2661,-3.2961,-3.3271,-3.3417,-3.3706,-3.4094,-3.4425,-3.4998,-3.5719,-3.5899,-3.6077,-3.636,-3.6571,-3.6779,-3.6967,-3.7136,-3.7153,-3.7084,-3.7099,-3.6875,-3.6337,-3.6361,-3.6157,-3.5694,-3.5711,-3.541,-3.4777,-3.4666,-3.4495,-3.4065,-3.36,-3.3385,-3.3365,-3.3152,-3.3073,-3.3117,-3.3286,-3.3393,-3.3393,-3.3393,-3.3393,-3.3411,-3.3647,-3.3755,-3.352,-3.3665,-3.3683,-3.3524,-3.3481,-3.3549,-3.3679,-3.3945,-3.4385,-3.4935,-3.5395,-3.5975,-3.6749,-3.7044,-3.7124,-3.7158,-3.7261,-3.7231,-3.6975,-3.7009,-3.6873,-3.6449,-3.6359,-3.6217,-3.5828,-3.5452,-3.536,-3.5382,-3.5173,-3.5154,-3.5647,-3.5837,-3.5704,-3.5628,-3.5457,-3.5438,-3.5058,-3.502,-3.5078,-3.5059,-3.5001,-3.4983,-3.4983,-3.4945,-3.4927,-3.4927,-3.4927,-3.4946,-3.4908,-3.4927,-3.4927,-2.8845,-2.8626,-2.8724,-2.904,-2.9365,-2.9894,-3.0203,-3.0457,-3.1245,-3.1683,-3.1884,-3.2467,-3.2875,-3.3157,-3.3675,-3.3668,-3.325,-3.3093,-3.3006,-3.3004,-3.3362,-3.3743,-3.3985,-3.4134,-3.4429,-3.494,-3.5316,-3.5774,-3.6422,-3.6699,-3.6918,-3.7183,-3.738,-3.7574,-3.7781,-3.7935,-3.802,-3.7969,-3.8001,-3.7728,-3.7191,-3.7024,-3.6836,-3.6594,-3.6405,-3.6111,-3.5618,-3.5578,-3.5388,-3.4871,-3.4428,-3.4127,-3.3876,-3.3377,-3.3104,-3.3135,-3.3286,-3.3393,-3.3393,-3.3393,-3.3393,-3.3393,-3.3393,-3.3393,-3.3393,-3.3422,-3.3433,-3.3509,-3.3549,-3.3661,-3.3753,-3.3834,-3.4107,-3.4631,-3.484,-3.5269,-3.6133,-3.6315,-3.6391,-3.6391,-3.6245,-3.6241,-3.6287,-3.6336,-3.6101,-3.5614,-3.5637,-3.5395,-3.5059,-3.4927,-3.4946,-3.5001,-3.5058,-3.5057,-3.534,-3.5417,-3.5399,-3.5302,-3.5264,-3.515,-3.511,-3.511,-3.511,-3.511,-3.5092,-3.5075,-3.5057,-3.5001,-3.4983,-3.4945,-3.4983,-3.5001,-3.4983,-3.4964,-3.4964,-2.8203,-2.8247,-2.8633,-2.8882,-2.9209,-2.9831,-3.0203,-3.0546,-3.1258,-3.1649,-3.1766,-3.2398,-3.2693,-3.2861,-3.3563,-3.3854,-3.3747,-3.3871,-3.3633,-3.3303,-3.3634,-3.394,-3.4167,-3.4378,-3.466,-3.5143,-3.609,-3.7011,-3.771,-3.7995,-3.8253,-3.8535,-3.8679,-3.8813,-3.9242,-3.9251,-3.9191,-3.8908,-3.8824,-3.8535,-3.7997,-3.7541,-3.7285,-3.7178,-3.6809,-3.6537,-3.6433,-3.6011,-3.578,-3.5679,-3.5257,-3.4694,-3.4118,-3.3512,-3.314,-3.3152,-3.3304,-3.3393,-3.3393,-3.3393,-3.3393,-3.3393,-3.3393,-3.3393,-3.3422,-3.3481,-3.3509,-3.352,-3.3615,-3.3726,-3.3807,-3.3921,-3.4035,-3.4092,-3.4266,-3.4674,-3.5306,-3.5597,-3.5627,-3.5595,-3.5233,-3.4717,-3.4762,-3.503,-3.5092,-3.5075,-3.5039,-3.5059,-3.5002,-3.4983,-3.5039,-3.5075,-3.5092,-3.511,-3.5164,-3.52,-3.52,-3.52,-3.5166,-3.5127,-3.5143,-3.5143,-3.5126,-3.5126,-3.5127,-3.5129,-3.5111,-3.5075,-3.5057,-3.5057,-3.5075,-3.5075,-3.5057,-3.5038,-3.5056,-2.8111,-2.8259,-2.8645,-2.8882,-2.9131,-2.9829,-3.0203,-3.047,-3.1245,-3.1676,-3.1888,-3.2464,-3.2653,-3.2765,-3.3462,-3.3708,-3.3537,-3.4215,-3.4507,-3.4351,-3.4786,-3.5165,-3.5321,-3.5507,-3.583,-3.6375,-3.7123,-3.7636,-3.7943,-3.8335,-3.8616,-3.8766,-3.8914,-3.9202,-3.952,-3.9625,-3.963,-3.9682,-3.9699,-3.9443,-3.8894,-3.8747,-3.8259,-3.7418,-3.7258,-3.7082,-3.6678,-3.6521,-3.6519,-3.6545,-3.605,-3.5261,-3.4331,-3.401,-3.3692,-3.3188,-3.3286,-3.3393,-3.3393,-3.3393,-3.3393,-3.3393,-3.3452,-3.3481,-3.3481,-3.352,-3.3577,-3.3615,-3.3707,-3.3815,-3.3921,-3.4023,-3.4074,-3.4099,-3.4191,-3.432,-3.4726,-3.4834,-3.4884,-3.4914,-3.4773,-3.4685,-3.4727,-3.4788,-3.4868,-3.4907,-3.4927,-3.4983,-3.5001,-3.5057,-3.5111,-3.5166,-3.5164,-3.5164,-3.5179,-3.5196,-3.5196,-3.5196,-3.516,-3.5143,-3.5176,-3.5193,-3.5176,-3.516,-3.5162,-3.5164,-3.5147,-3.5147,-3.5127,-3.511,-3.5092,-3.5092,-3.5092,-3.511,-3.511,-2.7869,-2.8111,-2.8498,-2.8882,-2.9131,-2.9829,-3.0075,-3.019,-3.0937,-3.1209,-3.1222,-3.1775,-3.1972,-3.2038,-3.2809,-3.3021,-3.2889,-3.3725,-3.4147,-3.4395,-3.526,-3.5767,-3.6037,-3.6352,-3.6677,-3.706,-3.7583,-3.7876,-3.7934,-3.8432,-3.8711,-3.8805,-3.904,-3.9309,-3.9677,-3.9729,-3.9833,-4.0087,-4.007,-3.9901,-3.9593,-3.9433,-3.8978,-3.818,-3.7767,-3.7446,-3.7119,-3.6923,-3.6869,-3.6847,-3.6423,-3.5723,-3.5025,-3.4601,-3.4056,-3.3674,-3.3436,-3.3393,-3.3393,-3.3393,-3.3393,-3.3441,-3.3481,-3.3509,-3.3549,-3.3605,-3.3643,-3.3698,-3.3762,-3.3868,-3.3972,-3.4049,-3.4124,-3.4173,-3.4245,-3.4316,-3.4363,-3.4473,-3.458,-3.4661,-3.4687,-3.4747,-3.4788,-3.483,-3.4907,-3.4927,-3.4983,-3.5039,-3.5057,-3.5129,-3.5164,-3.5181,-3.5179,-3.5176,-3.5174,-3.519,-3.519,-3.5174,-3.5174,-3.5174,-3.5174,-3.5174,-3.5174,-3.5174,-3.5176,-3.5176,-3.5179,-3.5179,-3.5143,-3.5145,-3.5145,-3.5145,-3.5143,-3.5143,-3.5143,-2.7626,-2.7962,-2.8315,-2.8652,-2.911,-2.9693,-2.972,-2.9631,-3.0286,-3.0349,-3.0117,-3.0746,-3.0948,-3.1068,-3.1782,-3.2097,-3.2098,-3.2643,-3.3098,-3.3539,-3.4524,-3.5398,-3.5854,-3.6492,-3.6877,-3.706,-3.7567,-3.786,-3.7934,-3.8415,-3.8805,-3.8805,-3.9094,-3.9415,-3.9625,-3.9677,-3.9816,-4.0087,-4.0087,-4.0054,-4.0036,-3.9739,-3.9324,-3.9166,-3.8222,-3.7689,-3.7467,-3.7085,-3.6891,-3.6939,-3.6567,-3.6309,-3.6114,-3.5121,-3.4591,-3.4285,-3.3756,-3.3508,-3.3429,-3.3393,-3.3422,-3.3462,-3.352,-3.352,-3.3587,-3.3671,-3.368,-3.3726,-3.3815,-3.3921,-3.3998,-3.4074,-3.4173,-3.4269,-3.4316,-3.4363,-3.4495,-3.458,-3.4604,-3.4687,-3.4787,-3.4827,-3.4868,-3.4888,-3.4946,-3.4983,-3.502,-3.5075,-3.5147,-3.5181,-3.5179,-3.5176,-3.5193,-3.5193,-3.519,-3.519,-3.519,-3.519,-3.519,-3.519,-3.519,-3.519,-3.519,-3.519,-3.519,-3.519,-3.5174,-3.5157,-3.5157,-3.5176,-3.5176,-3.5174,-3.5174,-3.5176,-3.5193,-2.7522,-2.7926,-2.8077,-2.8297,-2.8543,-2.8961,-2.9011,-2.8963,-2.9637,-2.9877,-2.9912,-3.028,-3.0446,-3.0353,-3.126,-3.1545,-3.1604,-3.2246,-3.2752,-3.3048,-3.3502,-3.44,-3.5337,-3.6307,-3.6846,-3.7029,-3.7358,-3.7669,-3.7934,-3.8335,-3.86,-3.8805,-3.8969,-3.9309,-3.9625,-3.9677,-3.9833,-4.0087,-4.007,-4.0037,-4.0036,-4.0131,-3.9614,-3.8584,-3.8367,-3.7811,-3.7137,-3.7013,-3.7069,-3.7203,-3.7157,-3.6843,-3.6453,-3.6143,-3.549,-3.4533,-3.4315,-3.3991,-3.3538,-3.3452,-3.3462,-3.3491,-3.3577,-3.3661,-3.3671,-3.3726,-3.378,-3.3807,-3.3895,-3.3972,-3.4023,-3.4099,-3.4221,-3.434,-3.4427,-3.4454,-3.4561,-3.4645,-3.4687,-3.4727,-3.4807,-3.4868,-3.4907,-3.4927,-3.4983,-3.5039,-3.5075,-3.5127,-3.5181,-3.5196,-3.5193,-3.5193,-3.5174,-3.519,-3.519,-3.519,-3.519,-3.519,-3.519,-3.519,-3.519,-3.519,-3.519,-3.519,-3.519,-3.519,-3.519,-3.5174,-3.519,-3.519,-3.519,-3.519,-3.5209,-3.5209,-3.5245,-2.6724,-2.7278,-2.7488,-2.7748,-2.8026,-2.8381,-2.8604,-2.8758,-2.9269,-2.9568,-2.9821,-3.0182,-3.037,-3.0477,-3.1142,-3.1457,-3.1589,-3.2133,-3.2533,-3.2937,-3.3594,-3.4147,-3.4805,-3.5661,-3.6321,-3.6625,-3.7112,-3.761,-3.7918,-3.8221,-3.8544,-3.8821,-3.8914,-3.9239,-3.9677,-3.9729,-3.9648,-3.9631,-3.9614,-3.9495,-3.9257,-3.9384,-3.9136,-3.8294,-3.8167,-3.7638,-3.6858,-3.7009,-3.7203,-3.7297,-3.7319,-3.7235,-3.7006,-3.6753,-3.6119,-3.4929,-3.4695,-3.4244,-3.3651,-3.3481,-3.352,-3.3577,-3.3671,-3.3698,-3.3753,-3.378,-3.3807,-3.3842,-3.3947,-3.3998,-3.4074,-3.4197,-3.434,-3.4454,-3.4539,-3.4583,-3.4645,-3.4687,-3.4747,-3.4788,-3.4848,-3.4926,-3.4946,-3.4964,-3.502,-3.5075,-3.5166,-3.5181,-3.5196,-3.5193,-3.519,-3.519,-3.519,-3.519,-3.519,-3.519,-3.519,-3.519,-3.519,-3.519,-3.519,-3.519,-3.519,-3.519,-3.519,-3.519,-3.519,-3.519,-3.519,-3.519,-3.519,-3.5209,-3.5226,-3.5242,-3.5277,-2.5693,-2.6294,-2.6737,-2.7124,-2.7607,-2.8157,-2.8507,-2.8769,-2.9119,-2.9442,-2.9724,-3.01,-3.0405,-3.0841,-3.1135,-3.1495,-3.186,-3.194,-3.2159,-3.261,-3.3268,-3.3818,-3.3788,-3.5186,-3.595,-3.6344,-3.6987,-3.7345,-3.7588,-3.7963,-3.8196,-3.8308,-3.852,-3.8941,-3.9089,-3.9292,-3.9211,-3.8939,-3.8886,-3.865,-3.8309,-3.8363,-3.8316,-3.7986,-3.7619,-3.7282,-3.6998,-3.7083,-3.7314,-3.7317,-3.7392,-3.7504,-3.7578,-3.7075,-3.6512,-3.5818,-3.5191,-3.4522,-3.38,-3.3647,-3.3577,-3.3671,-3.3698,-3.3726,-3.378,-3.3807,-3.3815,-3.3868,-3.3972,-3.4049,-3.413,-3.4293,-3.4431,-3.4561,-3.4645,-3.4708,-3.4728,-3.4768,-3.4848,-3.4887,-3.4906,-3.4927,-3.4964,-3.502,-3.5057,-3.511,-3.5181,-3.5196,-3.5193,-3.5193,-3.519,-3.519,-3.519,-3.519,-3.519,-3.519,-3.519,-3.519,-3.519,-3.519,-3.519,-3.519,-3.519,-3.519,-3.519,-3.519,-3.519,-3.519,-3.519,-3.519,-3.519,-3.5242,-3.5277,-3.5273,-3.5308,-2.5538,-2.6142,-2.6661,-2.7124,-2.7594,-2.8109,-2.8472,-2.8739,-2.8911,-2.9171,-2.9538,-2.9823,-3.009,-3.0501,-3.0894,-3.1177,-3.1505,-3.1475,-3.1325,-3.147,-3.1738,-3.2182,-3.291,-3.4805,-3.6168,-3.6502,-3.6294,-3.6569,-3.6908,-3.6765,-3.667,-3.7163,-3.74,-3.7428,-3.7836,-3.8137,-3.8019,-3.7997,-3.8094,-3.8041,-3.7868,-3.7921,-3.782,-3.7387,-3.7068,-3.6969,-3.6978,-3.7182,-3.7372,-3.7503,-3.7577,-3.7578,-3.7667,-3.77,-3.728,-3.6638,-3.5942,-3.5254,-3.4579,-3.398,-3.3689,-3.3698,-3.3753,-3.378,-3.3807,-3.3807,-3.3815,-3.3913,-3.3991,-3.4074,-3.4245,-3.434,-3.4454,-3.4583,-3.4708,-3.479,-3.4831,-3.4849,-3.4887,-3.4907,-3.4927,-3.4927,-3.4982,-3.5057,-3.5129,-3.5181,-3.5179,-3.5193,-3.5174,-3.519,-3.519,-3.519,-3.519,-3.519,-3.519,-3.519,-3.519,-3.519,-3.519,-3.519,-3.519,-3.519,-3.519,-3.519,-3.519,-3.519,-3.519,-3.519,-3.519,-3.519,-3.5226,-3.5258,-3.5308,-3.5304,-3.5354,-2.4903,-2.5681,-2.5882,-2.6444,-2.7078,-2.7338,-2.767,-2.8132,-2.8369,-2.8826,-2.9357,-2.9666,-3.0024,-3.0528,-3.0773,-3.1163,-3.165,-3.1782,-3.1893,-3.209,-3.2273,-3.2601,-3.3044,-3.4331,-3.5444,-3.5537,-3.5517,-3.5802,-3.6087,-3.6085,-3.6212,-3.664,-3.6659,-3.7032,-3.7286,-3.7385,-3.7414,-3.7225,-3.7317,-3.7229,-3.6983,-3.7081,-3.7185,-3.6861,-3.6728,-3.6806,-3.7005,-3.7182,-3.7177,-3.7112,-3.7184,-3.7433,-3.7773,-3.7948,-3.7688,-3.708,-3.6344,-3.5636,-3.4903,-3.4182,-3.3726,-3.3771,-3.378,-3.3807,-3.3834,-3.3834,-3.3868,-3.3947,-3.4023,-3.4124,-3.4316,-3.4404,-3.4517,-3.4666,-3.4747,-3.4849,-3.4927,-3.4965,-3.4984,-3.4983,-3.4983,-3.5039,-3.5094,-3.5129,-3.5145,-3.5196,-3.5212,-3.5209,-3.5174,-3.519,-3.519,-3.519,-3.519,-3.519,-3.519,-3.519,-3.519,-3.519,-3.519,-3.519,-3.519,-3.519,-3.519,-3.519,-3.519,-3.519,-3.519,-3.519,-3.5209,-3.5261,-3.5277,-3.5308,-3.532,-3.535,-3.5398,-2.4147,-2.5106,-2.5157,-2.5768,-2.6611,-2.6602,-2.7055,-2.7726,-2.7968,-2.8582,-2.9232,-2.9595,-3.0036,-3.0569,-3.0773,-3.1282,-3.1797,-3.2202,-3.2255,-3.2404,-3.2616,-3.29,-3.3406,-3.379,-3.4037,-3.3848,-3.4482,-3.5117,-3.5466,-3.5534,-3.5534,-3.6163,-3.6299,-3.6305,-3.6804,-3.705,-3.6812,-3.6421,-3.654,-3.6446,-3.6061,-3.612,-3.6285,-3.6565,-3.6655,-3.6846,-3.7044,-3.7167,-3.7035,-3.6524,-3.6609,-3.7016,-3.7494,-3.7851,-3.7878,-3.7267,-3.6711,-3.6017,-3.5308,-3.4495,-3.3973,-3.388,-3.3807,-3.3807,-3.3834,-3.3842,-3.3921,-3.3998,-3.4074,-3.4221,-3.4363,-3.4473,-3.4583,-3.4747,-3.4809,-3.4869,-3.4983,-3.502,-3.5057,-3.5075,-3.5056,-3.511,-3.5164,-3.5198,-3.5212,-3.5209,-3.5226,-3.5226,-3.5207,-3.5207,-3.5223,-3.5223,-3.5239,-3.5239,-3.5239,-3.5239,-3.5223,-3.5223,-3.5207,-3.5207,-3.5207,-3.5223,-3.5223,-3.519,-3.519,-3.519,-3.5209,-3.5229,-3.5245,-3.5296,-3.5327,-3.5339,-3.535,-3.5393,-3.5441,-2.3722,-2.4422,-2.5406,-2.6118,-2.6758,-2.7271,-2.7688,-2.8233,-2.8328,-2.8705,-2.9039,-2.955,-2.9876,-3.0242,-3.0692,-3.1096,-3.1332,-3.1685,-3.1806,-3.1812,-3.1988,-3.2236,-3.2642,-3.2942,-3.298,-3.3232,-3.3834,-3.4494,-3.4675,-3.4382,-3.463,-3.4856,-3.4988,-3.5202,-3.5477,-3.5518,-3.5827,-3.5753,-3.5869,-3.5853,-3.5868,-3.5975,-3.6233,-3.6602,-3.6684,-3.6886,-3.7126,-3.7261,-3.7092,-3.6699,-3.6678,-3.6456,-3.6439,-3.6862,-3.7394,-3.7731,-3.7369,-3.6607,-3.5915,-3.521,-3.4477,-3.4027,-3.3807,-3.3807,-3.3834,-3.3868,-3.3947,-3.4049,-3.4173,-3.4311,-3.4386,-3.4517,-3.4645,-3.4749,-3.4849,-3.4927,-3.5057,-3.5129,-3.5147,-3.5127,-3.5126,-3.5143,-3.5193,-3.5245,-3.5261,-3.5273,-3.5273,-3.5254,-3.5254,-3.527,-3.5285,-3.5285,-3.5285,-3.53,-3.53,-3.5285,-3.5285,-3.5285,-3.527,-3.527,-3.527,-3.5285,-3.527,-3.5239,-3.5207,-3.5209,-3.5229,-3.5248,-3.528,-3.5327,-3.5358,-3.5388,-3.5393,-3.5435,-3.5476,-2.375,-2.4505,-2.5093,-2.5732,-2.6372,-2.666,-2.6959,-2.7268,-2.7678,-2.7911,-2.8199,-2.8663,-2.9143,-2.944,-2.9772,-3.0227,-3.0716,-3.1168,-3.1279,-3.1351,-3.1625,-3.1853,-3.215,-3.2484,-3.2718,-3.3045,-3.3511,-3.3937,-3.4138,-3.4073,-3.4101,-3.4415,-3.4546,-3.4691,-3.4899,-3.5202,-3.5291,-3.5337,-3.5503,-3.5711,-3.5905,-3.6122,-3.6419,-3.6602,-3.6788,-3.6987,-3.715,-3.6893,-3.6542,-3.6088,-3.5669,-3.5407,-3.5421,-3.5726,-3.6492,-3.7429,-3.7522,-3.7051,-3.6321,-3.5495,-3.4651,-3.3954,-3.3807,-3.3834,-3.3842,-3.3921,-3.4016,-3.4099,-3.4245,-3.4381,-3.4386,-3.4561,-3.4687,-3.4788,-3.4869,-3.4945,-3.5075,-3.5166,-3.5181,-3.5179,-3.5212,-3.5226,-3.5239,-3.5289,-3.5304,-3.53,-3.5315,-3.5315,-3.5315,-3.5315,-3.533,-3.5315,-3.5335,-3.5335,-3.533,-3.535,-3.535,-3.535,-3.5369,-3.5369,-3.5431,-3.5503,-3.5377,-3.527,-3.5254,-3.5545,-3.528,-3.5337,-3.5331,-3.54,-3.5541,-3.5624,-3.5493,-3.5476,-3.5612,-2.3754,-2.4539,-2.4737,-2.5218,-2.5817,-2.5819,-2.5926,-2.6227,-2.669,-2.7092,-2.738,-2.788,-2.8444,-2.883,-2.924,-2.9693,-3.0172,-3.0805,-3.1161,-3.1366,-3.1712,-3.1996,-3.2221,-3.257,-3.2912,-3.2966,-3.3409,-3.3607,-3.3841,-3.3965,-3.425,-3.4497,-3.4691,-3.4804,-3.5011,-3.5228,-3.5291,-3.5383,-3.5549,-3.5756,-3.6062,-3.6335,-3.6561,-3.6702,-3.6886,-3.7105,-3.7206,-3.6735,-3.6149,-3.5549,-3.4929,-3.4411,-3.4479,-3.467,-3.5422,-3.6517,-3.7179,-3.6945,-3.6138,-3.5771,-3.4945,-3.3935,-3.3825,-3.3815,-3.3895,-3.3972,-3.4092,-3.4197,-3.4316,-3.4427,-3.4473,-3.4604,-3.4728,-3.4829,-3.4908,-3.4982,-3.5092,-3.5181,-3.5248,-3.5261,-3.5293,-3.5324,-3.532,-3.5369,-3.5398,-3.5398,-3.5379,-3.5398,-3.5398,-3.5379,-3.5379,-3.5364,-3.5364,-3.5364,-3.5364,-3.5379,-3.5379,-3.5398,-3.5456,-3.5513,-3.5628,-3.5729,-3.5752,-3.5963,-3.6124,-3.632,-3.5883,-3.5656,-3.599,-3.6136,-3.5989,-3.6108,-3.6458,-3.6267,-3.6093,-2.3405,-2.405,-2.4574,-2.5028,-2.53,-2.5188,-2.5555,-2.614,-2.6258,-2.6684,-2.7184,-2.7838,-2.8278,-2.8848,-2.9594,-3.0007,-3.0401,-3.0836,-3.119,-3.1409,-3.1811,-3.2038,-3.2206,-3.2679,-3.2897,-3.3005,-3.345,-3.3694,-3.3899,-3.405,-3.43,-3.4643,-3.4787,-3.4947,-3.5105,-3.5337,-3.5463,-3.5537,-3.5701,-3.5905,-3.6165,-3.6377,-3.6561,-3.6725,-3.6926,-3.7034,-3.7084,-3.6541,-3.6005,-3.5421,-3.4745,-3.4165,-3.388,-3.4415,-3.4794,-3.5564,-3.6311,-3.6798,-3.5624,-3.5569,-3.5238,-3.4119,-3.3807,-3.3834,-3.3902,-3.3956,-3.4037,-3.4269,-3.4325,-3.4431,-3.452,-3.4687,-3.479,-3.4888,-3.4983,-3.5075,-3.5183,-3.5231,-3.528,-3.5289,-3.532,-3.535,-3.5379,-3.5446,-3.5493,-3.5474,-3.546,-3.546,-3.546,-3.5427,-3.5427,-3.5427,-3.5412,-3.5412,-3.5412,-3.5427,-3.56,-3.5561,-3.5696,-3.5849,-3.6253,-3.6579,-3.6954,-3.7151,-3.7218,-3.7203,-3.6972,-3.6895,-3.6972,-3.7002,-3.6988,-3.7343,-3.7795,-3.7366,-3.6554,-2.2397,-2.2905,-2.3409,-2.3827,-2.4113,-2.4384,-2.4767,-2.5239,-2.5611,-2.6,-2.6527,-2.6903,-2.7534,-2.8415,-2.913,-2.9708,-3.0194,-3.0807,-3.1132,-3.1394,-3.1754,-3.2053,-3.2221,-3.2624,-3.2912,-3.3112,-3.345,-3.3864,-3.405,-3.425,-3.4497,-3.4804,-3.493,-3.5088,-3.5245,-3.54,-3.552,-3.5656,-3.5861,-3.6079,-3.6293,-3.6461,-3.6684,-3.6766,-3.7027,-3.697,-3.6626,-3.6114,-3.5502,-3.4846,-3.415,-3.3762,-3.3666,-3.3897,-3.4173,-3.4358,-3.5357,-3.5642,-3.5174,-3.5422,-3.4816,-3.4201,-3.3823,-3.3895,-3.3924,-3.3716,-3.3794,-3.4274,-3.3956,-3.4027,-3.4433,-3.4708,-3.4791,-3.4889,-3.4773,-3.4996,-3.5102,-3.5264,-3.5308,-3.532,-3.5345,-3.5393,-3.5427,-3.546,-3.5493,-3.5493,-3.5474,-3.5474,-3.5474,-3.5474,-3.5474,-3.5474,-3.5474,-3.5474,-3.5474,-3.5493,-3.5921,-3.6051,-3.6301,-3.657,-3.7199,-3.7584,-3.7882,-3.7916,-3.7819,-3.7844,-3.7945,-3.7843,-3.7679,-3.7839,-3.8031,-3.8092,-3.8093,-3.7397,-3.6659,-2.1199,-2.1699,-2.2434,-2.2877,-2.3246,-2.3604,-2.4083,-2.4579,-2.4975,-2.5448,-2.595,-2.6324,-2.7067,-2.7903,-2.8478,-2.9106,-2.99,-3.0528,-3.0896,-3.1248,-3.1655,-3.2012,-3.2221,-3.257,-3.2966,-3.3112,-3.3503,-3.3899,-3.4217,-3.4448,-3.4643,-3.4947,-3.5088,-3.5228,-3.5383,-3.552,-3.5656,-3.5844,-3.6079,-3.6293,-3.6461,-3.6667,-3.6788,-3.6948,-3.7055,-3.6962,-3.6237,-3.5703,-3.5119,-3.4443,-3.381,-3.3542,-3.3613,-3.3688,-3.378,-3.3982,-3.4596,-3.4789,-3.466,-3.466,-3.4247,-3.3787,-3.3342,-3.3167,-3.3302,-3.305,-3.2974,-3.3519,-3.3272,-3.3414,-3.3836,-3.4033,-3.4037,-3.4073,-3.4201,-3.4556,-3.4816,-3.4802,-3.5055,-3.5335,-3.5364,-3.5446,-3.5474,-3.5474,-3.5507,-3.5507,-3.5507,-3.5468,-3.543,-3.5372,-3.5372,-3.5353,-3.5391,-3.543,-3.5507,-3.5641,-3.6084,-3.6565,-3.6834,-3.7392,-3.808,-3.8421,-3.8642,-3.8593,-3.8562,-3.8929,-3.9306,-3.8811,-3.8385,-3.8801,-3.8987,-3.8389,-3.8001,-3.732,-3.6684,-2.0041,-2.0642,-2.2082,-2.2819,-2.3109,-2.3207,-2.3704,-2.4347,-2.4489,-2.5004,-2.5765,-2.6372,-2.6823,-2.7363,-2.786,-2.845,-2.9299,-2.9914,-3.0411,-3.107,-3.1655,-3.1879,-3.2191,-3.257,-3.3005,-3.315,-3.3487,-3.3899,-3.425,-3.4448,-3.4739,-3.5058,-3.5198,-3.5383,-3.5549,-3.5745,-3.5949,-3.6105,-3.6276,-3.6461,-3.6626,-3.6829,-3.6948,-3.7066,-3.7188,-3.7056,-3.6399,-3.5769,-3.5055,-3.4326,-3.3743,-3.3528,-3.3605,-3.3671,-3.3707,-3.388,-3.3997,-3.4189,-3.4189,-3.3997,-3.3537,-3.2889,-3.241,-3.2228,-3.2377,-3.2162,-3.2157,-3.2393,-3.2362,-3.2388,-3.2543,-3.258,-3.3013,-3.3196,-3.3437,-3.3655,-3.3914,-3.4087,-3.44,-3.5085,-3.5187,-3.4922,-3.4859,-3.4737,-3.5315,-3.5372,-3.5141,-3.5084,-3.5084,-3.5045,-3.5103,-3.5141,-3.5205,-3.5301,-3.5488,-3.5795,-3.6238,-3.6969,-3.7526,-3.8238,-3.9061,-3.9283,-3.9403,-3.9681,-3.9785,-4.0229,-4.0339,-3.9507,-3.9166,-3.9882,-3.9863,-3.8907,-3.8012,-3.7279,-3.6639,-1.9868,-2.0292,-2.1138,-2.1755,-2.2262,-2.2507,-2.2945,-2.348,-2.3828,-2.4354,-2.5128,-2.5422,-2.6038,-2.6613,-2.7041,-2.7682,-2.8569,-2.9128,-2.978,-3.049,-3.1039,-3.1561,-3.2023,-3.2523,-3.3005,-3.324,-3.3539,-3.3949,-3.4415,-3.4497,-3.4804,-3.5105,-3.5291,-3.5475,-3.5684,-3.5949,-3.6165,-3.6259,-3.6385,-3.6585,-3.6829,-3.6948,-3.7066,-3.722,-3.7392,-3.6809,-3.5882,-3.5672,-3.4866,-3.4075,-3.3633,-3.3603,-3.3661,-3.3707,-3.3788,-3.386,-3.3921,-3.3972,-3.385,-3.3548,-3.2884,-3.2329,-3.1918,-3.1745,-3.1666,-3.1507,-3.1663,-3.1744,-3.1655,-3.1582,-3.226,-3.2409,-3.2555,-3.2583,-3.2629,-3.2772,-3.3024,-3.3236,-3.3566,-3.4136,-3.3991,-3.3705,-3.3737,-3.3776,-3.4564,-3.5205,-3.4949,-3.4699,-3.4603,-3.4449,-3.441,-3.4372,-3.4391,-3.4693,-3.4866,-3.5545,-3.6353,-3.7199,-3.8046,-3.8734,-3.9422,-4.0024,-4.0221,-4.0577,-4.0449,-4.0204,-3.9946,-3.9676,-3.9637,-3.9714,-3.9518,-3.9021,-3.8132,-3.7141,-3.6537,-1.9791,-2.0107,-2.0529,-2.1053,-2.1624,-2.2061,-2.2469,-2.2935,-2.3419,-2.3949,-2.4607,-2.4724,-2.5211,-2.5962,-2.6286,-2.6933,-2.7839,-2.8419,-2.9078,-2.9792,-3.0423,-3.1101,-3.1717,-3.2331,-3.2776,-3.3251,-3.3591,-3.3949,-3.4448,-3.4546,-3.4851,-3.5152,-3.5354,-3.5566,-3.5861,-3.614,-3.6335,-3.6402,-3.6527,-3.6731,-3.697,-3.7087,-3.7203,-3.7283,-3.729,-3.6665,-3.5713,-3.5285,-3.4635,-3.3941,-3.3567,-3.3633,-3.3726,-3.3788,-3.3868,-3.3921,-3.3998,-3.4049,-3.3858,-3.3123,-3.2122,-3.1191,-3.1049,-3.1075,-3.1119,-3.0787,-3.0771,-3.1091,-3.0904,-3.0977,-3.1728,-3.1495,-3.1485,-3.1413,-3.1497,-3.1656,-3.2139,-3.2464,-3.2774,-3.3114,-3.3,-3.3103,-3.3154,-3.3269,-3.3519,-3.4141,-3.4026,-3.3814,-3.3757,-3.3603,-3.3404,-3.3346,-3.3339,-3.3705,-3.4129,-3.5355,-3.6491,-3.7112,-3.7959,-3.8729,-3.9432,-3.9957,-3.9946,-3.9567,-3.947,-3.9584,-3.9383,-3.8996,-3.8996,-3.9124,-3.8711,-3.8181,-3.7394,-3.6425,-3.6273,-1.9694,-1.9933,-2.042,-2.091,-2.1358,-2.1987,-2.2469,-2.2935,-2.3397,-2.3955,-2.4549,-2.46,-2.498,-2.5564,-2.58,-2.6427,-2.7238,-2.7737,-2.8345,-2.9104,-2.9756,-3.0472,-3.1121,-3.1719,-3.2374,-3.3308,-3.3598,-3.3822,-3.4497,-3.4643,-3.4947,-3.5245,-3.5475,-3.5684,-3.5975,-3.6318,-3.6544,-3.6643,-3.6748,-3.6891,-3.7069,-3.7203,-3.7392,-3.7219,-3.6987,-3.6373,-3.5515,-3.5015,-3.4443,-3.3777,-3.3716,-3.3753,-3.3834,-3.3921,-3.3972,-3.4016,-3.4074,-3.4111,-3.3993,-3.2683,-3.1427,-3.0219,-3.0166,-3.0132,-2.9908,-2.9813,-2.9943,-3.0413,-3.0143,-3.0042,-3.0146,-3.0209,-3.0407,-3.0528,-3.0663,-3.0819,-3.1339,-3.1577,-3.1866,-3.2039,-3.2494,-3.2814,-3.2827,-3.2839,-3.2762,-3.2916,-3.2929,-3.291,-3.2923,-3.2608,-3.2312,-3.2274,-3.2285,-3.2998,-3.3723,-3.5451,-3.6607,-3.7178,-3.7814,-3.8527,-3.8753,-3.8813,-3.8704,-3.8459,-3.8593,-3.8853,-3.8573,-3.8227,-3.8082,-3.7851,-3.7531,-3.7003,-3.6277,-3.591,-3.5892,-1.8554,-1.8794,-1.9364,-1.9844,-2.0349,-2.164,-2.2383,-2.2812,-2.3352,-2.3989,-2.4523,-2.4587,-2.4953,-2.5397,-2.5702,-2.6089,-2.6626,-2.7128,-2.7768,-2.8512,-2.9064,-2.9818,-3.0462,-3.1073,-3.1781,-3.2628,-3.3072,-3.363,-3.4513,-3.4609,-3.4961,-3.5291,-3.5639,-3.5861,-3.6079,-3.6335,-3.6561,-3.6684,-3.6829,-3.7027,-3.722,-3.7356,-3.7273,-3.6916,-3.6712,-3.6089,-3.515,-3.477,-3.4324,-3.3808,-3.3788,-3.386,-3.3939,-3.4023,-3.4074,-3.4099,-3.4136,-3.3692,-3.3131,-3.2115,-3.135,-3.0264,-2.9664,-2.9701,-2.9755,-2.9808,-2.9859,-2.9874,-2.994,-2.9972,-3.0076,-3.017,-3.029,-3.03,-3.0379,-3.0433,-3.0702,-3.0714,-3.0854,-3.0929,-3.1222,-3.1438,-3.1526,-3.1815,-3.1854,-3.1904,-3.195,-3.2073,-3.2093,-3.1518,-3.1105,-3.1124,-3.1279,-3.2146,-3.3257,-3.4967,-3.617,-3.6755,-3.743,-3.8202,-3.8215,-3.7823,-3.7938,-3.7955,-3.8028,-3.807,-3.7666,-3.725,-3.6783,-3.6459,-3.6476,-3.6472,-3.6105,-3.5911,-3.5891,-1.7955,-1.8251,-1.8808,-1.9216,-1.9782,-2.1081,-2.2031,-2.2712,-2.3162,-2.3761,-2.4483,-2.463,-2.4995,-2.5439,-2.5688,-2.6002,-2.6379,-2.6808,-2.7284,-2.7995,-2.8454,-2.9185,-2.9858,-3.0394,-3.1155,-3.1946,-3.2482,-3.2999,-3.3645,-3.4322,-3.4914,-3.5436,-3.5766,-3.577,-3.5967,-3.6177,-3.6602,-3.6766,-3.6891,-3.6911,-3.6943,-3.6878,-3.6774,-3.6339,-3.5966,-3.5584,-3.4897,-3.4488,-3.4284,-3.3935,-3.3868,-3.3939,-3.4023,-3.4117,-3.4148,-3.4197,-3.4181,-3.3545,-3.2585,-3.2236,-3.1355,-3.0,-2.9811,-2.979,-2.9823,-2.9893,-2.9959,-3.0007,-3.0038,-3.0083,-3.0128,-3.0199,-3.0226,-3.024,-3.0279,-3.0349,-3.0374,-3.0424,-3.046,-3.0455,-3.0477,-3.0488,-3.049,-3.0586,-3.0856,-3.0944,-3.1012,-3.1185,-3.1367,-3.0914,-3.0509,-3.0597,-3.0983,-3.1987,-3.3117,-3.4442,-3.5512,-3.626,-3.6967,-3.7662,-3.7179,-3.6767,-3.7123,-3.7351,-3.7121,-3.6881,-3.6647,-3.6284,-3.6184,-3.6083,-3.6039,-3.5995,-3.5892,-3.5891,-3.5889,-1.7903,-1.8208,-1.8704,-1.9126,-1.9609,-2.0272,-2.1348,-2.272,-2.2757,-2.3406,-2.4486,-2.4554,-2.4914,-2.5398,-2.5756,-2.6165,-2.6539,-2.6884,-2.7292,-2.7664,-2.8087,-2.8817,-2.9345,-2.9777,-3.0527,-3.1246,-3.1806,-3.2187,-3.2561,-3.3504,-3.4516,-3.5321,-3.5428,-3.5385,-3.5432,-3.5775,-3.6214,-3.6265,-3.6426,-3.639,-3.6255,-3.6292,-3.6021,-3.563,-3.5178,-3.4933,-3.447,-3.4164,-3.3963,-3.3868,-3.3972,-3.4005,-3.4099,-3.4191,-3.4221,-3.4316,-3.4409,-3.354,-3.246,-3.222,-3.1374,-3.0163,-2.9914,-2.9891,-2.9924,-2.9991,-3.0034,-3.0098,-3.0142,-3.0166,-3.0207,-3.0266,-3.0312,-3.0337,-3.0374,-3.041,-3.0421,-3.0444,-3.0477,-3.0479,-3.0509,-3.0519,-3.053,-3.054,-3.054,-3.0627,-3.0781,-3.0771,-3.0897,-3.0848,-3.0568,-3.0656,-3.1187,-3.2067,-3.3169,-3.427,-3.5102,-3.5941,-3.6288,-3.6772,-3.6192,-3.5952,-3.6287,-3.6396,-3.5989,-3.5833,-3.6024,-3.6044,-3.5969,-3.5885,-3.5866,-3.5872,-3.5898,-3.5889,-3.5885,-1.6688,-1.7096,-1.7546,-1.8058,-1.8631,-1.9419,-2.0619,-2.192,-2.2151,-2.2661,-2.335,-2.3888,-2.4477,-2.5007,-2.5697,-2.6254,-2.6683,-2.7078,-2.7335,-2.769,-2.8054,-2.8486,-2.8885,-2.9296,-3.0006,-3.0638,-3.1221,-3.1613,-3.2344,-3.3101,-3.3573,-3.4176,-3.4592,-3.4483,-3.4656,-3.4905,-3.5091,-3.5332,-3.5574,-3.5615,-3.5581,-3.5647,-3.5313,-3.488,-3.474,-3.4488,-3.4063,-3.3982,-3.3868,-3.3947,-3.4023,-3.4099,-3.4173,-3.4197,-3.4245,-3.4363,-3.4282,-3.3843,-3.2538,-3.2221,-3.1562,-3.0307,-2.9959,-2.9975,-3.0007,-3.0068,-3.0142,-3.0185,-3.0226,-3.0234,-3.0273,-3.0318,-3.0374,-3.0398,-3.0414,-3.0436,-3.0458,-3.0469,-3.05,-3.051,-3.053,-3.0559,-3.0559,-3.0579,-3.0579,-3.0588,-3.0617,-3.0588,-3.0579,-3.0569,-3.0588,-3.0656,-3.1429,-3.2348,-3.3044,-3.4049,-3.4825,-3.554,-3.5947,-3.6179,-3.5968,-3.5804,-3.5728,-3.5718,-3.5745,-3.5771,-3.5815,-3.5845,-3.5879,-3.5898,-3.5885,-3.5885,-3.5891,-3.5899,-3.5914,-1.5925,-1.6385,-1.6946,-1.7634,-1.8356,-1.9107,-2.0027,-2.0899,-2.1407,-2.1979,-2.2733,-2.3371,-2.3909,-2.442,-2.5109,-2.5773,-2.6462,-2.679,-2.7195,-2.794,-2.8204,-2.8556,-2.8811,-2.906,-2.9575,-3.0167,-3.0583,-3.092,-3.177,-3.251,-3.3051,-3.3765,-3.3744,-3.3761,-3.3908,-3.4027,-3.393,-3.4181,-3.4482,-3.4764,-3.4882,-3.4906,-3.46,-3.4335,-3.432,-3.4053,-3.379,-3.3834,-3.3921,-3.3998,-3.4074,-3.4124,-3.4197,-3.4245,-3.4316,-3.4375,-3.4049,-3.344,-3.241,-3.1939,-3.1142,-3.0376,-3.0003,-3.0053,-3.0098,-3.0161,-3.0185,-3.024,-3.0279,-3.0299,-3.0336,-3.0359,-3.0402,-3.0425,-3.0458,-3.0471,-3.05,-3.051,-3.052,-3.055,-3.0559,-3.0588,-3.0617,-3.0617,-3.0617,-3.0617,-3.0617,-3.0617,-3.0588,-3.0588,-3.0588,-3.0627,-3.1613,-3.2638,-3.3305,-3.3982,-3.4932,-3.5562,-3.5697,-3.5843,-3.5699,-3.5708,-3.5718,-3.5773,-3.5815,-3.583,-3.5833,-3.5859,-3.5883,-3.5903,-3.5903,-3.5908,-3.5914,-3.5924,-3.5962,-1.5509,-1.5911,-1.6775,-1.7596,-1.8454,-1.904,-1.9503,-1.9818,-2.0656,-2.1555,-2.2399,-2.2963,-2.3428,-2.3912,-2.4489,-2.5207,-2.5804,-2.6268,-2.7003,-2.8079,-2.815,-2.8466,-2.892,-2.9199,-2.9537,-2.977,-3.0125,-3.0629,-3.0892,-3.1664,-3.2591,-3.3516,-3.3562,-3.3412,-3.3204,-3.3298,-3.3266,-3.3262,-3.386,-3.4371,-3.4112,-3.401,-3.4001,-3.3622,-3.3611,-3.3661,-3.3744,-3.3834,-3.3921,-3.3998,-3.4074,-3.4148,-3.4221,-3.4316,-3.4427,-3.4199,-3.3794,-3.2993,-3.2204,-3.1635,-3.0947,-3.0349,-3.0064,-3.0109,-3.0171,-3.0218,-3.0259,-3.0279,-3.0311,-3.0348,-3.0371,-3.0406,-3.0428,-3.0469,-3.05,-3.052,-3.055,-3.055,-3.0579,-3.0588,-3.0588,-3.0617,-3.0617,-3.0617,-3.0617,-3.0617,-3.0617,-3.0617,-3.0617,-3.0617,-3.0598,-3.0675,-3.1855,-3.285,-3.3383,-3.4147,-3.5183,-3.5697,-3.5718,-3.5728,-3.5736,-3.5745,-3.5736,-3.5771,-3.583,-3.5866,-3.5872,-3.5889,-3.5899,-3.5924,-3.5929,-3.5929,-3.5934,-3.5962,-3.5966,-1.493,-1.5321,-1.6203,-1.6917,-1.749,-1.8374,-1.8819,-1.9129,-2.0118,-2.0947,-2.1607,-2.2373,-2.2969,-2.3441,-2.4126,-2.4785,-2.532,-2.5774,-2.6559,-2.727,-2.769,-2.8217,-2.8979,-2.922,-2.9524,-2.9853,-3.0172,-3.0609,-3.1019,-3.1444,-3.1725,-3.2256,-3.251,-3.2555,-3.2704,-3.2774,-3.2788,-3.2776,-3.3226,-3.3684,-3.3526,-3.3489,-3.346,-3.3491,-3.3587,-3.3698,-3.3788,-3.3921,-3.3998,-3.4074,-3.4148,-3.4221,-3.4269,-3.4386,-3.4158,-3.3754,-3.3406,-3.258,-3.1826,-3.1252,-3.075,-3.0373,-3.0128,-3.0152,-3.0194,-3.0253,-3.0279,-3.0311,-3.0348,-3.0383,-3.0417,-3.043,-3.0481,-3.051,-3.055,-3.0579,-3.0588,-3.0588,-3.0617,-3.0617,-3.0617,-3.0617,-3.0617,-3.0598,-3.0617,-3.0617,-3.0617,-3.0617,-3.0607,-3.0607,-3.0607,-3.0878,-3.2145,-3.3073,-3.3499,-3.4293,-3.5359,-3.5728,-3.5747,-3.5756,-3.5771,-3.5779,-3.5799,-3.5795,-3.5826,-3.5885,-3.5908,-3.5919,-3.5929,-3.5958,-3.5962,-3.5962,-3.5966,-3.599,-3.5994,-1.4368,-1.481,-1.5919,-1.6612,-1.7091,-1.7771,-1.828,-1.8654,-1.9396,-2.0221,-2.0994,-2.1766,-2.2437,-2.2866,-2.3502,-2.4254,-2.4766,-2.5151,-2.5909,-2.6627,-2.7162,-2.7633,-2.8291,-2.8982,-2.9275,-2.9613,-3.0435,-3.0992,-3.1089,-3.144,-3.1685,-3.1768,-3.1894,-3.2091,-3.237,-3.2489,-3.2603,-3.2838,-3.2957,-3.3063,-3.3154,-3.3298,-3.3422,-3.3549,-3.3671,-3.3762,-3.3868,-3.3998,-3.4074,-3.4173,-3.4269,-3.4045,-3.3982,-3.388,-3.3571,-3.3031,-3.2524,-3.2033,-3.133,-3.0848,-3.0605,-3.0299,-3.0171,-3.0207,-3.0241,-3.0286,-3.0286,-3.0316,-3.0371,-3.0386,-3.0439,-3.0471,-3.051,-3.055,-3.0579,-3.0588,-3.0588,-3.0598,-3.0617,-3.0617,-3.0607,-3.0597,-3.0606,-3.0615,-3.0615,-3.0615,-3.0606,-3.0606,-3.0606,-3.0597,-3.0606,-3.1023,-3.2232,-3.2967,-3.3335,-3.4294,-3.5524,-3.5728,-3.5775,-3.5782,-3.5788,-3.583,-3.5845,-3.5852,-3.5872,-3.5897,-3.5919,-3.5934,-3.5962,-3.599,-3.599,-3.6009,-3.6017,-3.602,-3.6004,-1.3862,-1.4482,-1.5681,-1.6405,-1.6857,-1.7325,-1.769,-1.8172,-1.8709,-1.9494,-2.0427,-2.1135,-2.1759,-2.2331,-2.2646,-2.3416,-2.4073,-2.4552,-2.5302,-2.6041,-2.6461,-2.7091,-2.7646,-2.8184,-2.8697,-2.9353,-3.0124,-3.0504,-3.0692,-3.0956,-3.1177,-3.1581,-3.183,-3.2089,-3.2225,-3.237,-3.2349,-3.2402,-3.2553,-3.2882,-3.3103,-3.3332,-3.3502,-3.3615,-3.3734,-3.3842,-3.3947,-3.3919,-3.4018,-3.3929,-3.3877,-3.3577,-3.3379,-3.3197,-3.2788,-3.2298,-3.1822,-3.14,-3.0918,-3.0483,-3.0314,-3.018,-3.0207,-3.026,-3.0304,-3.0328,-3.0328,-3.0352,-3.0398,-3.0439,-3.0471,-3.051,-3.0559,-3.0588,-3.0598,-3.0607,-3.0607,-3.0607,-3.0607,-3.0607,-3.0606,-3.0623,-3.0604,-3.0621,-3.0602,-3.0602,-3.0602,-3.0602,-3.0621,-3.0613,-3.0604,-3.1185,-3.2183,-3.2764,-3.318,-3.441,-3.5728,-3.5766,-3.5784,-3.5791,-3.5803,-3.5845,-3.5866,-3.5879,-3.5897,-3.5914,-3.5953,-3.5986,-3.6013,-3.602,-3.602,-3.602,-3.601,-3.6013,-3.601,-1.3514,-1.4279,-1.4871,-1.5372,-1.5879,-1.6568,-1.7143,-1.7634,-1.8499,-1.9274,-1.9781,-2.033,-2.1166,-2.2526,-2.2754,-2.3259,-2.3733,-2.4113,-2.4777,-2.5582,-2.5831,-2.653,-2.7198,-2.7705,-2.8286,-2.891,-2.9366,-2.9417,-3.0009,-3.0108,-3.0093,-3.0368,-3.0433,-3.0677,-3.0867,-3.1087,-3.1333,-3.1552,-3.166,-3.1819,-3.222,-3.2675,-3.3579,-3.3762,-3.3842,-3.3954,-3.3951,-3.3499,-3.3366,-3.3202,-3.2957,-3.2705,-3.2522,-3.2449,-3.2071,-3.1612,-3.1149,-3.0928,-3.0537,-3.0324,-3.0207,-3.0266,-3.0286,-3.0348,-3.0394,-3.0436,-3.0428,-3.0449,-3.0481,-3.0481,-3.052,-3.0559,-3.0607,-3.0607,-3.0616,-3.0606,-3.0606,-3.0615,-3.0604,-3.0604,-3.0613,-3.0602,-3.0602,-3.061,-3.0618,-3.0618,-3.0618,-3.0618,-3.0626,-3.0618,-3.061,-3.1308,-3.2094,-3.2724,-3.3248,-3.4671,-3.5766,-3.5784,-3.581,-3.5823,-3.5852,-3.5866,-3.5885,-3.5922,-3.5928,-3.5943,-3.5981,-3.6017,-3.602,-3.6004,-3.6007,-3.601,-3.6018,-3.6005,-3.6003]}]]